Darstellungsparameter: Aktuell verwendete Einstellungen:
Skalierung der Graphiken ... ?
xyx+y,   Skalierungsfaktor:      Skalierung: Modus: x, Faktor: 1
Darstellungszeitraum ... ?
Vom - - bis: - -   Zeitraum: 28.02.2019 - 27.08.2019
Min/Max/Avg-Anzeige ... ?
Zeige MMA aktuell
Zeige MMA Monat
Zeige MMA alles
Zeige --A aktuell
Zeige --A Monat
Zeige --A alles
Keine MMA-Anzeige
MMA:
Minimum Maximum Average (ber die Originaldaten)
MMA-Basis: 23.02.2003 - 16.08.2019
Quicknavigation für Darstellung... ?
Tage:      1T, 2T, 3T, 5T -1T -2T -3T -5T +1T +2T +3T +5T
Wochen: 1W, 2W, 3W -1W -2W -3W +1W +2W +3W
Monate: 1M, 3M, 6M -1M -3M -6M +1M +3M +6M
Jahre:    1J, 3J, 5J, 10J -1J -3J -5J -10J +1J +3J +5J +10J
Nutze für die Darstellung ... ?
Originaldaten oder Mittelwerte auf ...
Stundenbasis Tagesbasis Wochenbasis
Monatsbasis Jahresbasis      Datenbasis: Original-Daten
Darstellen als:
Statistik (Auto) Statistik J:M      Darstellung:
Zur Graphik,    zurück zur Übersicht aller Sensoren.
 
Tabellarische Datenbersicht: ?
 
Sensor: Nr:Datum:Temp:Feuchte:Taupunkt:
Aussen-T/F 1 28-02-2019 00:00:00 4.5 C 84 % 2.04 C
2 28-02-2019 00:05:00 4.6 C 85 % 2.3 C
3 28-02-2019 00:10:00 4.7 C 85 % 2.4 C
4 28-02-2019 00:15:00 4.8 C 85 % 2.5 C
5 28-02-2019 00:20:00 5.1 C 85 % 2.79 C
6 28-02-2019 00:25:00 5.4 C 84 % 2.92 C
7 28-02-2019 00:30:00 5.6 C 83 % 2.95 C
8 28-02-2019 00:35:00 5.7 C 82 % 2.87 C
9 28-02-2019 00:40:00 5.8 C 82 % 2.97 C
10 28-02-2019 00:45:00 5.9 C 81 % 2.9 C
11 28-02-2019 00:50:00 6 C 80 % 2.82 C
12 28-02-2019 00:55:00 6.1 C 80 % 2.92 C
13 28-02-2019 01:00:00 6.1 C 80 % 2.92 C
14 28-02-2019 01:05:00 5.9 C 79 % 2.54 C
15 28-02-2019 01:10:00 5.8 C 79 % 2.45 C
16 28-02-2019 01:15:00 5.4 C 79 % 2.06 C
17 28-02-2019 01:20:00 5.2 C 81 % 2.21 C
18 28-02-2019 01:25:00 5 C 81 % 2.02 C
19 28-02-2019 01:30:00 4.7 C 82 % 1.9 C
20 28-02-2019 01:35:00 4.5 C 83 % 1.87 C
21 28-02-2019 01:40:00 4.3 C 83 % 1.67 C
22 28-02-2019 01:45:00 4.1 C 84 % 1.65 C
23 28-02-2019 01:50:00 4.1 C 85 % 1.81 C
24 28-02-2019 01:55:00 4.1 C 86 % 1.97 C
25 28-02-2019 02:00:00 4.1 C 86 % 1.97 C
Sensor: Nr:Datum:Temp:Feuchte:Taupunkt:
Aussen-T/F 26 28-02-2019 02:05:00 4.1 C 86 % 1.97 C
27 28-02-2019 02:10:00 4.2 C 86 % 2.07 C
28 28-02-2019 02:15:00 4.1 C 85 % 1.81 C
29 28-02-2019 02:20:00 3.8 C 85 % 1.52 C
30 28-02-2019 02:25:00 3.6 C 86 % 1.48 C
31 28-02-2019 02:30:00 3.4 C 86 % 1.29 C
32 28-02-2019 02:35:00 3.3 C 87 % 1.35 C
33 28-02-2019 02:40:00 3.3 C 88 % 1.51 C
34 28-02-2019 02:45:00 3.4 C 89 % 1.76 C
35 28-02-2019 02:50:00 3.4 C 89 % 1.76 C
36 28-02-2019 02:55:00 3.4 C 88 % 1.61 C
37 28-02-2019 03:00:00 3.3 C 88 % 1.51 C
38 28-02-2019 03:05:00 3.1 C 87 % 1.15 C
39 28-02-2019 03:10:00 2.9 C 88 % 1.11 C
40 28-02-2019 03:15:00 2.9 C 89 % 1.27 C
41 28-02-2019 03:20:00 2.8 C 89 % 1.17 C
42 28-02-2019 03:25:00 2.8 C 90 % 1.33 C
43 28-02-2019 03:30:00 2.9 C 90 % 1.43 C
44 28-02-2019 03:35:00 3 C 90 % 1.52 C
45 28-02-2019 03:40:00 3.1 C 90 % 1.62 C
46 28-02-2019 03:45:00 3 C 89 % 1.37 C
47 28-02-2019 03:50:00 2.8 C 89 % 1.17 C
48 28-02-2019 03:55:00 2.7 C 89 % 1.07 C
49 28-02-2019 04:00:00 2.6 C 89 % 0.97 C
50 28-02-2019 04:05:00 2.4 C 89 % 0.78 C
Sensor: Nr:Datum:Temp:Feuchte:Taupunkt:
Aussen-T/F 51 28-02-2019 04:10:00 2.2 C 88 % 0.42 C
52 28-02-2019 04:15:00 2 C 89 % 0.38 C
53 28-02-2019 04:20:00 1.9 C 90 % 0.44 C
54 28-02-2019 04:25:00 2.1 C 91 % 0.79 C
55 28-02-2019 04:30:00 2.3 C 92 % 1.14 C
56 28-02-2019 04:35:00 2.3 C 91 % 0.99 C
57 28-02-2019 04:40:00 2.3 C 91 % 0.99 C
58 28-02-2019 04:45:00 2.3 C 91 % 0.99 C
59 28-02-2019 04:50:00 2.4 C 92 % 1.24 C
60 28-02-2019 04:55:00 2.5 C 91 % 1.18 C
61 28-02-2019 05:00:00 2.6 C 91 % 1.28 C
62 28-02-2019 05:05:00 2.5 C 91 % 1.18 C
63 28-02-2019 05:10:00 2.5 C 91 % 1.18 C
64 28-02-2019 05:15:00 2.4 C 90 % 0.93 C
65 28-02-2019 05:20:00 2.3 C 91 % 0.99 C
66 28-02-2019 05:25:00 2.3 C 91 % 0.99 C
67 28-02-2019 05:30:00 2.3 C 91 % 0.99 C
68 28-02-2019 05:35:00 2.3 C 91 % 0.99 C
69 28-02-2019 05:40:00 2.3 C 91 % 0.99 C
70 28-02-2019 05:45:00 2.3 C 91 % 0.99 C
71 28-02-2019 05:50:00 2.2 C 91 % 0.89 C
72 28-02-2019 05:55:00 2.3 C 92 % 1.14 C
73 28-02-2019 06:00:00 2.5 C 92 % 1.34 C
74 28-02-2019 06:05:00 2.7 C 92 % 1.53 C
75 28-02-2019 06:10:00 2.7 C 92 % 1.53 C
Sensor: Nr:Datum:Temp:Feuchte:Taupunkt:
Aussen-T/F 76 28-02-2019 06:15:00 2.7 C 91 % 1.38 C
77 28-02-2019 06:20:00 2.6 C 91 % 1.28 C
78 28-02-2019 06:25:00 2.7 C 91 % 1.38 C
79 28-02-2019 06:30:00 2.9 C 92 % 1.73 C
80 28-02-2019 06:35:00 3.4 C 92 % 2.23 C
81 28-02-2019 06:40:00 3.8 C 90 % 2.31 C
82 28-02-2019 06:45:00 4.2 C 88 % 2.39 C
83 28-02-2019 06:50:00 4.2 C 87 % 2.23 C
84 28-02-2019 06:55:00 4.2 C 87 % 2.23 C
85 28-02-2019 07:00:00 4.2 C 87 % 2.23 C
86 28-02-2019 07:05:00 4.2 C 86 % 2.07 C
87 28-02-2019 07:10:00 4.1 C 86 % 1.97 C
88 28-02-2019 07:15:00 3.9 C 86 % 1.78 C
89 28-02-2019 07:20:00 3.9 C 87 % 1.94 C
90 28-02-2019 07:25:00 3.8 C 87 % 1.84 C
91 28-02-2019 07:30:00 3.8 C 87 % 1.84 C
92 28-02-2019 07:35:00 3.7 C 87 % 1.74 C
93 28-02-2019 07:40:00 3.6 C 88 % 1.8 C
94 28-02-2019 07:45:00 3.4 C 87 % 1.45 C
95 28-02-2019 07:50:00 3.3 C 87 % 1.35 C
96 28-02-2019 07:55:00 3.1 C 87 % 1.15 C
97 28-02-2019 08:00:00 2.9 C 88 % 1.11 C
98 28-02-2019 08:05:00 2.7 C 88 % 0.92 C
99 28-02-2019 08:10:00 2.7 C 88 % 0.92 C
100 28-02-2019 08:15:00 2.6 C 89 % 0.97 C
Sensor: Nr:Datum:Temp:Feuchte:Taupunkt:
Aussen-T/F 101 28-02-2019 08:20:00 2.7 C 90 % 1.23 C
102 28-02-2019 08:25:00 2.8 C 90 % 1.33 C
103 28-02-2019 08:30:00 2.9 C 91 % 1.58 C
104 28-02-2019 08:35:00 3.1 C 91 % 1.78 C
105 28-02-2019 08:40:00 3.3 C 91 % 1.98 C
106 28-02-2019 08:45:00 3.6 C 92 % 2.42 C
107 28-02-2019 08:50:00 3.7 C 91 % 2.37 C
108 28-02-2019 08:55:00 3.9 C 91 % 2.57 C
109 28-02-2019 09:00:00 4.1 C 91 % 2.77 C
110 28-02-2019 09:05:00 4.2 C 90 % 2.71 C
111 28-02-2019 09:10:00 4.3 C 90 % 2.81 C
112 28-02-2019 09:15:00 4.4 C 89 % 2.75 C
113 28-02-2019 09:20:00 4.5 C 89 % 2.85 C
114 28-02-2019 09:25:00 4.6 C 89 % 2.95 C
115 28-02-2019 09:30:00 4.7 C 89 % 3.05 C
116 28-02-2019 09:35:00 4.8 C 88 % 2.99 C
117 28-02-2019 09:40:00 4.9 C 88 % 3.08 C
118 28-02-2019 09:45:00 5.1 C 88 % 3.28 C
119 28-02-2019 09:50:00 5.2 C 88 % 3.38 C
120 28-02-2019 09:55:00 5.4 C 89 % 3.74 C
121 28-02-2019 10:00:00 5.6 C 89 % 3.93 C
122 28-02-2019 10:05:00 5.8 C 89 % 4.13 C
123 28-02-2019 10:10:00 6.3 C 88 % 4.46 C
124 28-02-2019 10:15:00 6.7 C 88 % 4.86 C
125 28-02-2019 10:20:00 7.1 C 86 % 4.92 C
Sensor: Nr:Datum:Temp:Feuchte:Taupunkt:
Aussen-T/F 126 28-02-2019 10:25:00 7.5 C 85 % 5.15 C
127 28-02-2019 10:30:00 7.9 C 84 % 5.37 C
128 28-02-2019 10:35:00 8.4 C 83 % 5.69 C
129 28-02-2019 10:40:00 8.7 C 82 % 5.8 C
130 28-02-2019 10:45:00 9 C 81 % 5.92 C
131 28-02-2019 10:50:00 9.3 C 80 % 6.03 C
132 28-02-2019 10:55:00 9.6 C 79 % 6.14 C
133 28-02-2019 11:00:00 9.9 C 78 % 6.25 C
134 28-02-2019 11:05:00 10.2 C 77 % 6.35 C
135 28-02-2019 11:10:00 10.6 C 76 % 6.55 C
136 28-02-2019 11:15:00 10.9 C 75 % 6.65 C
137 28-02-2019 11:20:00 11.3 C 73 % 6.64 C
138 28-02-2019 11:25:00 11.7 C 72 % 6.83 C
139 28-02-2019 11:30:00 11.9 C 71 % 6.82 C
140 28-02-2019 11:35:00 12.2 C 70 % 6.9 C
141 28-02-2019 11:40:00 12.4 C 69 % 6.88 C
142 28-02-2019 11:45:00 12.5 C 69 % 6.97 C
143 28-02-2019 11:50:00 12.6 C 69 % 7.07 C
144 28-02-2019 11:55:00 12.6 C 69 % 7.07 C
145 28-02-2019 12:00:00 12.7 C 68 % 6.95 C
146 28-02-2019 12:05:00 12.8 C 69 % 7.26 C
147 28-02-2019 12:10:00 12.8 C 68 % 7.05 C
148 28-02-2019 12:15:00 12.9 C 68 % 7.14 C
149 28-02-2019 12:20:00 13 C 68 % 7.24 C
150 28-02-2019 12:25:00 13.1 C 67 % 7.12 C
Sensor: Nr:Datum:Temp:Feuchte:Taupunkt:
Aussen-T/F 151 28-02-2019 12:30:00 13.2 C 67 % 7.21 C
152 28-02-2019 12:35:00 13.4 C 68 % 7.62 C
153 28-02-2019 12:40:00 13.7 C 66 % 7.47 C
154 28-02-2019 12:45:00 13.8 C 66 % 7.57 C
155 28-02-2019 12:50:00 13.9 C 66 % 7.66 C
156 28-02-2019 12:55:00 13.9 C 66 % 7.66 C
157 28-02-2019 13:00:00 14.1 C 66 % 7.85 C
158 28-02-2019 13:05:00 14.2 C 65 % 7.72 C
159 28-02-2019 13:10:00 14.3 C 66 % 8.04 C
160 28-02-2019 13:15:00 14.5 C 64 % 7.78 C
161 28-02-2019 13:20:00 14.7 C 65 % 8.2 C
162 28-02-2019 13:25:00 14.9 C 63 % 7.93 C
163 28-02-2019 13:30:00 15.1 C 64 % 8.35 C
164 28-02-2019 13:35:00 15.2 C 63 % 8.21 C
165 28-02-2019 13:40:00 15.4 C 62 % 8.16 C
166 28-02-2019 13:45:00 15.6 C 62 % 8.35 C
167 28-02-2019 13:50:00 15.7 C 61 % 8.21 C
168 28-02-2019 13:55:00 15.8 C 61 % 8.3 C
169 28-02-2019 14:00:00 16 C 62 % 8.73 C
170 28-02-2019 14:05:00 16.2 C 61 % 8.68 C
171 28-02-2019 14:10:00 16.3 C 61 % 8.77 C
172 28-02-2019 14:15:00 16.4 C 61 % 8.87 C
173 28-02-2019 14:20:00 16.4 C 61 % 8.87 C
174 28-02-2019 14:25:00 16.5 C 61 % 8.96 C
175 28-02-2019 14:30:00 16.6 C 61 % 9.06 C
Sensor: Nr:Datum:Temp:Feuchte:Taupunkt:
Aussen-T/F 176 28-02-2019 14:35:00 16.7 C 61 % 9.15 C
177 28-02-2019 14:40:00 16.8 C 61 % 9.24 C
178 28-02-2019 14:45:00 17.1 C 60 % 9.28 C
179 28-02-2019 14:50:00 17.2 C 60 % 9.37 C
180 28-02-2019 14:55:00 17.2 C 60 % 9.37 C
181 28-02-2019 15:00:00 17.2 C 60 % 9.37 C
182 28-02-2019 15:05:00 17.1 C 60 % 9.28 C
183 28-02-2019 15:10:00 17 C 62 % 9.67 C
184 28-02-2019 15:15:00 17 C 61 % 9.43 C
185 28-02-2019 15:20:00 16.9 C 61 % 9.34 C
186 28-02-2019 15:25:00 16.8 C 62 % 9.49 C
187 28-02-2019 15:30:00 16.8 C 62 % 9.49 C
188 28-02-2019 15:35:00 16.7 C 62 % 9.39 C
189 28-02-2019 15:40:00 16.7 C 60 % 8.9 C
190 28-02-2019 15:45:00 16.5 C 60 % 8.72 C
191 28-02-2019 15:50:00 16.3 C 61 % 8.77 C
192 28-02-2019 15:55:00 16.2 C 61 % 8.68 C
193 28-02-2019 16:00:00 16.2 C 62 % 8.92 C
194 28-02-2019 16:05:00 16.2 C 64 % 9.39 C
195 28-02-2019 16:10:00 16.1 C 65 % 9.53 C
196 28-02-2019 16:15:00 16 C 66 % 9.66 C
197 28-02-2019 16:20:00 15.9 C 66 % 9.56 C
198 28-02-2019 16:25:00 15.7 C 66 % 9.37 C
199 28-02-2019 16:30:00 15.5 C 67 % 9.41 C
200 28-02-2019 16:35:00 15.3 C 63 % 8.31 C
Sensor: Nr:Datum:Temp:Feuchte:Taupunkt:
Aussen-T/F 201 28-02-2019 16:40:00 14.7 C 60 % 7.03 C
202 28-02-2019 16:45:00 14 C 61 % 6.61 C
203 28-02-2019 16:50:00 13.6 C 63 % 6.7 C
204 28-02-2019 16:55:00 13.3 C 64 % 6.64 C
205 28-02-2019 17:00:00 13.1 C 64 % 6.45 C
206 28-02-2019 17:05:00 13 C 65 % 6.58 C
207 28-02-2019 17:10:00 12.9 C 66 % 6.71 C
208 28-02-2019 17:15:00 12.9 C 67 % 6.93 C
209 28-02-2019 17:20:00 12.8 C 67 % 6.83 C
210 28-02-2019 17:25:00 12.8 C 68 % 7.05 C
211 28-02-2019 17:30:00 12.7 C 69 % 7.17 C
212 28-02-2019 17:35:00 12.6 C 69 % 7.07 C
213 28-02-2019 17:40:00 12.6 C 69 % 7.07 C
214 28-02-2019 17:45:00 12.5 C 69 % 6.97 C
215 28-02-2019 17:50:00 12.5 C 70 % 7.18 C
216 28-02-2019 17:55:00 12.4 C 70 % 7.09 C
217 28-02-2019 18:00:00 12.4 C 70 % 7.09 C
218 28-02-2019 18:05:00 12.4 C 70 % 7.09 C
219 28-02-2019 18:10:00 12.3 C 71 % 7.2 C
220 28-02-2019 18:15:00 12.3 C 71 % 7.2 C
221 28-02-2019 18:20:00 12.2 C 71 % 7.1 C
222 28-02-2019 18:25:00 12.2 C 71 % 7.1 C
223 28-02-2019 18:30:00 12.1 C 71 % 7.01 C
224 28-02-2019 18:35:00 12.1 C 72 % 7.21 C
225 28-02-2019 18:40:00 12 C 72 % 7.12 C
Sensor: Nr:Datum:Temp:Feuchte:Taupunkt:
Aussen-T/F 226 28-02-2019 18:45:00 11.9 C 73 % 7.22 C
227 28-02-2019 18:50:00 11.9 C 73 % 7.22 C
228 28-02-2019 18:55:00 11.8 C 73 % 7.12 C
229 28-02-2019 19:00:00 11.8 C 74 % 7.32 C
230 28-02-2019 19:05:00 11.7 C 74 % 7.23 C
231 28-02-2019 19:10:00 11.6 C 74 % 7.13 C
232 28-02-2019 19:15:00 11.4 C 75 % 7.13 C
233 28-02-2019 19:20:00 11.3 C 75 % 7.04 C
234 28-02-2019 19:25:00 11.2 C 75 % 6.94 C
235 28-02-2019 19:30:00 11.1 C 76 % 7.04 C
236 28-02-2019 19:35:00 11.1 C 76 % 7.04 C
237 28-02-2019 19:40:00 11 C 77 % 7.13 C
238 28-02-2019 19:45:00 11 C 77 % 7.13 C
239 28-02-2019 19:50:00 11 C 77 % 7.13 C
240 28-02-2019 19:55:00 11 C 78 % 7.32 C
241 28-02-2019 20:00:00 11 C 78 % 7.32 C
242 28-02-2019 20:05:00 11.1 C 78 % 7.41 C
243 28-02-2019 20:10:00 11.1 C 78 % 7.41 C
244 28-02-2019 20:15:00 11.1 C 78 % 7.41 C
245 28-02-2019 20:20:00 11.1 C 78 % 7.41 C
246 28-02-2019 20:25:00 11.1 C 79 % 7.6 C
247 28-02-2019 20:30:00 11.1 C 79 % 7.6 C
248 28-02-2019 20:35:00 11.1 C 79 % 7.6 C
249 28-02-2019 20:40:00 11.1 C 79 % 7.6 C
250 28-02-2019 20:45:00 11.1 C 79 % 7.6 C
Sensor: Nr:Datum:Temp:Feuchte:Taupunkt:
Aussen-T/F 251 28-02-2019 20:50:00 11.1 C 79 % 7.6 C
252 28-02-2019 20:55:00 11.1 C 79 % 7.6 C
253 28-02-2019 21:00:00 11.1 C 80 % 7.79 C
254 28-02-2019 21:05:00 11.1 C 80 % 7.79 C
255 28-02-2019 21:10:00 11.1 C 81 % 7.97 C
256 28-02-2019 21:15:00 11 C 81 % 7.87 C
257 28-02-2019 21:20:00 10.9 C 81 % 7.77 C
258 28-02-2019 21:25:00 10.9 C 81 % 7.77 C
259 28-02-2019 21:30:00 10.9 C 81 % 7.77 C
260 28-02-2019 21:35:00 10.9 C 81 % 7.77 C
261 28-02-2019 21:40:00 10.9 C 81 % 7.77 C
262 28-02-2019 21:45:00 10.9 C 81 % 7.77 C
263 28-02-2019 21:50:00 11 C 81 % 7.87 C
264 28-02-2019 21:55:00 11 C 80 % 7.69 C
265 28-02-2019 22:00:00 10.9 C 80 % 7.59 C
266 28-02-2019 22:05:00 10.9 C 81 % 7.77 C
267 28-02-2019 22:10:00 10.9 C 81 % 7.77 C
268 28-02-2019 22:15:00 10.9 C 81 % 7.77 C
269 28-02-2019 22:20:00 10.9 C 82 % 7.95 C
270 28-02-2019 22:25:00 10.9 C 82 % 7.95 C
271 28-02-2019 22:30:00 10.8 C 82 % 7.85 C
272 28-02-2019 22:35:00 10.8 C 82 % 7.85 C
273 28-02-2019 22:40:00 10.8 C 82 % 7.85 C
274 28-02-2019 22:45:00 10.8 C 82 % 7.85 C
275 28-02-2019 22:50:00 10.8 C 83 % 8.03 C
Sensor: Nr:Datum:Temp:Feuchte:Taupunkt:
Aussen-T/F 276 28-02-2019 22:55:00 10.7 C 83 % 7.93 C
277 28-02-2019 23:00:00 10.7 C 83 % 7.93 C
278 28-02-2019 23:05:00 10.7 C 83 % 7.93 C
279 28-02-2019 23:10:00 10.7 C 84 % 8.11 C
280 28-02-2019 23:15:00 10.6 C 85 % 8.19 C
281 28-02-2019 23:20:00 10.6 C 85 % 8.19 C
282 28-02-2019 23:25:00 10.4 C 86 % 8.16 C
283 28-02-2019 23:30:00 10.3 C 87 % 8.23 C
284 28-02-2019 23:35:00 10.2 C 88 % 8.3 C
285 28-02-2019 23:40:00 9.9 C 89 % 8.17 C
286 28-02-2019 23:45:00 9.8 C 89 % 8.08 C
287 28-02-2019 23:50:00 9.7 C 90 % 8.14 C
288 28-02-2019 23:55:00 9.6 C 90 % 8.04 C
289 01-03-2019 00:00:00 9.5 C 91 % 8.11 C
290 01-03-2019 00:05:00 9.4 C 91 % 8.01 C
291 01-03-2019 00:10:00 9.3 C 92 % 8.07 C
292 01-03-2019 00:15:00 9.3 C 92 % 8.07 C
293 01-03-2019 00:20:00 9.2 C 92 % 7.97 C
294 01-03-2019 00:25:00 9.1 C 92 % 7.87 C
295 01-03-2019 00:30:00 9.1 C 92 % 7.87 C
296 01-03-2019 00:35:00 9 C 92 % 7.77 C
297 01-03-2019 00:40:00 8.9 C 92 % 7.67 C
298 01-03-2019 00:45:00 8.8 C 92 % 7.57 C
299 01-03-2019 00:50:00 8.7 C 92 % 7.47 C
300 01-03-2019 00:55:00 8.6 C 93 % 7.53 C
Sensor: Nr:Datum:Temp:Feuchte:Taupunkt:
Aussen-T/F 301 01-03-2019 01:00:00 8.6 C 93 % 7.53 C
302 01-03-2019 01:05:00 8.7 C 93 % 7.63 C
303 01-03-2019 01:10:00 8.8 C 94 % 7.89 C
304 01-03-2019 01:15:00 8.8 C 94 % 7.89 C
305 01-03-2019 01:20:00 8.8 C 94 % 7.89 C
306 01-03-2019 01:25:00 8.7 C 94 % 7.79 C
307 01-03-2019 01:30:00 8.7 C 94 % 7.79 C
308 01-03-2019 01:35:00 8.7 C 94 % 7.79 C
309 01-03-2019 01:40:00 8.6 C 93 % 7.53 C
310 01-03-2019 01:45:00 8.6 C 94 % 7.69 C
311 01-03-2019 01:50:00 8.6 C 94 % 7.69 C
312 01-03-2019 01:55:00 8.6 C 94 % 7.69 C
313 01-03-2019 02:00:00 8.6 C 94 % 7.69 C
314 01-03-2019 02:05:00 8.6 C 94 % 7.69 C
315 01-03-2019 02:10:00 8.7 C 94 % 7.79 C
316 01-03-2019 02:15:00 8.7 C 94 % 7.79 C
317 01-03-2019 02:20:00 8.7 C 93 % 7.63 C
318 01-03-2019 02:25:00 8.7 C 93 % 7.63 C
319 01-03-2019 02:30:00 8.8 C 93 % 7.73 C
320 01-03-2019 02:35:00 8.7 C 93 % 7.63 C
321 01-03-2019 02:40:00 8.7 C 93 % 7.63 C
322 01-03-2019 02:45:00 8.7 C 93 % 7.63 C
323 01-03-2019 02:50:00 8.7 C 93 % 7.63 C
324 01-03-2019 02:55:00 8.7 C 93 % 7.63 C
325 01-03-2019 03:00:00 8.7 C 92 % 7.47 C
Sensor: Nr:Datum:Temp:Feuchte:Taupunkt:
Aussen-T/F 326 01-03-2019 03:05:00 8.8 C 92 % 7.57 C
327 01-03-2019 03:10:00 8.7 C 92 % 7.47 C
328 01-03-2019 03:15:00 8.7 C 92 % 7.47 C
329 01-03-2019 03:20:00 8.8 C 92 % 7.57 C
330 01-03-2019 03:25:00 8.8 C 92 % 7.57 C
331 01-03-2019 03:30:00 8.8 C 91 % 7.41 C
332 01-03-2019 03:35:00 8.9 C 91 % 7.51 C
333 01-03-2019 03:40:00 8.9 C 91 % 7.51 C
334 01-03-2019 03:45:00 8.9 C 91 % 7.51 C
335 01-03-2019 03:50:00 8.8 C 91 % 7.41 C
336 01-03-2019 03:55:00 8.8 C 91 % 7.41 C
337 01-03-2019 04:00:00 8.8 C 91 % 7.41 C
338 01-03-2019 04:05:00 8.8 C 91 % 7.41 C
339 01-03-2019 04:10:00 8.8 C 91 % 7.41 C
340 01-03-2019 04:15:00 8.8 C 91 % 7.41 C
341 01-03-2019 04:20:00 8.8 C 91 % 7.41 C
342 01-03-2019 04:25:00 8.8 C 91 % 7.41 C
343 01-03-2019 04:30:00 8.8 C 91 % 7.41 C
344 01-03-2019 04:35:00 8.7 C 91 % 7.32 C
345 01-03-2019 04:40:00 8.7 C 91 % 7.32 C
346 01-03-2019 04:45:00 8.7 C 91 % 7.32 C
347 01-03-2019 04:50:00 8.7 C 91 % 7.32 C
348 01-03-2019 04:55:00 8.7 C 91 % 7.32 C
349 01-03-2019 05:00:00 8.7 C 91 % 7.32 C
350 01-03-2019 05:05:00 8.7 C 91 % 7.32 C
Sensor: Nr:Datum:Temp:Feuchte:Taupunkt:
Aussen-T/F 351 01-03-2019 05:10:00 8.7 C 91 % 7.32 C
352 01-03-2019 05:15:00 8.7 C 91 % 7.32 C
353 01-03-2019 05:20:00 8.7 C 91 % 7.32 C
354 01-03-2019 05:25:00 8.7 C 92 % 7.47 C
355 01-03-2019 05:30:00 8.7 C 92 % 7.47 C
356 01-03-2019 05:35:00 8.6 C 92 % 7.38 C
357 01-03-2019 05:40:00 8.6 C 92 % 7.38 C
358 01-03-2019 05:45:00 8.5 C 92 % 7.28 C
359 01-03-2019 05:50:00 8.5 C 93 % 7.43 C
360 01-03-2019 05:55:00 8.5 C 93 % 7.43 C
361 01-03-2019 06:00:00 8.4 C 93 % 7.34 C
362 01-03-2019 06:05:00 8.4 C 93 % 7.34 C
363 01-03-2019 06:10:00 8.4 C 93 % 7.34 C
364 01-03-2019 06:15:00 8.3 C 94 % 7.39 C
365 01-03-2019 06:20:00 8.3 C 93 % 7.24 C
366 01-03-2019 06:25:00 8.2 C 93 % 7.14 C
367 01-03-2019 06:30:00 8.2 C 94 % 7.29 C
368 01-03-2019 06:35:00 8.1 C 94 % 7.19 C
369 01-03-2019 06:40:00 8.1 C 94 % 7.19 C
370 01-03-2019 06:45:00 8.1 C 94 % 7.19 C
371 01-03-2019 06:50:00 8 C 94 % 7.09 C
372 01-03-2019 06:55:00 8 C 94 % 7.09 C
373 01-03-2019 07:00:00 8 C 94 % 7.09 C
374 01-03-2019 07:05:00 8.1 C 95 % 7.35 C
375 01-03-2019 07:10:00 8.1 C 95 % 7.35 C
Sensor: Nr:Datum:Temp:Feuchte:Taupunkt:
Aussen-T/F 376 01-03-2019 07:15:00 8.2 C 95 % 7.45 C
377 01-03-2019 07:20:00 8.2 C 95 % 7.45 C
378 01-03-2019 07:25:00 8.2 C 95 % 7.45 C
379 01-03-2019 07:30:00 8.3 C 95 % 7.55 C
380 01-03-2019 07:35:00 8.3 C 95 % 7.55 C
381 01-03-2019 07:40:00 8.3 C 95 % 7.55 C
382 01-03-2019 07:45:00 8.3 C 95 % 7.55 C
383 01-03-2019 07:50:00 8.3 C 95 % 7.55 C
384 01-03-2019 07:55:00 8.3 C 95 % 7.55 C
385 01-03-2019 08:00:00 8.3 C 95 % 7.55 C
386 01-03-2019 08:05:00 8.3 C 95 % 7.55 C
387 01-03-2019 08:10:00 8.4 C 95 % 7.65 C
388 01-03-2019 08:15:00 8.4 C 95 % 7.65 C
389 01-03-2019 08:20:00 8.5 C 95 % 7.75 C
390 01-03-2019 08:25:00 8.6 C 95 % 7.85 C
391 01-03-2019 08:30:00 8.6 C 95 % 7.85 C
392 01-03-2019 08:35:00 8.6 C 95 % 7.85 C
393 01-03-2019 08:40:00 8.6 C 95 % 7.85 C
394 01-03-2019 08:45:00 8.7 C 95 % 7.94 C
395 01-03-2019 08:50:00 8.7 C 95 % 7.94 C
396 01-03-2019 08:55:00 8.7 C 95 % 7.94 C
397 01-03-2019 09:00:00 8.7 C 95 % 7.94 C
398 01-03-2019 09:05:00 8.7 C 95 % 7.94 C
399 01-03-2019 09:10:00 8.7 C 95 % 7.94 C
400 01-03-2019 09:15:00 8.7 C 95 % 7.94 C
Sensor: Nr:Datum:Temp:Feuchte:Taupunkt:
Aussen-T/F 401 01-03-2019 09:20:00 8.7 C 95 % 7.94 C
402 01-03-2019 09:25:00 8.7 C 95 % 7.94 C
403 01-03-2019 09:30:00 8.7 C 95 % 7.94 C
404 01-03-2019 09:35:00 8.7 C 95 % 7.94 C
405 01-03-2019 09:40:00 8.7 C 95 % 7.94 C
406 01-03-2019 09:45:00 8.7 C 95 % 7.94 C
407 01-03-2019 09:50:00 8.6 C 95 % 7.85 C
408 01-03-2019 09:55:00 8.6 C 95 % 7.85 C
409 01-03-2019 10:00:00 8.6 C 95 % 7.85 C
410 01-03-2019 10:05:00 8.6 C 96 % 8 C
411 01-03-2019 10:10:00 8.6 C 96 % 8 C
412 01-03-2019 10:15:00 8.6 C 96 % 8 C
413 01-03-2019 10:20:00 8.6 C 96 % 8 C
414 01-03-2019 10:25:00 8.6 C 96 % 8 C
415 01-03-2019 10:30:00 8.6 C 96 % 8 C
416 01-03-2019 10:35:00 8.7 C 96 % 8.1 C
417 01-03-2019 10:40:00 8.7 C 96 % 8.1 C
418 01-03-2019 10:45:00 8.8 C 96 % 8.2 C
419 01-03-2019 10:50:00 8.8 C 96 % 8.2 C
420 01-03-2019 10:55:00 8.8 C 96 % 8.2 C
421 01-03-2019 11:00:00 8.8 C 96 % 8.2 C
422 01-03-2019 11:05:00 8.7 C 95 % 7.94 C
423 01-03-2019 11:10:00 8.7 C 95 % 7.94 C
424 01-03-2019 11:15:00 8.7 C 95 % 7.94 C
425 01-03-2019 11:20:00 8.7 C 95 % 7.94 C
Sensor: Nr:Datum:Temp:Feuchte:Taupunkt:
Aussen-T/F 426 01-03-2019 11:25:00 8.7 C 95 % 7.94 C
427 01-03-2019 11:30:00 8.6 C 95 % 7.85 C
428 01-03-2019 11:35:00 8.7 C 95 % 7.94 C
429 01-03-2019 11:40:00 8.7 C 95 % 7.94 C
430 01-03-2019 11:45:00 8.8 C 95 % 8.04 C
431 01-03-2019 11:50:00 8.9 C 95 % 8.14 C
432 01-03-2019 11:55:00 9.1 C 95 % 8.34 C
433 01-03-2019 12:00:00 9.1 C 94 % 8.19 C
434 01-03-2019 12:05:00 9.1 C 94 % 8.19 C
435 01-03-2019 12:10:00 9.1 C 93 % 8.03 C
436 01-03-2019 12:15:00 9.1 C 92 % 7.87 C
437 01-03-2019 12:20:00 9.1 C 92 % 7.87 C
438 01-03-2019 12:25:00 9.1 C 91 % 7.71 C
439 01-03-2019 12:30:00 9 C 91 % 7.61 C
440 01-03-2019 12:35:00 9.1 C 90 % 7.55 C
441 01-03-2019 12:40:00 9 C 90 % 7.45 C
442 01-03-2019 12:45:00 8.9 C 90 % 7.35 C
443 01-03-2019 12:50:00 8.8 C 90 % 7.25 C
444 01-03-2019 12:55:00 8.8 C 90 % 7.25 C
445 01-03-2019 13:00:00 8.7 C 91 % 7.32 C
446 01-03-2019 13:05:00 8.7 C 91 % 7.32 C
447 01-03-2019 13:10:00 8.7 C 91 % 7.32 C
448 01-03-2019 13:15:00 8.6 C 91 % 7.22 C
449 01-03-2019 13:20:00 8.5 C 91 % 7.12 C
450 01-03-2019 13:25:00 8.4 C 91 % 7.02 C
Sensor: Nr:Datum:Temp:Feuchte:Taupunkt:
Aussen-T/F 451 01-03-2019 13:30:00 8.4 C 92 % 7.18 C
452 01-03-2019 13:35:00 8.4 C 92 % 7.18 C
453 01-03-2019 13:40:00 8.3 C 92 % 7.08 C
454 01-03-2019 13:45:00 8.4 C 92 % 7.18 C
455 01-03-2019 13:50:00 8.4 C 92 % 7.18 C
456 01-03-2019 13:55:00 8.4 C 92 % 7.18 C
457 01-03-2019 14:00:00 8.4 C 92 % 7.18 C
458 01-03-2019 14:05:00 8.4 C 92 % 7.18 C
459 01-03-2019 14:10:00 8.4 C 92 % 7.18 C
460 01-03-2019 14:15:00 8.3 C 91 % 6.92 C
461 01-03-2019 14:20:00 8.4 C 91 % 7.02 C
462 01-03-2019 14:25:00 8.4 C 91 % 7.02 C
463 01-03-2019 14:30:00 8.3 C 90 % 6.76 C
464 01-03-2019 14:35:00 8.4 C 90 % 6.86 C
465 01-03-2019 14:40:00 8.4 C 89 % 6.7 C
466 01-03-2019 14:45:00 8.4 C 89 % 6.7 C
467 01-03-2019 14:50:00 8.4 C 89 % 6.7 C
468 01-03-2019 14:55:00 8.4 C 89 % 6.7 C
469 01-03-2019 15:00:00 8.4 C 89 % 6.7 C
470 01-03-2019 15:05:00 8.4 C 89 % 6.7 C
471 01-03-2019 15:10:00 8.4 C 90 % 6.86 C
472 01-03-2019 15:15:00 8.3 C 89 % 6.6 C
473 01-03-2019 15:20:00 8.3 C 89 % 6.6 C
474 01-03-2019 15:25:00 8.3 C 90 % 6.76 C
475 01-03-2019 15:30:00 8.3 C 90 % 6.76 C
Sensor: Nr:Datum:Temp:Feuchte:Taupunkt:
Aussen-T/F 476 01-03-2019 15:35:00 8.3 C 90 % 6.76 C
477 01-03-2019 15:40:00 8.3 C 90 % 6.76 C
478 01-03-2019 15:45:00 8.3 C 90 % 6.76 C
479 01-03-2019 15:50:00 8.3 C 90 % 6.76 C
480 01-03-2019 15:55:00 8.3 C 90 % 6.76 C
481 01-03-2019 16:00:00 8.3 C 90 % 6.76 C
482 01-03-2019 16:05:00 8.4 C 90 % 6.86 C
483 01-03-2019 16:10:00 8.4 C 90 % 6.86 C
484 01-03-2019 16:15:00 8.4 C 90 % 6.86 C
485 01-03-2019 16:20:00 8.4 C 90 % 6.86 C
486 01-03-2019 16:25:00 8.3 C 91 % 6.92 C
487 01-03-2019 16:30:00 8.3 C 91 % 6.92 C
488 01-03-2019 16:35:00 8.3 C 90 % 6.76 C
489 01-03-2019 16:40:00 8.3 C 91 % 6.92 C
490 01-03-2019 16:45:00 8.3 C 91 % 6.92 C
491 01-03-2019 16:50:00 8.4 C 91 % 7.02 C
492 01-03-2019 16:55:00 8.3 C 91 % 6.92 C
493 01-03-2019 17:00:00 8.3 C 91 % 6.92 C
494 01-03-2019 17:05:00 8.3 C 91 % 6.92 C
495 01-03-2019 17:10:00 8.3 C 91 % 6.92 C
496 01-03-2019 17:15:00 8.3 C 91 % 6.92 C
497 01-03-2019 17:20:00 8.3 C 91 % 6.92 C
498 01-03-2019 17:25:00 8.3 C 91 % 6.92 C
499 01-03-2019 17:30:00 8.2 C 91 % 6.82 C
500 01-03-2019 17:35:00 8.2 C 91 % 6.82 C
Sensor: Nr:Datum:Temp:Feuchte:Taupunkt:
Aussen-T/F 501 01-03-2019 17:40:00 8.3 C 91 % 6.92 C
502 01-03-2019 17:45:00 8.3 C 91 % 6.92 C
503 01-03-2019 17:50:00 8.3 C 91 % 6.92 C
504 01-03-2019 17:55:00 8.3 C 91 % 6.92 C
505 01-03-2019 18:00:00 8.2 C 90 % 6.66 C
506 01-03-2019 18:05:00 8 C 90 % 6.46 C
507 01-03-2019 18:10:00 7.8 C 90 % 6.27 C
508 01-03-2019 18:15:00 7.8 C 90 % 6.27 C
509 01-03-2019 18:20:00 7.7 C 89 % 6 C
510 01-03-2019 18:25:00 7.6 C 89 % 5.91 C
511 01-03-2019 18:30:00 7.6 C 89 % 5.91 C
512 01-03-2019 18:35:00 7.5 C 89 % 5.81 C
513 01-03-2019 18:40:00 7.4 C 89 % 5.71 C
514 01-03-2019 18:45:00 7.3 C 89 % 5.61 C
515 01-03-2019 18:50:00 7.3 C 89 % 5.61 C
516 01-03-2019 18:55:00 7.2 C 90 % 5.67 C
517 01-03-2019 19:00:00 7.2 C 90 % 5.67 C
518 01-03-2019 19:05:00 7.1 C 90 % 5.57 C
519 01-03-2019 19:10:00 7.1 C 89 % 5.41 C
520 01-03-2019 19:15:00 7 C 90 % 5.48 C
521 01-03-2019 19:20:00 6.9 C 90 % 5.38 C
522 01-03-2019 19:25:00 6.9 C 90 % 5.38 C
523 01-03-2019 19:30:00 6.8 C 90 % 5.28 C
524 01-03-2019 19:35:00 6.8 C 90 % 5.28 C
525 01-03-2019 19:40:00 6.8 C 90 % 5.28 C
Sensor: Nr:Datum:Temp:Feuchte:Taupunkt:
Aussen-T/F 526 01-03-2019 19:45:00 6.8 C 90 % 5.28 C
527 01-03-2019 19:50:00 6.7 C 90 % 5.18 C
528 01-03-2019 19:55:00 6.7 C 90 % 5.18 C
529 01-03-2019 20:00:00 6.7 C 91 % 5.34 C
530 01-03-2019 20:05:00 6.7 C 91 % 5.34 C
531 01-03-2019 20:10:00 6.7 C 91 % 5.34 C
532 01-03-2019 20:15:00 6.7 C 91 % 5.34 C
533 01-03-2019 20:20:00 6.6 C 91 % 5.24 C
534 01-03-2019 20:25:00 6.6 C 91 % 5.24 C
535 01-03-2019 20:30:00 6.6 C 91 % 5.24 C
536 01-03-2019 20:35:00 6.6 C 91 % 5.24 C
537 01-03-2019 20:40:00 6.6 C 91 % 5.24 C
538 01-03-2019 20:45:00 6.6 C 91 % 5.24 C
539 01-03-2019 20:50:00 6.6 C 91 % 5.24 C
540 01-03-2019 20:55:00 6.5 C 91 % 5.14 C
541 01-03-2019 21:00:00 6.5 C 91 % 5.14 C
542 01-03-2019 21:05:00 6.5 C 91 % 5.14 C
543 01-03-2019 21:10:00 6.4 C 91 % 5.04 C
544 01-03-2019 21:15:00 6.4 C 91 % 5.04 C
545 01-03-2019 21:20:00 6.4 C 91 % 5.04 C
546 01-03-2019 21:25:00 6.4 C 91 % 5.04 C
547 01-03-2019 21:30:00 6.5 C 90 % 4.98 C
548 01-03-2019 21:35:00 6.5 C 91 % 5.14 C
549 01-03-2019 21:40:00 6.5 C 91 % 5.14 C
550 01-03-2019 21:45:00 6.5 C 90 % 4.98 C
Sensor: Nr:Datum:Temp:Feuchte:Taupunkt:
Aussen-T/F 551 01-03-2019 21:50:00 6.4 C 90 % 4.88 C
552 01-03-2019 21:55:00 6.4 C 90 % 4.88 C
553 01-03-2019 22:00:00 6.4 C 90 % 4.88 C
554 01-03-2019 22:05:00 6.4 C 91 % 5.04 C
555 01-03-2019 22:10:00 6.3 C 91 % 4.94 C
556 01-03-2019 22:15:00 6.3 C 91 % 4.94 C
557 01-03-2019 22:20:00 6.3 C 91 % 4.94 C
558 01-03-2019 22:25:00 6.3 C 91 % 4.94 C
559 01-03-2019 22:30:00 6.3 C 91 % 4.94 C
560 01-03-2019 22:35:00 6.3 C 90 % 4.78 C
561 01-03-2019 22:40:00 6.4 C 90 % 4.88 C
562 01-03-2019 22:45:00 6.4 C 89 % 4.72 C
563 01-03-2019 22:50:00 6.5 C 89 % 4.82 C
564 01-03-2019 22:55:00 6.6 C 88 % 4.76 C
565 01-03-2019 23:00:00 6.6 C 88 % 4.76 C
566 01-03-2019 23:05:00 6.7 C 88 % 4.86 C
567 01-03-2019 23:10:00 6.7 C 88 % 4.86 C
568 01-03-2019 23:15:00 6.6 C 88 % 4.76 C
569 01-03-2019 23:20:00 6.6 C 88 % 4.76 C
570 01-03-2019 23:25:00 6.6 C 88 % 4.76 C
571 01-03-2019 23:30:00 6.6 C 88 % 4.76 C
572 01-03-2019 23:35:00 6.5 C 89 % 4.82 C
573 01-03-2019 23:40:00 6.4 C 89 % 4.72 C
574 01-03-2019 23:45:00 6.4 C 89 % 4.72 C
575 01-03-2019 23:50:00 6.4 C 90 % 4.88 C
Sensor: Nr:Datum:Temp:Feuchte:Taupunkt:
Aussen-T/F 576 01-03-2019 23:55:00 6.3 C 90 % 4.78 C
577 02-03-2019 00:00:00 6.3 C 90 % 4.78 C
578 02-03-2019 00:05:00 6.3 C 89 % 4.62 C
579 02-03-2019 00:10:00 6.2 C 90 % 4.69 C
580 02-03-2019 00:15:00 6.2 C 90 % 4.69 C
581 02-03-2019 00:20:00 6.2 C 90 % 4.69 C
582 02-03-2019 00:25:00 6.2 C 90 % 4.69 C
583 02-03-2019 00:30:00 6.2 C 90 % 4.69 C
584 02-03-2019 00:35:00 6.2 C 89 % 4.53 C
585 02-03-2019 00:40:00 6.2 C 88 % 4.36 C
586 02-03-2019 00:45:00 6.1 C 88 % 4.27 C
587 02-03-2019 00:50:00 6.1 C 88 % 4.27 C
588 02-03-2019 00:55:00 6.1 C 88 % 4.27 C
589 02-03-2019 01:00:00 6.1 C 88 % 4.27 C
590 02-03-2019 01:05:00 6 C 88 % 4.17 C
591 02-03-2019 01:10:00 5.9 C 88 % 4.07 C
592 02-03-2019 01:15:00 5.9 C 89 % 4.23 C
593 02-03-2019 01:20:00 5.9 C 89 % 4.23 C
594 02-03-2019 01:25:00 5.8 C 89 % 4.13 C
595 02-03-2019 01:30:00 5.8 C 89 % 4.13 C
596 02-03-2019 01:35:00 5.8 C 89 % 4.13 C
597 02-03-2019 01:40:00 5.8 C 90 % 4.29 C
598 02-03-2019 01:45:00 5.8 C 90 % 4.29 C
599 02-03-2019 01:50:00 5.7 C 90 % 4.19 C
600 02-03-2019 01:55:00 5.7 C 90 % 4.19 C
Sensor: Nr:Datum:Temp:Feuchte:Taupunkt:
Aussen-T/F 601 02-03-2019 02:00:00 5.7 C 90 % 4.19 C
602 02-03-2019 02:05:00 5.7 C 90 % 4.19 C
603 02-03-2019 02:10:00 5.7 C 91 % 4.35 C
604 02-03-2019 02:15:00 5.7 C 91 % 4.35 C
605 02-03-2019 02:20:00 5.7 C 91 % 4.35 C
606 02-03-2019 02:25:00 5.6 C 90 % 4.09 C
607 02-03-2019 02:30:00 5.6 C 91 % 4.25 C
608 02-03-2019 02:35:00 5.6 C 91 % 4.25 C
609 02-03-2019 02:40:00 5.6 C 91 % 4.25 C
610 02-03-2019 02:45:00 5.6 C 91 % 4.25 C
611 02-03-2019 02:50:00 5.6 C 91 % 4.25 C
612 02-03-2019 02:55:00 5.6 C 91 % 4.25 C
613 02-03-2019 03:00:00 5.6 C 91 % 4.25 C
614 02-03-2019 03:05:00 5.6 C 91 % 4.25 C
615 02-03-2019 03:10:00 5.6 C 91 % 4.25 C
616 02-03-2019 03:15:00 5.6 C 91 % 4.25 C
617 02-03-2019 03:20:00 5.6 C 91 % 4.25 C
618 02-03-2019 03:25:00 5.6 C 91 % 4.25 C
619 02-03-2019 03:30:00 5.7 C 91 % 4.35 C
620 02-03-2019 03:35:00 5.7 C 91 % 4.35 C
621 02-03-2019 03:40:00 5.7 C 90 % 4.19 C
622 02-03-2019 03:45:00 5.7 C 90 % 4.19 C
623 02-03-2019 03:50:00 5.7 C 90 % 4.19 C
624 02-03-2019 03:55:00 5.7 C 90 % 4.19 C
625 02-03-2019 04:00:00 5.7 C 90 % 4.19 C
Sensor: Nr:Datum:Temp:Feuchte:Taupunkt:
Aussen-T/F 626 02-03-2019 04:05:00 5.7 C 91 % 4.35 C
627 02-03-2019 04:10:00 5.7 C 91 % 4.35 C
628 02-03-2019 04:15:00 5.6 C 90 % 4.09 C
629 02-03-2019 04:20:00 5.6 C 91 % 4.25 C
630 02-03-2019 04:25:00 5.6 C 91 % 4.25 C
631 02-03-2019 04:30:00 5.7 C 91 % 4.35 C
632 02-03-2019 04:35:00 5.7 C 91 % 4.35 C
633 02-03-2019 04:40:00 5.7 C 91 % 4.35 C
634 02-03-2019 04:45:00 5.8 C 92 % 4.6 C
635 02-03-2019 04:50:00 5.8 C 91 % 4.45 C
636 02-03-2019 04:55:00 5.8 C 91 % 4.45 C
637 02-03-2019 05:00:00 5.8 C 91 % 4.45 C
638 02-03-2019 05:05:00 5.9 C 91 % 4.55 C
639 02-03-2019 05:10:00 5.9 C 91 % 4.55 C
640 02-03-2019 05:15:00 5.9 C 91 % 4.55 C
641 02-03-2019 05:20:00 6 C 91 % 4.65 C
642 02-03-2019 05:25:00 6.1 C 91 % 4.74 C
643 02-03-2019 05:30:00 6.2 C 91 % 4.84 C
644 02-03-2019 05:35:00 6.3 C 91 % 4.94 C
645 02-03-2019 05:40:00 6.3 C 91 % 4.94 C
646 02-03-2019 05:45:00 6.3 C 91 % 4.94 C
647 02-03-2019 05:50:00 6.3 C 91 % 4.94 C
648 02-03-2019 05:55:00 6.3 C 91 % 4.94 C
649 02-03-2019 06:00:00 6.3 C 91 % 4.94 C
650 02-03-2019 06:05:00 6.3 C 91 % 4.94 C
Sensor: Nr:Datum:Temp:Feuchte:Taupunkt:
Aussen-T/F 651 02-03-2019 06:10:00 6.3 C 91 % 4.94 C
652 02-03-2019 06:15:00 6.3 C 91 % 4.94 C
653 02-03-2019 06:20:00 6.3 C 91 % 4.94 C
654 02-03-2019 06:25:00 6.3 C 91 % 4.94 C
655 02-03-2019 06:30:00 6.3 C 91 % 4.94 C
656 02-03-2019 06:35:00 6.3 C 91 % 4.94 C
657 02-03-2019 06:40:00 6.3 C 91 % 4.94 C
658 02-03-2019 06:45:00 6.3 C 91 % 4.94 C
659 02-03-2019 06:50:00 6.3 C 91 % 4.94 C
660 02-03-2019 06:55:00 6.4 C 91 % 5.04 C
661 02-03-2019 07:00:00 6.4 C 91 % 5.04 C
662 02-03-2019 07:05:00 6.6 C 91 % 5.24 C
663 02-03-2019 07:10:00 6.6 C 91 % 5.24 C
664 02-03-2019 07:15:00 6.6 C 91 % 5.24 C
665 02-03-2019 07:20:00 6.7 C 91 % 5.34 C
666 02-03-2019 07:25:00 6.7 C 91 % 5.34 C
667 02-03-2019 07:30:00 6.7 C 91 % 5.34 C
668 02-03-2019 07:35:00 6.7 C 91 % 5.34 C
669 02-03-2019 07:40:00 6.7 C 91 % 5.34 C
670 02-03-2019 07:45:00 6.7 C 91 % 5.34 C
671 02-03-2019 07:50:00 6.7 C 91 % 5.34 C
672 02-03-2019 07:55:00 6.7 C 91 % 5.34 C
673 02-03-2019 08:00:00 6.8 C 91 % 5.44 C
674 02-03-2019 08:05:00 6.8 C 91 % 5.44 C
675 02-03-2019 08:10:00 6.8 C 91 % 5.44 C
Sensor: Nr:Datum:Temp:Feuchte:Taupunkt:
Aussen-T/F 676 02-03-2019 08:15:00 6.9 C 90 % 5.38 C
677 02-03-2019 08:20:00 6.9 C 91 % 5.54 C
678 02-03-2019 08:25:00 7 C 91 % 5.63 C
679 02-03-2019 08:30:00 7.1 C 90 % 5.57 C
680 02-03-2019 08:35:00 7.1 C 90 % 5.57 C
681 02-03-2019 08:40:00 7.1 C 90 % 5.57 C
682 02-03-2019 08:45:00 7.2 C 90 % 5.67 C
683 02-03-2019 08:50:00 7.2 C 90 % 5.67 C
684 02-03-2019 08:55:00 7.3 C 90 % 5.77 C
685 02-03-2019 09:00:00 7.3 C 90 % 5.77 C
686 02-03-2019 09:05:00 7.4 C 90 % 5.87 C
687 02-03-2019 09:10:00 7.5 C 90 % 5.97 C
688 02-03-2019 09:15:00 7.6 C 89 % 5.91 C
689 02-03-2019 09:20:00 7.6 C 89 % 5.91 C
690 02-03-2019 09:25:00 7.7 C 89 % 6 C
691 02-03-2019 09:30:00 7.7 C 89 % 6 C
692 02-03-2019 09:35:00 7.8 C 89 % 6.1 C
693 02-03-2019 09:40:00 7.8 C 88 % 5.94 C
694 02-03-2019 09:45:00 7.8 C 88 % 5.94 C
695 02-03-2019 09:50:00 7.9 C 88 % 6.04 C
696 02-03-2019 09:55:00 7.9 C 88 % 6.04 C
697 02-03-2019 10:00:00 7.9 C 88 % 6.04 C
698 02-03-2019 10:05:00 7.9 C 88 % 6.04 C
699 02-03-2019 10:10:00 7.9 C 88 % 6.04 C
700 02-03-2019 10:15:00 7.9 C 88 % 6.04 C
Sensor: Nr:Datum:Temp:Feuchte:Taupunkt:
Aussen-T/F 701 02-03-2019 10:20:00 7.9 C 88 % 6.04 C
702 02-03-2019 10:25:00 8 C 88 % 6.14 C
703 02-03-2019 10:30:00 8.1 C 88 % 6.24 C
704 02-03-2019 10:35:00 8.1 C 87 % 6.07 C
705 02-03-2019 10:40:00 8.1 C 88 % 6.24 C
706 02-03-2019 10:45:00 8.2 C 88 % 6.33 C
707 02-03-2019 10:50:00 8.3 C 87 % 6.27 C
708 02-03-2019 10:55:00 8.3 C 87 % 6.27 C
709 02-03-2019 11:00:00 8.4 C 87 % 6.37 C
710 02-03-2019 11:05:00 8.6 C 87 % 6.56 C
711 02-03-2019 11:10:00 8.7 C 86 % 6.49 C
712 02-03-2019 11:15:00 8.7 C 86 % 6.49 C
713 02-03-2019 11:20:00 8.8 C 86 % 6.59 C
714 02-03-2019 11:25:00 8.9 C 86 % 6.69 C
715 02-03-2019 11:30:00 9.1 C 86 % 6.89 C
716 02-03-2019 11:35:00 9.2 C 85 % 6.81 C
717 02-03-2019 11:40:00 9.3 C 84 % 6.74 C
718 02-03-2019 11:45:00 9.3 C 85 % 6.91 C
719 02-03-2019 11:50:00 9.4 C 84 % 6.84 C
720 02-03-2019 11:55:00 9.5 C 83 % 6.76 C
721 02-03-2019 12:00:00 9.6 C 84 % 7.03 C
722 02-03-2019 12:05:00 9.7 C 84 % 7.13 C
723 02-03-2019 12:10:00 9.8 C 84 % 7.23 C
724 02-03-2019 12:15:00 10 C 83 % 7.25 C
725 02-03-2019 12:20:00 10.1 C 83 % 7.35 C
Sensor: Nr:Datum:Temp:Feuchte:Taupunkt:
Aussen-T/F 726 02-03-2019 12:25:00 10.1 C 83 % 7.35 C
727 02-03-2019 12:30:00 10.1 C 82 % 7.17 C
728 02-03-2019 12:35:00 10.1 C 82 % 7.17 C
729 02-03-2019 12:40:00 10 C 82 % 7.07 C
730 02-03-2019 12:45:00 9.9 C 82 % 6.98 C
731 02-03-2019 12:50:00 9.9 C 83 % 7.15 C
732 02-03-2019 12:55:00 10 C 82 % 7.07 C
733 02-03-2019 13:00:00 10 C 82 % 7.07 C
734 02-03-2019 13:05:00 10.2 C 83 % 7.45 C
735 02-03-2019 13:10:00 10.4 C 82 % 7.46 C
736 02-03-2019 13:15:00 10.6 C 81 % 7.48 C
737 02-03-2019 13:20:00 10.7 C 80 % 7.4 C
738 02-03-2019 13:25:00 10.7 C 79 % 7.21 C
739 02-03-2019 13:30:00 10.7 C 79 % 7.21 C
740 02-03-2019 13:35:00 10.7 C 79 % 7.21 C
741 02-03-2019 13:40:00 10.7 C 79 % 7.21 C
742 02-03-2019 13:45:00 10.8 C 79 % 7.31 C
743 02-03-2019 13:50:00 11 C 78 % 7.32 C
744 02-03-2019 13:55:00 11.1 C 78 % 7.41 C
745 02-03-2019 14:00:00 11.1 C 77 % 7.23 C
746 02-03-2019 14:05:00 11.2 C 77 % 7.32 C
747 02-03-2019 14:10:00 11.2 C 77 % 7.32 C
748 02-03-2019 14:15:00 11.3 C 76 % 7.23 C
749 02-03-2019 14:20:00 11.4 C 75 % 7.13 C
750 02-03-2019 14:25:00 11.4 C 75 % 7.13 C
Sensor: Nr:Datum:Temp:Feuchte:Taupunkt:
Aussen-T/F 751 02-03-2019 14:30:00 11.4 C 75 % 7.13 C
752 02-03-2019 14:35:00 11.5 C 76 % 7.42 C
753 02-03-2019 14:40:00 11.6 C 75 % 7.33 C
754 02-03-2019 14:45:00 11.6 C 75 % 7.33 C
755 02-03-2019 14:50:00 11.6 C 75 % 7.33 C
756 02-03-2019 14:55:00 11.6 C 74 % 7.13 C
757 02-03-2019 15:00:00 11.7 C 74 % 7.23 C
758 02-03-2019 15:05:00 11.7 C 74 % 7.23 C
759 02-03-2019 15:10:00 11.8 C 73 % 7.12 C
760 02-03-2019 15:15:00 11.8 C 73 % 7.12 C
761 02-03-2019 15:20:00 11.8 C 72 % 6.92 C
762 02-03-2019 15:25:00 11.9 C 72 % 7.02 C
763 02-03-2019 15:30:00 11.9 C 72 % 7.02 C
764 02-03-2019 15:35:00 12 C 72 % 7.12 C
765 02-03-2019 15:40:00 12 C 71 % 6.91 C
766 02-03-2019 15:45:00 12.1 C 72 % 7.21 C
767 02-03-2019 15:50:00 12.2 C 72 % 7.31 C
768 02-03-2019 15:55:00 12.2 C 71 % 7.1 C
769 02-03-2019 16:00:00 12.3 C 70 % 6.99 C
770 02-03-2019 16:05:00 12.3 C 70 % 6.99 C
771 02-03-2019 16:10:00 12.3 C 70 % 6.99 C
772 02-03-2019 16:15:00 12.5 C 70 % 7.18 C
773 02-03-2019 16:20:00 12.6 C 70 % 7.28 C
774 02-03-2019 16:25:00 12.6 C 70 % 7.28 C
775 02-03-2019 16:30:00 12.6 C 70 % 7.28 C
Sensor: Nr:Datum:Temp:Feuchte:Taupunkt:
Aussen-T/F 776 02-03-2019 16:35:00 12.4 C 70 % 7.09 C
777 02-03-2019 16:40:00 12.3 C 71 % 7.2 C
778 02-03-2019 16:45:00 12.2 C 71 % 7.1 C
779 02-03-2019 16:50:00 12.1 C 71 % 7.01 C
780 02-03-2019 16:55:00 12 C 72 % 7.12 C
781 02-03-2019 17:00:00 11.9 C 73 % 7.22 C
782 02-03-2019 17:05:00 11.8 C 73 % 7.12 C
783 02-03-2019 17:10:00 11.7 C 74 % 7.23 C
784 02-03-2019 17:15:00 11.5 C 74 % 7.03 C
785 02-03-2019 17:20:00 11.4 C 75 % 7.13 C
786 02-03-2019 17:25:00 11.3 C 75 % 7.04 C
787 02-03-2019 17:30:00 11.3 C 76 % 7.23 C
788 02-03-2019 17:35:00 11.2 C 76 % 7.13 C
789 02-03-2019 17:40:00 11.2 C 77 % 7.32 C
790 02-03-2019 17:45:00 11.1 C 77 % 7.23 C
791 02-03-2019 17:50:00 11 C 78 % 7.32 C
792 02-03-2019 17:55:00 10.9 C 78 % 7.22 C
793 02-03-2019 18:00:00 10.8 C 78 % 7.12 C
794 02-03-2019 18:05:00 10.8 C 79 % 7.31 C
795 02-03-2019 18:10:00 10.7 C 79 % 7.21 C
796 02-03-2019 18:15:00 10.7 C 80 % 7.4 C
797 02-03-2019 18:20:00 10.6 C 80 % 7.3 C
798 02-03-2019 18:25:00 10.6 C 80 % 7.3 C
799 02-03-2019 18:30:00 10.5 C 81 % 7.38 C
800 02-03-2019 18:35:00 10.5 C 81 % 7.38 C
Sensor: Nr:Datum:Temp:Feuchte:Taupunkt:
Aussen-T/F 801 02-03-2019 18:40:00 10.4 C 82 % 7.46 C
802 02-03-2019 18:45:00 10.4 C 82 % 7.46 C
803 02-03-2019 18:50:00 10.3 C 82 % 7.37 C
804 02-03-2019 18:55:00 10.3 C 83 % 7.54 C
805 02-03-2019 19:00:00 10.2 C 84 % 7.62 C
806 02-03-2019 19:05:00 10.1 C 85 % 7.7 C
807 02-03-2019 19:10:00 10.1 C 85 % 7.7 C
808 02-03-2019 19:15:00 10 C 86 % 7.77 C
809 02-03-2019 19:20:00 9.9 C 86 % 7.67 C
810 02-03-2019 19:25:00 9.8 C 86 % 7.57 C
811 02-03-2019 19:30:00 9.8 C 86 % 7.57 C
812 02-03-2019 19:35:00 9.7 C 86 % 7.47 C
813 02-03-2019 19:40:00 9.7 C 87 % 7.64 C
814 02-03-2019 19:45:00 9.6 C 87 % 7.55 C
815 02-03-2019 19:50:00 9.6 C 87 % 7.55 C
816 02-03-2019 19:55:00 9.6 C 87 % 7.55 C
817 02-03-2019 20:00:00 9.4 C 87 % 7.35 C
818 02-03-2019 20:05:00 9.5 C 87 % 7.45 C
819 02-03-2019 20:10:00 9.5 C 87 % 7.45 C
820 02-03-2019 20:15:00 9.5 C 87 % 7.45 C
821 02-03-2019 20:20:00 9.5 C 87 % 7.45 C
822 02-03-2019 20:25:00 9.6 C 87 % 7.55 C
823 02-03-2019 20:30:00 9.6 C 87 % 7.55 C
824 02-03-2019 20:35:00 9.5 C 87 % 7.45 C
825 02-03-2019 20:40:00 9.6 C 88 % 7.71 C
Sensor: Nr:Datum:Temp:Feuchte:Taupunkt:
Aussen-T/F 826 02-03-2019 20:45:00 9.6 C 88 % 7.71 C
827 02-03-2019 20:50:00 9.6 C 87 % 7.55 C
828 02-03-2019 20:55:00 9.5 C 88 % 7.61 C
829 02-03-2019 21:00:00 9.5 C 88 % 7.61 C
830 02-03-2019 21:05:00 9.4 C 88 % 7.52 C
831 02-03-2019 21:10:00 9.4 C 88 % 7.52 C
832 02-03-2019 21:15:00 9.6 C 89 % 7.88 C
833 02-03-2019 21:20:00 9.7 C 88 % 7.81 C
834 02-03-2019 21:25:00 9.8 C 88 % 7.91 C
835 02-03-2019 21:30:00 9.9 C 87 % 7.84 C
836 02-03-2019 21:35:00 10.1 C 87 % 8.04 C
837 02-03-2019 21:40:00 10.1 C 87 % 8.04 C
838 02-03-2019 21:45:00 10.1 C 87 % 8.04 C
839 02-03-2019 21:50:00 10.2 C 86 % 7.97 C
840 02-03-2019 21:55:00 10.2 C 86 % 7.97 C
841 02-03-2019 22:00:00 10.2 C 86 % 7.97 C
842 02-03-2019 22:05:00 10.2 C 86 % 7.97 C
843 02-03-2019 22:10:00 10.2 C 86 % 7.97 C
844 02-03-2019 22:15:00 10.2 C 85 % 7.79 C
845 02-03-2019 22:20:00 10.2 C 85 % 7.79 C
846 02-03-2019 22:25:00 10.2 C 85 % 7.79 C
847 02-03-2019 22:30:00 10.3 C 85 % 7.89 C
848 02-03-2019 22:35:00 10.3 C 85 % 7.89 C
849 02-03-2019 22:40:00 10.3 C 85 % 7.89 C
850 02-03-2019 22:45:00 10.3 C 84 % 7.72 C
Sensor: Nr:Datum:Temp:Feuchte:Taupunkt:
Aussen-T/F 851 02-03-2019 22:50:00 10.3 C 84 % 7.72 C
852 02-03-2019 22:55:00 10.3 C 84 % 7.72 C
853 02-03-2019 23:00:00 10.3 C 84 % 7.72 C
854 02-03-2019 23:05:00 10.2 C 84 % 7.62 C
855 02-03-2019 23:10:00 10.2 C 84 % 7.62 C
856 02-03-2019 23:15:00 10.1 C 84 % 7.52 C
857 02-03-2019 23:20:00 10.1 C 83 % 7.35 C
858 02-03-2019 23:25:00 10.1 C 83 % 7.35 C
859 02-03-2019 23:30:00 9.9 C 83 % 7.15 C
860 02-03-2019 23:35:00 9.8 C 83 % 7.05 C
861 02-03-2019 23:40:00 9.8 C 83 % 7.05 C
862 02-03-2019 23:45:00 9.8 C 82 % 6.88 C
863 02-03-2019 23:50:00 9.7 C 83 % 6.96 C
864 02-03-2019 23:55:00 9.6 C 82 % 6.68 C
865 03-03-2019 00:00:00 9.6 C 82 % 6.68 C
866 03-03-2019 00:05:00 9.5 C 82 % 6.59 C
867 03-03-2019 00:10:00 9.5 C 82 % 6.59 C
868 03-03-2019 00:15:00 9.5 C 82 % 6.59 C
869 03-03-2019 00:20:00 9.4 C 82 % 6.49 C
870 03-03-2019 00:25:00 9.3 C 82 % 6.39 C
871 03-03-2019 00:30:00 9.2 C 82 % 6.29 C
872 03-03-2019 00:35:00 8.9 C 82 % 6 C
873 03-03-2019 00:40:00 8.7 C 83 % 5.98 C
874 03-03-2019 00:45:00 8.5 C 84 % 5.96 C
875 03-03-2019 00:50:00 8.3 C 85 % 5.93 C
Sensor: Nr:Datum:Temp:Feuchte:Taupunkt:
Aussen-T/F 876 03-03-2019 00:55:00 8.3 C 86 % 6.1 C
877 03-03-2019 01:00:00 8.3 C 87 % 6.27 C
878 03-03-2019 01:05:00 8.4 C 87 % 6.37 C
879 03-03-2019 01:10:00 8.6 C 87 % 6.56 C
880 03-03-2019 01:15:00 8.8 C 87 % 6.76 C
881 03-03-2019 01:20:00 8.9 C 86 % 6.69 C
882 03-03-2019 01:25:00 9.1 C 86 % 6.89 C
883 03-03-2019 01:30:00 9.3 C 86 % 7.08 C
884 03-03-2019 01:35:00 9.4 C 85 % 7.01 C
885 03-03-2019 01:40:00 9.7 C 84 % 7.13 C
886 03-03-2019 01:45:00 9.8 C 83 % 7.05 C
887 03-03-2019 01:50:00 9.9 C 83 % 7.15 C
888 03-03-2019 01:55:00 9.9 C 82 % 6.98 C
889 03-03-2019 02:00:00 10 C 82 % 7.07 C
890 03-03-2019 02:05:00 10 C 82 % 7.07 C
891 03-03-2019 02:10:00 10.1 C 81 % 6.99 C
892 03-03-2019 02:15:00 10.1 C 81 % 6.99 C
893 03-03-2019 02:20:00 10.1 C 81 % 6.99 C
894 03-03-2019 02:25:00 10.1 C 81 % 6.99 C
895 03-03-2019 02:30:00 10.1 C 81 % 6.99 C
896 03-03-2019 02:35:00 9.9 C 81 % 6.8 C
897 03-03-2019 02:40:00 9.9 C 81 % 6.8 C
898 03-03-2019 02:45:00 9.9 C 81 % 6.8 C
899 03-03-2019 02:50:00 9.8 C 81 % 6.7 C
900 03-03-2019 02:55:00 9.8 C 82 % 6.88 C
Sensor: Nr:Datum:Temp:Feuchte:Taupunkt:
Aussen-T/F 901 03-03-2019 03:00:00 9.8 C 81 % 6.7 C
902 03-03-2019 03:05:00 9.8 C 81 % 6.7 C
903 03-03-2019 03:10:00 9.9 C 81 % 6.8 C
904 03-03-2019 03:15:00 9.9 C 81 % 6.8 C
905 03-03-2019 03:20:00 9.9 C 81 % 6.8 C
906 03-03-2019 03:25:00 10 C 81 % 6.89 C
907 03-03-2019 03:30:00 10 C 81 % 6.89 C
908 03-03-2019 03:35:00 10.1 C 81 % 6.99 C
909 03-03-2019 03:40:00 10.1 C 81 % 6.99 C
910 03-03-2019 03:45:00 10.1 C 81 % 6.99 C
911 03-03-2019 03:50:00 10.2 C 81 % 7.09 C
912 03-03-2019 03:55:00 10.2 C 81 % 7.09 C
913 03-03-2019 04:00:00 10.2 C 81 % 7.09 C
914 03-03-2019 04:05:00 10.2 C 81 % 7.09 C
915 03-03-2019 04:10:00 10.2 C 81 % 7.09 C
916 03-03-2019 04:15:00 10.2 C 81 % 7.09 C
917 03-03-2019 04:20:00 10.2 C 81 % 7.09 C
918 03-03-2019 04:25:00 10.3 C 81 % 7.19 C
919 03-03-2019 04:30:00 10.3 C 81 % 7.19 C
920 03-03-2019 04:35:00 10.3 C 81 % 7.19 C
921 03-03-2019 04:40:00 10.2 C 81 % 7.09 C
922 03-03-2019 04:45:00 10.2 C 81 % 7.09 C
923 03-03-2019 04:50:00 10.2 C 81 % 7.09 C
924 03-03-2019 04:55:00 10.2 C 80 % 6.91 C
925 03-03-2019 05:00:00 10.2 C 80 % 6.91 C
Sensor: Nr:Datum:Temp:Feuchte:Taupunkt:
Aussen-T/F 926 03-03-2019 05:05:00 10.3 C 80 % 7.01 C
927 03-03-2019 05:10:00 10.2 C 80 % 6.91 C
928 03-03-2019 05:15:00 10.2 C 80 % 6.91 C
929 03-03-2019 05:20:00 10.2 C 80 % 6.91 C
930 03-03-2019 05:25:00 10.2 C 80 % 6.91 C
931 03-03-2019 05:30:00 10.2 C 80 % 6.91 C
932 03-03-2019 05:35:00 10.2 C 80 % 6.91 C
933 03-03-2019 05:40:00 10.2 C 79 % 6.73 C
934 03-03-2019 05:45:00 10.2 C 79 % 6.73 C
935 03-03-2019 05:50:00 10.2 C 80 % 6.91 C
936 03-03-2019 05:55:00 10.2 C 80 % 6.91 C
937 03-03-2019 06:00:00 10.2 C 80 % 6.91 C
938 03-03-2019 06:05:00 10.1 C 80 % 6.81 C
939 03-03-2019 06:10:00 10.1 C 81 % 6.99 C
940 03-03-2019 06:15:00 10.1 C 81 % 6.99 C
941 03-03-2019 06:20:00 10.1 C 81 % 6.99 C
942 03-03-2019 06:25:00 10.1 C 81 % 6.99 C
943 03-03-2019 06:30:00 10.1 C 81 % 6.99 C
944 03-03-2019 06:35:00 10.1 C 81 % 6.99 C
945 03-03-2019 06:40:00 10.1 C 81 % 6.99 C
946 03-03-2019 06:45:00 10.1 C 81 % 6.99 C
947 03-03-2019 06:50:00 10.1 C 81 % 6.99 C
948 03-03-2019 06:55:00 10.1 C 81 % 6.99 C
949 03-03-2019 07:00:00 10.1 C 81 % 6.99 C
950 03-03-2019 07:05:00 10.1 C 81 % 6.99 C
Sensor: Nr:Datum:Temp:Feuchte:Taupunkt:
Aussen-T/F 951 03-03-2019 07:10:00 10.1 C 81 % 6.99 C
952 03-03-2019 07:15:00 10.1 C 81 % 6.99 C
953 03-03-2019 07:20:00 10.1 C 81 % 6.99 C
954 03-03-2019 07:25:00 10.1 C 81 % 6.99 C
955 03-03-2019 07:30:00 10.1 C 81 % 6.99 C
956 03-03-2019 07:35:00 10.1 C 81 % 6.99 C
957 03-03-2019 07:40:00 10.2 C 81 % 7.09 C
958 03-03-2019 07:45:00 10.2 C 81 % 7.09 C
959 03-03-2019 07:50:00 10.2 C 81 % 7.09 C
960 03-03-2019 07:55:00 10.2 C 81 % 7.09 C
961 03-03-2019 08:00:00 10.2 C 81 % 7.09 C
962 03-03-2019 08:05:00 10.2 C 81 % 7.09 C
963 03-03-2019 08:10:00 10.3 C 81 % 7.19 C
964 03-03-2019 08:15:00 10.3 C 81 % 7.19 C
965 03-03-2019 08:20:00 10.3 C 81 % 7.19 C
966 03-03-2019 08:25:00 10.3 C 81 % 7.19 C
967 03-03-2019 08:30:00 10.3 C 82 % 7.37 C
968 03-03-2019 08:35:00 10.3 C 82 % 7.37 C
969 03-03-2019 08:40:00 10.3 C 82 % 7.37 C
970 03-03-2019 08:45:00 10.4 C 82 % 7.46 C
971 03-03-2019 08:50:00 10.4 C 82 % 7.46 C
972 03-03-2019 08:55:00 10.5 C 82 % 7.56 C
973 03-03-2019 09:00:00 10.6 C 82 % 7.66 C
974 03-03-2019 09:05:00 10.7 C 81 % 7.58 C
975 03-03-2019 09:10:00 10.8 C 82 % 7.85 C
Sensor: Nr:Datum:Temp:Feuchte:Taupunkt:
Aussen-T/F 976 03-03-2019 09:15:00 10.9 C 81 % 7.77 C
977 03-03-2019 09:20:00 10.9 C 81 % 7.77 C
978 03-03-2019 09:25:00 11 C 81 % 7.87 C
979 03-03-2019 09:30:00 10.9 C 81 % 7.77 C
980 03-03-2019 09:35:00 10.9 C 81 % 7.77 C
981 03-03-2019 09:40:00 10.9 C 81 % 7.77 C
982 03-03-2019 09:45:00 10.9 C 81 % 7.77 C
983 03-03-2019 09:50:00 10.9 C 81 % 7.77 C
984 03-03-2019 09:55:00 11.1 C 81 % 7.97 C
985 03-03-2019 10:00:00 11.1 C 81 % 7.97 C
986 03-03-2019 10:05:00 11.1 C 81 % 7.97 C
987 03-03-2019 10:10:00 11.2 C 81 % 8.06 C
988 03-03-2019 10:15:00 11.2 C 81 % 8.06 C
989 03-03-2019 10:20:00 11.1 C 81 % 7.97 C
990 03-03-2019 10:25:00 11.1 C 81 % 7.97 C
991 03-03-2019 10:30:00 11.1 C 81 % 7.97 C
992 03-03-2019 10:35:00 11.2 C 81 % 8.06 C
993 03-03-2019 10:40:00 11.2 C 81 % 8.06 C
994 03-03-2019 10:45:00 11.2 C 81 % 8.06 C
995 03-03-2019 10:50:00 11.2 C 81 % 8.06 C
996 03-03-2019 10:55:00 11.2 C 81 % 8.06 C
997 03-03-2019 11:00:00 11.1 C 81 % 7.97 C
998 03-03-2019 11:05:00 11.1 C 82 % 8.15 C
999 03-03-2019 11:10:00 11 C 82 % 8.05 C
1000 03-03-2019 11:15:00 10.9 C 82 % 7.95 C
Sensor: Nr:Datum:Temp:Feuchte:Taupunkt:
Aussen-T/F 1001 03-03-2019 11:20:00 10.9 C 82 % 7.95 C
1002 03-03-2019 11:25:00 10.9 C 82 % 7.95 C
1003 03-03-2019 11:30:00 11 C 82 % 8.05 C
1004 03-03-2019 11:35:00 11 C 82 % 8.05 C
1005 03-03-2019 11:40:00 11 C 82 % 8.05 C
1006 03-03-2019 11:45:00 11 C 82 % 8.05 C
1007 03-03-2019 11:50:00 11.1 C 83 % 8.33 C
1008 03-03-2019 11:55:00 11.1 C 82 % 8.15 C
1009 03-03-2019 12:00:00 11.1 C 83 % 8.33 C
1010 03-03-2019 12:05:00 11.1 C 82 % 8.15 C
1011 03-03-2019 12:10:00 11.1 C 82 % 8.15 C
1012 03-03-2019 12:15:00 11.1 C 82 % 8.15 C
1013 03-03-2019 12:20:00 11.2 C 82 % 8.25 C
1014 03-03-2019 12:25:00 11.2 C 82 % 8.25 C
1015 03-03-2019 12:30:00 11.3 C 82 % 8.34 C
1016 03-03-2019 12:35:00 11.3 C 82 % 8.34 C
1017 03-03-2019 12:40:00 11.3 C 82 % 8.34 C
1018 03-03-2019 12:45:00 11.3 C 82 % 8.34 C
1019 03-03-2019 12:50:00 11.3 C 82 % 8.34 C
1020 03-03-2019 12:55:00 11.4 C 82 % 8.44 C
1021 03-03-2019 13:00:00 11.4 C 82 % 8.44 C
1022 03-03-2019 13:05:00 11.6 C 81 % 8.45 C
1023 03-03-2019 13:10:00 11.6 C 81 % 8.45 C
1024 03-03-2019 13:15:00 11.7 C 81 % 8.55 C
1025 03-03-2019 13:20:00 11.7 C 81 % 8.55 C
Sensor: Nr:Datum:Temp:Feuchte:Taupunkt:
Aussen-T/F 1026 03-03-2019 13:25:00 11.8 C 80 % 8.47 C
1027 03-03-2019 13:30:00 11.8 C 80 % 8.47 C
1028 03-03-2019 13:35:00 11.8 C 80 % 8.47 C
1029 03-03-2019 13:40:00 11.8 C 80 % 8.47 C
1030 03-03-2019 13:45:00 11.8 C 80 % 8.47 C
1031 03-03-2019 13:50:00 11.9 C 80 % 8.56 C
1032 03-03-2019 13:55:00 11.9 C 80 % 8.56 C
1033 03-03-2019 14:00:00 11.9 C 79 % 8.38 C
1034 03-03-2019 14:05:00 11.9 C 79 % 8.38 C
1035 03-03-2019 14:10:00 11.9 C 80 % 8.56 C
1036 03-03-2019 14:15:00 11.9 C 80 % 8.56 C
1037 03-03-2019 14:20:00 11.8 C 80 % 8.47 C
1038 03-03-2019 14:25:00 11.8 C 80 % 8.47 C
1039 03-03-2019 14:30:00 11.8 C 80 % 8.47 C
1040 03-03-2019 14:35:00 11.7 C 80 % 8.37 C
1041 03-03-2019 14:40:00 11.7 C 80 % 8.37 C
1042 03-03-2019 14:45:00 11.7 C 80 % 8.37 C
1043 03-03-2019 14:50:00 11.7 C 81 % 8.55 C
1044 03-03-2019 14:55:00 11.7 C 81 % 8.55 C
1045 03-03-2019 15:00:00 11.7 C 81 % 8.55 C
1046 03-03-2019 15:05:00 11.7 C 80 % 8.37 C
1047 03-03-2019 15:10:00 11.7 C 80 % 8.37 C
1048 03-03-2019 15:15:00 11.8 C 81 % 8.65 C
1049 03-03-2019 15:20:00 11.8 C 81 % 8.65 C
1050 03-03-2019 15:25:00 11.8 C 81 % 8.65 C
Sensor: Nr:Datum:Temp:Feuchte:Taupunkt:
Aussen-T/F 1051 03-03-2019 15:30:00 11.7 C 81 % 8.55 C
1052 03-03-2019 15:35:00 11.7 C 82 % 8.73 C
1053 03-03-2019 15:40:00 11.7 C 82 % 8.73 C
1054 03-03-2019 15:45:00 11.6 C 82 % 8.64 C
1055 03-03-2019 15:50:00 11.6 C 82 % 8.64 C
1056 03-03-2019 15:55:00 11.6 C 82 % 8.64 C
1057 03-03-2019 16:00:00 11.6 C 82 % 8.64 C
1058 03-03-2019 16:05:00 11.6 C 82 % 8.64 C
1059 03-03-2019 16:10:00 11.6 C 82 % 8.64 C
1060 03-03-2019 16:15:00 11.6 C 82 % 8.64 C
1061 03-03-2019 16:20:00 11.6 C 82 % 8.64 C
1062 03-03-2019 16:25:00 11.7 C 82 % 8.73 C
1063 03-03-2019 16:30:00 11.7 C 81 % 8.55 C
1064 03-03-2019 16:35:00 11.8 C 81 % 8.65 C
1065 03-03-2019 16:40:00 11.8 C 81 % 8.65 C
1066 03-03-2019 16:45:00 11.8 C 81 % 8.65 C
1067 03-03-2019 16:50:00 11.8 C 81 % 8.65 C
1068 03-03-2019 16:55:00 11.8 C 81 % 8.65 C
1069 03-03-2019 17:00:00 11.8 C 81 % 8.65 C
1070 03-03-2019 17:05:00 11.8 C 81 % 8.65 C
1071 03-03-2019 17:10:00 11.8 C 80 % 8.47 C
1072 03-03-2019 17:15:00 11.8 C 80 % 8.47 C
1073 03-03-2019 17:20:00 11.8 C 80 % 8.47 C
1074 03-03-2019 17:25:00 11.8 C 80 % 8.47 C
1075 03-03-2019 17:30:00 11.9 C 79 % 8.38 C
Sensor: Nr:Datum:Temp:Feuchte:Taupunkt:
Aussen-T/F 1076 03-03-2019 17:35:00 11.9 C 79 % 8.38 C
1077 03-03-2019 17:40:00 11.9 C 79 % 8.38 C
1078 03-03-2019 17:45:00 12 C 78 % 8.29 C
1079 03-03-2019 17:50:00 12.1 C 78 % 8.38 C
1080 03-03-2019 17:55:00 12.2 C 78 % 8.48 C
1081 03-03-2019 18:00:00 12.2 C 78 % 8.48 C
1082 03-03-2019 18:05:00 12.2 C 78 % 8.48 C
1083 03-03-2019 18:10:00 12.2 C 78 % 8.48 C
1084 03-03-2019 18:15:00 12.2 C 78 % 8.48 C
1085 03-03-2019 18:20:00 12.2 C 78 % 8.48 C
1086 03-03-2019 18:25:00 12.2 C 78 % 8.48 C
1087 03-03-2019 18:30:00 12.2 C 77 % 8.29 C
1088 03-03-2019 18:35:00 12.2 C 77 % 8.29 C
1089 03-03-2019 18:40:00 12.2 C 77 % 8.29 C
1090 03-03-2019 18:45:00 12.2 C 77 % 8.29 C
1091 03-03-2019 18:50:00 12.1 C 77 % 8.2 C
1092 03-03-2019 18:55:00 12.1 C 77 % 8.2 C
1093 03-03-2019 19:00:00 12.1 C 77 % 8.2 C
1094 03-03-2019 19:05:00 12.2 C 77 % 8.29 C
1095 03-03-2019 19:10:00 12.2 C 77 % 8.29 C
1096 03-03-2019 19:15:00 12.2 C 76 % 8.1 C
1097 03-03-2019 19:20:00 12.3 C 76 % 8.2 C
1098 03-03-2019 19:25:00 12.3 C 76 % 8.2 C
1099 03-03-2019 19:30:00 12.3 C 76 % 8.2 C
1100 03-03-2019 19:35:00 12.3 C 76 % 8.2 C
Sensor: Nr:Datum:Temp:Feuchte:Taupunkt:
Aussen-T/F 1101 03-03-2019 19:40:00 12.3 C 75 % 8 C
1102 03-03-2019 19:45:00 12.4 C 75 % 8.1 C
1103 03-03-2019 19:50:00 12.4 C 75 % 8.1 C
1104 03-03-2019 19:55:00 12.4 C 75 % 8.1 C
1105 03-03-2019 20:00:00 12.3 C 75 % 8 C
1106 03-03-2019 20:05:00 12.3 C 75 % 8 C
1107 03-03-2019 20:10:00 12.3 C 75 % 8 C
1108 03-03-2019 20:15:00 12.3 C 76 % 8.2 C
1109 03-03-2019 20:20:00 12.3 C 76 % 8.2 C
1110 03-03-2019 20:25:00 12.4 C 76 % 8.29 C
1111 03-03-2019 20:30:00 12.4 C 76 % 8.29 C
1112 03-03-2019 20:35:00 12.4 C 76 % 8.29 C
1113 03-03-2019 20:40:00 12.4 C 76 % 8.29 C
1114 03-03-2019 20:45:00 12.3 C 77 % 8.39 C
1115 03-03-2019 20:50:00 12.3 C 77 % 8.39 C
1116 03-03-2019 20:55:00 12.3 C 77 % 8.39 C
1117 03-03-2019 21:00:00 12.3 C 77 % 8.39 C
1118 03-03-2019 21:05:00 12.3 C 77 % 8.39 C
1119 03-03-2019 21:10:00 12.3 C 77 % 8.39 C
1120 03-03-2019 21:15:00 12.3 C 77 % 8.39 C
1121 03-03-2019 21:20:00 12.3 C 77 % 8.39 C
1122 03-03-2019 21:25:00 12.3 C 77 % 8.39 C
1123 03-03-2019 21:30:00 12.3 C 77 % 8.39 C
1124 03-03-2019 21:35:00 12.3 C 77 % 8.39 C
1125 03-03-2019 21:40:00 12.4 C 77 % 8.49 C
Sensor: Nr:Datum:Temp:Feuchte:Taupunkt:
Aussen-T/F 1126 03-03-2019 21:45:00 12.4 C 77 % 8.49 C
1127 03-03-2019 21:50:00 12.4 C 77 % 8.49 C
1128 03-03-2019 21:55:00 12.4 C 78 % 8.68 C
1129 03-03-2019 22:00:00 12.4 C 78 % 8.68 C
1130 03-03-2019 22:05:00 12.4 C 78 % 8.68 C
1131 03-03-2019 22:10:00 12.4 C 78 % 8.68 C
1132 03-03-2019 22:15:00 12.4 C 77 % 8.49 C
1133 03-03-2019 22:20:00 12.4 C 77 % 8.49 C
1134 03-03-2019 22:25:00 12.5 C 77 % 8.58 C
1135 03-03-2019 22:30:00 12.5 C 77 % 8.58 C
1136 03-03-2019 22:35:00 12.6 C 76 % 8.49 C
1137 03-03-2019 22:40:00 12.6 C 76 % 8.49 C
1138 03-03-2019 22:45:00 12.7 C 75 % 8.39 C
1139 03-03-2019 22:50:00 12.7 C 75 % 8.39 C
1140 03-03-2019 22:55:00 12.7 C 75 % 8.39 C
1141 03-03-2019 23:00:00 12.7 C 74 % 8.19 C
1142 03-03-2019 23:05:00 12.8 C 74 % 8.29 C
1143 03-03-2019 23:10:00 12.8 C 74 % 8.29 C
1144 03-03-2019 23:15:00 12.8 C 74 % 8.29 C
1145 03-03-2019 23:20:00 12.7 C 74 % 8.19 C
1146 03-03-2019 23:25:00 12.7 C 74 % 8.19 C
1147 03-03-2019 23:30:00 12.7 C 74 % 8.19 C
1148 03-03-2019 23:35:00 12.7 C 74 % 8.19 C
1149 03-03-2019 23:40:00 12.8 C 73 % 8.09 C
1150 03-03-2019 23:45:00 12.8 C 74 % 8.29 C
Sensor: Nr:Datum:Temp:Feuchte:Taupunkt:
Aussen-T/F 1151 03-03-2019 23:50:00 12.8 C 73 % 8.09 C
1152 03-03-2019 23:55:00 12.8 C 73 % 8.09 C
1153 04-03-2019 00:00:00 12.9 C 73 % 8.18 C
1154 04-03-2019 00:05:00 12.9 C 73 % 8.18 C
1155 04-03-2019 00:10:00 12.9 C 72 % 7.98 C
1156 04-03-2019 00:15:00 13 C 72 % 8.08 C
1157 04-03-2019 00:20:00 13.1 C 72 % 8.17 C
1158 04-03-2019 00:25:00 13.1 C 71 % 7.97 C
1159 04-03-2019 00:30:00 13.2 C 71 % 8.06 C
1160 04-03-2019 00:35:00 13.2 C 70 % 7.86 C
1161 04-03-2019 00:40:00 13.2 C 71 % 8.06 C
1162 04-03-2019 00:45:00 13.2 C 70 % 7.86 C
1163 04-03-2019 00:50:00 13.3 C 70 % 7.95 C
1164 04-03-2019 00:55:00 13.3 C 70 % 7.95 C
1165 04-03-2019 01:00:00 13.3 C 69 % 7.74 C
1166 04-03-2019 01:05:00 13.3 C 70 % 7.95 C
1167 04-03-2019 01:10:00 13.3 C 70 % 7.95 C
1168 04-03-2019 01:15:00 13.3 C 70 % 7.95 C
1169 04-03-2019 01:20:00 13.3 C 69 % 7.74 C
1170 04-03-2019 01:25:00 13.3 C 69 % 7.74 C
1171 04-03-2019 01:30:00 13.4 C 68 % 7.62 C
1172 04-03-2019 01:35:00 13.6 C 67 % 7.6 C
1173 04-03-2019 01:40:00 13.8 C 67 % 7.79 C
1174 04-03-2019 01:45:00 13.8 C 67 % 7.79 C
1175 04-03-2019 01:50:00 13.9 C 67 % 7.88 C
Sensor: Nr:Datum:Temp:Feuchte:Taupunkt:
Aussen-T/F 1176 04-03-2019 01:55:00 13.8 C 69 % 8.22 C
1177 04-03-2019 02:00:00 13.6 C 70 % 8.24 C
1178 04-03-2019 02:05:00 13.3 C 71 % 8.16 C
1179 04-03-2019 02:10:00 13.2 C 72 % 8.27 C
1180 04-03-2019 02:15:00 12.9 C 74 % 8.38 C
1181 04-03-2019 02:20:00 12.8 C 75 % 8.48 C
1182 04-03-2019 02:25:00 12.6 C 76 % 8.49 C
1183 04-03-2019 02:30:00 12.5 C 77 % 8.58 C
1184 04-03-2019 02:35:00 12.3 C 77 % 8.39 C
1185 04-03-2019 02:40:00 12.3 C 78 % 8.58 C
1186 04-03-2019 02:45:00 12.2 C 78 % 8.48 C
1187 04-03-2019 02:50:00 12.2 C 78 % 8.48 C
1188 04-03-2019 02:55:00 12.1 C 79 % 8.57 C
1189 04-03-2019 03:00:00 12.1 C 79 % 8.57 C
1190 04-03-2019 03:05:00 12 C 79 % 8.48 C
1191 04-03-2019 03:10:00 11.9 C 80 % 8.56 C
1192 04-03-2019 03:15:00 11.8 C 80 % 8.47 C
1193 04-03-2019 03:20:00 11.8 C 80 % 8.47 C
1194 04-03-2019 03:25:00 11.7 C 81 % 8.55 C
1195 04-03-2019 03:30:00 11.7 C 81 % 8.55 C
1196 04-03-2019 03:35:00 11.7 C 81 % 8.55 C
1197 04-03-2019 03:40:00 11.7 C 81 % 8.55 C
1198 04-03-2019 03:45:00 11.7 C 81 % 8.55 C
1199 04-03-2019 03:50:00 11.7 C 81 % 8.55 C
1200 04-03-2019 03:55:00 11.7 C 81 % 8.55 C
Sensor: Nr:Datum:Temp:Feuchte:Taupunkt:
Aussen-T/F 1201 04-03-2019 04:00:00 11.7 C 81 % 8.55 C
1202 04-03-2019 04:05:00 11.7 C 81 % 8.55 C
1203 04-03-2019 04:10:00 11.6 C 81 % 8.45 C
1204 04-03-2019 04:15:00 11.6 C 81 % 8.45 C
1205 04-03-2019 04:20:00 11.6 C 81 % 8.45 C
1206 04-03-2019 04:25:00 11.7 C 82 % 8.73 C
1207 04-03-2019 04:30:00 11.7 C 82 % 8.73 C
1208 04-03-2019 04:35:00 11.7 C 82 % 8.73 C
1209 04-03-2019 04:40:00 11.7 C 82 % 8.73 C
1210 04-03-2019 04:45:00 11.7 C 82 % 8.73 C
1211 04-03-2019 04:50:00 11.7 C 82 % 8.73 C
1212 04-03-2019 04:55:00 11.7 C 81 % 8.55 C
1213 04-03-2019 05:00:00 11.7 C 81 % 8.55 C
1214 04-03-2019 05:05:00 11.7 C 80 % 8.37 C
1215 04-03-2019 05:10:00 11.8 C 80 % 8.47 C
1216 04-03-2019 05:15:00 11.8 C 80 % 8.47 C
1217 04-03-2019 05:20:00 11.8 C 80 % 8.47 C
1218 04-03-2019 05:25:00 11.8 C 80 % 8.47 C
1219 04-03-2019 05:30:00 11.7 C 80 % 8.37 C
1220 04-03-2019 05:35:00 11.6 C 79 % 8.09 C
1221 04-03-2019 05:40:00 11.6 C 80 % 8.27 C
1222 04-03-2019 05:45:00 11.4 C 80 % 8.08 C
1223 04-03-2019 05:50:00 11.4 C 80 % 8.08 C
1224 04-03-2019 05:55:00 11.3 C 81 % 8.16 C
1225 04-03-2019 06:00:00 11.3 C 81 % 8.16 C
Sensor: Nr:Datum:Temp:Feuchte:Taupunkt:
Aussen-T/F 1226 04-03-2019 06:05:00 11.4 C 80 % 8.08 C
1227 04-03-2019 06:10:00 11.4 C 80 % 8.08 C
1228 04-03-2019 06:15:00 11.3 C 80 % 7.98 C
1229 04-03-2019 06:20:00 11.3 C 79 % 7.8 C
1230 04-03-2019 06:25:00 11.3 C 78 % 7.61 C
1231 04-03-2019 06:30:00 11.5 C 77 % 7.61 C
1232 04-03-2019 06:35:00 11.6 C 79 % 8.09 C
1233 04-03-2019 06:40:00 11.6 C 79 % 8.09 C
1234 04-03-2019 06:45:00 11.5 C 78 % 7.8 C
1235 04-03-2019 06:50:00 11.6 C 78 % 7.9 C
1236 04-03-2019 06:55:00 11.6 C 78 % 7.9 C
1237 04-03-2019 07:00:00 11.6 C 77 % 7.71 C
1238 04-03-2019 07:05:00 11.7 C 76 % 7.62 C
1239 04-03-2019 07:10:00 11.8 C 76 % 7.71 C
1240 04-03-2019 07:15:00 11.9 C 75 % 7.62 C
1241 04-03-2019 07:20:00 12 C 74 % 7.52 C
1242 04-03-2019 07:25:00 12 C 74 % 7.52 C
1243 04-03-2019 07:30:00 12.1 C 73 % 7.41 C
1244 04-03-2019 07:35:00 12.1 C 73 % 7.41 C
1245 04-03-2019 07:40:00 12.2 C 72 % 7.31 C
1246 04-03-2019 07:45:00 12.2 C 72 % 7.31 C
1247 04-03-2019 07:50:00 12.2 C 72 % 7.31 C
1248 04-03-2019 07:55:00 12.2 C 72 % 7.31 C
1249 04-03-2019 08:00:00 12.3 C 72 % 7.4 C
1250 04-03-2019 08:05:00 12.3 C 71 % 7.2 C
Sensor: Nr:Datum:Temp:Feuchte:Taupunkt:
Aussen-T/F 1251 04-03-2019 08:10:00 12.4 C 70 % 7.09 C
1252 04-03-2019 08:15:00 12.4 C 69 % 6.88 C
1253 04-03-2019 08:20:00 12.6 C 68 % 6.86 C
1254 04-03-2019 08:25:00 12.7 C 68 % 6.95 C
1255 04-03-2019 08:30:00 12.7 C 67 % 6.74 C
1256 04-03-2019 08:35:00 12 C 75 % 7.71 C
1257 04-03-2019 08:40:00 10.7 C 77 % 6.84 C
1258 04-03-2019 08:45:00 9.7 C 80 % 6.42 C
1259 04-03-2019 08:50:00 9.2 C 80 % 5.94 C
1260 04-03-2019 08:55:00 8.9 C 81 % 5.82 C
1261 04-03-2019 09:00:00 8.9 C 79 % 5.46 C
1262 04-03-2019 09:05:00 9 C 77 % 5.19 C
1263 04-03-2019 09:10:00 9.2 C 75 % 5.01 C
1264 04-03-2019 09:15:00 9.4 C 74 % 5.01 C
1265 04-03-2019 09:20:00 9.6 C 73 % 5.01 C
1266 04-03-2019 09:25:00 9.6 C 73 % 5.01 C
1267 04-03-2019 09:30:00 9.7 C 73 % 5.1 C
1268 04-03-2019 09:35:00 9.8 C 75 % 5.59 C
1269 04-03-2019 09:40:00 9.8 C 78 % 6.15 C
1270 04-03-2019 09:45:00 9.4 C 79 % 5.95 C
1271 04-03-2019 09:50:00 9.2 C 80 % 5.94 C
1272 04-03-2019 09:55:00 9.1 C 80 % 5.84 C
1273 04-03-2019 10:00:00 9.1 C 80 % 5.84 C
1274 04-03-2019 10:05:00 9.2 C 80 % 5.94 C
1275 04-03-2019 10:10:00 9.4 C 79 % 5.95 C
Sensor: Nr:Datum:Temp:Feuchte:Taupunkt:
Aussen-T/F 1276 04-03-2019 10:15:00 9.6 C 78 % 5.96 C
1277 04-03-2019 10:20:00 9.7 C 77 % 5.87 C
1278 04-03-2019 10:25:00 9.9 C 77 % 6.06 C
1279 04-03-2019 10:30:00 10 C 76 % 5.97 C
1280 04-03-2019 10:35:00 10.1 C 76 % 6.07 C
1281 04-03-2019 10:40:00 10.2 C 76 % 6.16 C
1282 04-03-2019 10:45:00 10.3 C 75 % 6.07 C
1283 04-03-2019 10:50:00 10.6 C 74 % 6.17 C
1284 04-03-2019 10:55:00 10.8 C 71 % 5.76 C
1285 04-03-2019 11:00:00 11.1 C 70 % 5.84 C
1286 04-03-2019 11:05:00 11.3 C 68 % 5.62 C
1287 04-03-2019 11:10:00 11.6 C 67 % 5.69 C
1288 04-03-2019 11:15:00 11.7 C 66 % 5.57 C
1289 04-03-2019 11:20:00 11.7 C 65 % 5.35 C
1290 04-03-2019 11:25:00 11.6 C 68 % 5.9 C
1291 04-03-2019 11:30:00 11.2 C 70 % 5.94 C
1292 04-03-2019 11:35:00 10.9 C 71 % 5.86 C
1293 04-03-2019 11:40:00 10.8 C 71 % 5.76 C
1294 04-03-2019 11:45:00 10.9 C 72 % 6.06 C
1295 04-03-2019 11:50:00 11 C 71 % 5.95 C
1296 04-03-2019 11:55:00 11 C 71 % 5.95 C
1297 04-03-2019 12:00:00 11.2 C 69 % 5.73 C
1298 04-03-2019 12:05:00 11.3 C 68 % 5.62 C
1299 04-03-2019 12:10:00 11.4 C 68 % 5.71 C
1300 04-03-2019 12:15:00 11.6 C 68 % 5.9 C
Sensor: Nr:Datum:Temp:Feuchte:Taupunkt:
Aussen-T/F 1301 04-03-2019 12:20:00 11.8 C 67 % 5.88 C
1302 04-03-2019 12:25:00 12 C 67 % 6.07 C
1303 04-03-2019 12:30:00 11.9 C 68 % 6.19 C
1304 04-03-2019 12:35:00 11.4 C 73 % 6.74 C
1305 04-03-2019 12:40:00 10.6 C 78 % 6.93 C
1306 04-03-2019 12:45:00 9.8 C 82 % 6.88 C
1307 04-03-2019 12:50:00 9.5 C 83 % 6.76 C
1308 04-03-2019 12:55:00 9.3 C 84 % 6.74 C
1309 04-03-2019 13:00:00 8.8 C 86 % 6.59 C
1310 04-03-2019 13:05:00 8.7 C 88 % 6.83 C
1311 04-03-2019 13:10:00 9.1 C 90 % 7.55 C
1312 04-03-2019 13:15:00 9.3 C 87 % 7.25 C
1313 04-03-2019 13:20:00 9.4 C 86 % 7.18 C
1314 04-03-2019 13:25:00 9.7 C 85 % 7.3 C
1315 04-03-2019 13:30:00 9.9 C 83 % 7.15 C
1316 04-03-2019 13:35:00 10.3 C 81 % 7.19 C
1317 04-03-2019 13:40:00 10.5 C 80 % 7.2 C
1318 04-03-2019 13:45:00 10.4 C 81 % 7.28 C
1319 04-03-2019 13:50:00 10.4 C 81 % 7.28 C
1320 04-03-2019 13:55:00 10.3 C 81 % 7.19 C
1321 04-03-2019 14:00:00 10.2 C 82 % 7.27 C
1322 04-03-2019 14:05:00 10.2 C 82 % 7.27 C
1323 04-03-2019 14:10:00 10.1 C 84 % 7.52 C
1324 04-03-2019 14:15:00 9.9 C 83 % 7.15 C
1325 04-03-2019 14:20:00 9.9 C 83 % 7.15 C
Sensor: Nr:Datum:Temp:Feuchte:Taupunkt:
Aussen-T/F 1326 04-03-2019 14:25:00 9.9 C 81 % 6.8 C
1327 04-03-2019 14:30:00 9.8 C 81 % 6.7 C
1328 04-03-2019 14:35:00 9.6 C 82 % 6.68 C
1329 04-03-2019 14:40:00 9.1 C 84 % 6.54 C
1330 04-03-2019 14:45:00 8.6 C 86 % 6.39 C
1331 04-03-2019 14:50:00 8.2 C 86 % 6 C
1332 04-03-2019 14:55:00 7.8 C 86 % 5.61 C
1333 04-03-2019 15:00:00 7.6 C 85 % 5.24 C
1334 04-03-2019 15:05:00 7.4 C 85 % 5.05 C
1335 04-03-2019 15:10:00 7.2 C 86 % 5.02 C
1336 04-03-2019 15:15:00 7.2 C 86 % 5.02 C
1337 04-03-2019 15:20:00 7.1 C 86 % 4.92 C
1338 04-03-2019 15:25:00 7.1 C 86 % 4.92 C
1339 04-03-2019 15:30:00 6.9 C 85 % 4.56 C
1340 04-03-2019 15:35:00 6.9 C 84 % 4.39 C
1341 04-03-2019 15:40:00 6.9 C 84 % 4.39 C
1342 04-03-2019 15:45:00 6.9 C 83 % 4.22 C
1343 04-03-2019 15:50:00 6.9 C 82 % 4.05 C
1344 04-03-2019 15:55:00 7.1 C 81 % 4.07 C
1345 04-03-2019 16:00:00 7.3 C 81 % 4.26 C
1346 04-03-2019 16:05:00 7.4 C 81 % 4.36 C
1347 04-03-2019 16:10:00 7.4 C 81 % 4.36 C
1348 04-03-2019 16:15:00 7.6 C 81 % 4.55 C
1349 04-03-2019 16:20:00 7.6 C 80 % 4.38 C
1350 04-03-2019 16:25:00 7.6 C 80 % 4.38 C
Sensor: Nr:Datum:Temp:Feuchte:Taupunkt:
Aussen-T/F 1351 04-03-2019 16:30:00 7.6 C 79 % 4.2 C
1352 04-03-2019 16:35:00 7.6 C 79 % 4.2 C
1353 04-03-2019 16:40:00 7.6 C 78 % 4.02 C
1354 04-03-2019 16:45:00 7.6 C 79 % 4.2 C
1355 04-03-2019 16:50:00 7.6 C 79 % 4.2 C
1356 04-03-2019 16:55:00 7.6 C 78 % 4.02 C
1357 04-03-2019 17:00:00 7.6 C 78 % 4.02 C
1358 04-03-2019 17:05:00 7.6 C 78 % 4.02 C
1359 04-03-2019 17:10:00 7.6 C 78 % 4.02 C
1360 04-03-2019 17:15:00 7.5 C 79 % 4.1 C
1361 04-03-2019 17:20:00 7.4 C 78 % 3.82 C
1362 04-03-2019 17:25:00 7.4 C 79 % 4 C
1363 04-03-2019 17:30:00 7.3 C 79 % 3.91 C
1364 04-03-2019 17:35:00 7.3 C 79 % 3.91 C
1365 04-03-2019 17:40:00 7.3 C 79 % 3.91 C
1366 04-03-2019 17:45:00 7.3 C 79 % 3.91 C
1367 04-03-2019 17:50:00 7.3 C 79 % 3.91 C
1368 04-03-2019 17:55:00 7.2 C 79 % 3.81 C
1369 04-03-2019 18:00:00 7.2 C 79 % 3.81 C
1370 04-03-2019 18:05:00 7.2 C 80 % 3.99 C
1371 04-03-2019 18:10:00 7.1 C 80 % 3.89 C
1372 04-03-2019 18:15:00 7 C 80 % 3.79 C
1373 04-03-2019 18:20:00 6.9 C 81 % 3.87 C
1374 04-03-2019 18:25:00 6.9 C 81 % 3.87 C
1375 04-03-2019 18:30:00 7 C 80 % 3.79 C
Sensor: Nr:Datum:Temp:Feuchte:Taupunkt:
Aussen-T/F 1376 04-03-2019 18:35:00 6.9 C 80 % 3.7 C
1377 04-03-2019 18:40:00 6.9 C 81 % 3.87 C
1378 04-03-2019 18:45:00 6.8 C 81 % 3.77 C
1379 04-03-2019 18:50:00 6.8 C 81 % 3.77 C
1380 04-03-2019 18:55:00 6.9 C 81 % 3.87 C
1381 04-03-2019 19:00:00 6.9 C 81 % 3.87 C
1382 04-03-2019 19:05:00 6.9 C 81 % 3.87 C
1383 04-03-2019 19:10:00 6.9 C 81 % 3.87 C
1384 04-03-2019 19:15:00 6.9 C 81 % 3.87 C
1385 04-03-2019 19:20:00 6.9 C 81 % 3.87 C
1386 04-03-2019 19:25:00 6.9 C 81 % 3.87 C
1387 04-03-2019 19:30:00 6.9 C 81 % 3.87 C
1388 04-03-2019 19:35:00 6.9 C 82 % 4.05 C
1389 04-03-2019 19:40:00 6.8 C 82 % 3.95 C
1390 04-03-2019 19:45:00 6.8 C 82 % 3.95 C
1391 04-03-2019 19:50:00 6.8 C 82 % 3.95 C
1392 04-03-2019 19:55:00 6.8 C 82 % 3.95 C
1393 04-03-2019 20:00:00 6.9 C 82 % 4.05 C
1394 04-03-2019 20:05:00 6.9 C 82 % 4.05 C
1395 04-03-2019 20:10:00 6.9 C 82 % 4.05 C
1396 04-03-2019 20:15:00 7 C 81 % 3.97 C
1397 04-03-2019 20:20:00 7.1 C 81 % 4.07 C
1398 04-03-2019 20:25:00 7.1 C 81 % 4.07 C
1399 04-03-2019 20:30:00 7.1 C 81 % 4.07 C
1400 04-03-2019 20:35:00 7.1 C 81 % 4.07 C
Sensor: Nr:Datum:Temp:Feuchte:Taupunkt:
Aussen-T/F 1401 04-03-2019 20:40:00 6.9 C 81 % 3.87 C
1402 04-03-2019 20:45:00 6.9 C 82 % 4.05 C
1403 04-03-2019 20:50:00 6.8 C 82 % 3.95 C
1404 04-03-2019 20:55:00 6.7 C 82 % 3.85 C
1405 04-03-2019 21:00:00 6.6 C 83 % 3.92 C
1406 04-03-2019 21:05:00 6.6 C 82 % 3.75 C
1407 04-03-2019 21:10:00 6.6 C 83 % 3.92 C
1408 04-03-2019 21:15:00 6.6 C 83 % 3.92 C
1409 04-03-2019 21:20:00 6.6 C 83 % 3.92 C
1410 04-03-2019 21:25:00 6.6 C 83 % 3.92 C
1411 04-03-2019 21:30:00 6.6 C 83 % 3.92 C
1412 04-03-2019 21:35:00 6.6 C 83 % 3.92 C
1413 04-03-2019 21:40:00 6.6 C 84 % 4.1 C
1414 04-03-2019 21:45:00 6.6 C 84 % 4.1 C
1415 04-03-2019 21:50:00 6.7 C 84 % 4.19 C
1416 04-03-2019 21:55:00 6.7 C 84 % 4.19 C
1417 04-03-2019 22:00:00 6.9 C 85 % 4.56 C
1418 04-03-2019 22:05:00 7 C 85 % 4.66 C
1419 04-03-2019 22:10:00 7.1 C 84 % 4.58 C
1420 04-03-2019 22:15:00 7.1 C 83 % 4.41 C
1421 04-03-2019 22:20:00 7.2 C 82 % 4.34 C
1422 04-03-2019 22:25:00 7.1 C 82 % 4.24 C
1423 04-03-2019 22:30:00 7.1 C 82 % 4.24 C
1424 04-03-2019 22:35:00 7.1 C 82 % 4.24 C
1425 04-03-2019 22:40:00 7.1 C 82 % 4.24 C
Sensor: Nr:Datum:Temp:Feuchte:Taupunkt:
Aussen-T/F 1426 04-03-2019 22:45:00 7.2 C 82 % 4.34 C
1427 04-03-2019 22:50:00 7.1 C 82 % 4.24 C
1428 04-03-2019 22:55:00 7.1 C 82 % 4.24 C
1429 04-03-2019 23:00:00 7.1 C 82 % 4.24 C
1430 04-03-2019 23:05:00 7.1 C 82 % 4.24 C
1431 04-03-2019 23:10:00 6.9 C 82 % 4.05 C
1432 04-03-2019 23:15:00 6.8 C 83 % 4.12 C
1433 04-03-2019 23:20:00 6.7 C 83 % 4.02 C
1434 04-03-2019 23:25:00 6.6 C 84 % 4.1 C
1435 04-03-2019 23:30:00 6.6 C 84 % 4.1 C
1436 04-03-2019 23:35:00 6.5 C 85 % 4.17 C
1437 04-03-2019 23:40:00 6.5 C 85 % 4.17 C
1438 04-03-2019 23:45:00 6.5 C 85 % 4.17 C
1439 04-03-2019 23:50:00 6.5 C 85 % 4.17 C
1440 04-03-2019 23:55:00 6.6 C 84 % 4.1 C
1441 05-03-2019 00:00:00 6.6 C 84 % 4.1 C
1442 05-03-2019 00:05:00 6.6 C 84 % 4.1 C
1443 05-03-2019 00:10:00 6.7 C 83 % 4.02 C
1444 05-03-2019 00:15:00 6.8 C 83 % 4.12 C
1445 05-03-2019 00:20:00 6.9 C 82 % 4.05 C
1446 05-03-2019 00:25:00 6.9 C 81 % 3.87 C
1447 05-03-2019 00:30:00 7 C 81 % 3.97 C
1448 05-03-2019 00:35:00 7 C 80 % 3.79 C
1449 05-03-2019 00:40:00 7 C 80 % 3.79 C
1450 05-03-2019 00:45:00 7 C 80 % 3.79 C
Sensor: Nr:Datum:Temp:Feuchte:Taupunkt:
Aussen-T/F 1451 05-03-2019 00:50:00 7 C 80 % 3.79 C
1452 05-03-2019 00:55:00 7 C 80 % 3.79 C
1453 05-03-2019 01:00:00 6.9 C 80 % 3.7 C
1454 05-03-2019 01:05:00 6.9 C 80 % 3.7 C
1455 05-03-2019 01:10:00 6.9 C 80 % 3.7 C
1456 05-03-2019 01:15:00 6.9 C 81 % 3.87 C
1457 05-03-2019 01:20:00 6.9 C 80 % 3.7 C
1458 05-03-2019 01:25:00 6.9 C 81 % 3.87 C
1459 05-03-2019 01:30:00 6.8 C 81 % 3.77 C
1460 05-03-2019 01:35:00 6.8 C 81 % 3.77 C
1461 05-03-2019 01:40:00 6.9 C 81 % 3.87 C
1462 05-03-2019 01:45:00 6.9 C 81 % 3.87 C
1463 05-03-2019 01:50:00 6.9 C 80 % 3.7 C
1464 05-03-2019 01:55:00 6.8 C 80 % 3.6 C
1465 05-03-2019 02:00:00 6.8 C 80 % 3.6 C
1466 05-03-2019 02:05:00 6.8 C 80 % 3.6 C
1467 05-03-2019 02:10:00 6.8 C 80 % 3.6 C
1468 05-03-2019 02:15:00 6.8 C 80 % 3.6 C
1469 05-03-2019 02:20:00 6.7 C 80 % 3.5 C
1470 05-03-2019 02:25:00 6.8 C 80 % 3.6 C
1471 05-03-2019 02:30:00 6.8 C 80 % 3.6 C
1472 05-03-2019 02:35:00 6.8 C 79 % 3.42 C
1473 05-03-2019 02:40:00 6.8 C 80 % 3.6 C
1474 05-03-2019 02:45:00 6.8 C 80 % 3.6 C
1475 05-03-2019 02:50:00 6.8 C 80 % 3.6 C
Sensor: Nr:Datum:Temp:Feuchte:Taupunkt:
Aussen-T/F 1476 05-03-2019 02:55:00 6.8 C 80 % 3.6 C
1477 05-03-2019 03:00:00 6.8 C 80 % 3.6 C
1478 05-03-2019 03:05:00 6.8 C 80 % 3.6 C
1479 05-03-2019 03:10:00 6.8 C 80 % 3.6 C
1480 05-03-2019 03:15:00 6.8 C 80 % 3.6 C
1481 05-03-2019 03:20:00 6.8 C 80 % 3.6 C
1482 05-03-2019 03:25:00 6.8 C 80 % 3.6 C
1483 05-03-2019 03:30:00 6.8 C 81 % 3.77 C
1484 05-03-2019 03:35:00 6.8 C 81 % 3.77 C
1485 05-03-2019 03:40:00 6.7 C 81 % 3.68 C
1486 05-03-2019 03:45:00 6.6 C 81 % 3.58 C
1487 05-03-2019 03:50:00 6.6 C 81 % 3.58 C
1488 05-03-2019 03:55:00 6.6 C 81 % 3.58 C
1489 05-03-2019 04:00:00 6.6 C 81 % 3.58 C
1490 05-03-2019 04:05:00 6.4 C 81 % 3.38 C
1491 05-03-2019 04:10:00 6.4 C 81 % 3.38 C
1492 05-03-2019 04:15:00 6.4 C 81 % 3.38 C
1493 05-03-2019 04:20:00 6.4 C 81 % 3.38 C
1494 05-03-2019 04:25:00 6.4 C 81 % 3.38 C
1495 05-03-2019 04:30:00 6.4 C 81 % 3.38 C
1496 05-03-2019 04:35:00 6.4 C 81 % 3.38 C
1497 05-03-2019 04:40:00 6.4 C 81 % 3.38 C
1498 05-03-2019 04:45:00 6.4 C 81 % 3.38 C
1499 05-03-2019 04:50:00 6.4 C 81 % 3.38 C
1500 05-03-2019 04:55:00 6.5 C 80 % 3.31 C
Sensor: Nr:Datum:Temp:Feuchte:Taupunkt:
Aussen-T/F 1501 05-03-2019 05:00:00 6.5 C 81 % 3.48 C
1502 05-03-2019 05:05:00 6.5 C 80 % 3.31 C
1503 05-03-2019 05:10:00 6.4 C 81 % 3.38 C
1504 05-03-2019 05:15:00 6.4 C 81 % 3.38 C
1505 05-03-2019 05:20:00 6.3 C 81 % 3.29 C
1506 05-03-2019 05:25:00 6.3 C 81 % 3.29 C
1507 05-03-2019 05:30:00 6.3 C 81 % 3.29 C
1508 05-03-2019 05:35:00 6.3 C 81 % 3.29 C
1509 05-03-2019 05:40:00 6.3 C 81 % 3.29 C
1510 05-03-2019 05:45:00 6.3 C 81 % 3.29 C
1511 05-03-2019 05:50:00 6.3 C 81 % 3.29 C
1512 05-03-2019 05:55:00 6.3 C 81 % 3.29 C
1513 05-03-2019 06:00:00 6.3 C 80 % 3.11 C
1514 05-03-2019 06:05:00 6.3 C 80 % 3.11 C
1515 05-03-2019 06:10:00 6.3 C 80 % 3.11 C
1516 05-03-2019 06:15:00 6.3 C 79 % 2.93 C
1517 05-03-2019 06:20:00 6.2 C 80 % 3.01 C
1518 05-03-2019 06:25:00 6.2 C 80 % 3.01 C
1519 05-03-2019 06:30:00 6.1 C 80 % 2.92 C
1520 05-03-2019 06:35:00 6.2 C 80 % 3.01 C
1521 05-03-2019 06:40:00 6.2 C 80 % 3.01 C
1522 05-03-2019 06:45:00 6.2 C 80 % 3.01 C
1523 05-03-2019 06:50:00 6.3 C 79 % 2.93 C
1524 05-03-2019 06:55:00 6.3 C 79 % 2.93 C
1525 05-03-2019 07:00:00 6.3 C 79 % 2.93 C
Sensor: Nr:Datum:Temp:Feuchte:Taupunkt:
Aussen-T/F 1526 05-03-2019 07:05:00 6.3 C 79 % 2.93 C
1527 05-03-2019 07:10:00 6.3 C 80 % 3.11 C
1528 05-03-2019 07:15:00 6.3 C 80 % 3.11 C
1529 05-03-2019 07:20:00 6.4 C 80 % 3.21 C
1530 05-03-2019 07:25:00 6.4 C 79 % 3.03 C
1531 05-03-2019 07:30:00 6.5 C 79 % 3.13 C
1532 05-03-2019 07:35:00 6.6 C 79 % 3.23 C
1533 05-03-2019 07:40:00 6.6 C 79 % 3.23 C
1534 05-03-2019 07:45:00 6.6 C 79 % 3.23 C
1535 05-03-2019 07:50:00 6.7 C 79 % 3.32 C
1536 05-03-2019 07:55:00 6.7 C 79 % 3.32 C
1537 05-03-2019 08:00:00 6.7 C 80 % 3.5 C
1538 05-03-2019 08:05:00 6.6 C 80 % 3.4 C
1539 05-03-2019 08:10:00 6.6 C 80 % 3.4 C
1540 05-03-2019 08:15:00 6.6 C 80 % 3.4 C
1541 05-03-2019 08:20:00 6.6 C 80 % 3.4 C
1542 05-03-2019 08:25:00 6.6 C 80 % 3.4 C
1543 05-03-2019 08:30:00 6.6 C 80 % 3.4 C
1544 05-03-2019 08:35:00 6.7 C 81 % 3.68 C
1545 05-03-2019 08:40:00 6.7 C 80 % 3.5 C
1546 05-03-2019 08:45:00 6.7 C 80 % 3.5 C
1547 05-03-2019 08:50:00 6.7 C 80 % 3.5 C
1548 05-03-2019 08:55:00 6.6 C 82 % 3.75 C
1549 05-03-2019 09:00:00 6.6 C 83 % 3.92 C
1550 05-03-2019 09:05:00 6.5 C 83 % 3.83 C
Sensor: Nr:Datum:Temp:Feuchte:Taupunkt:
Aussen-T/F 1551 05-03-2019 09:10:00 6.5 C 82 % 3.66 C
1552 05-03-2019 09:15:00 6.6 C 82 % 3.75 C
1553 05-03-2019 09:20:00 6.6 C 82 % 3.75 C
1554 05-03-2019 09:25:00 6.6 C 83 % 3.92 C
1555 05-03-2019 09:30:00 6.6 C 83 % 3.92 C
1556 05-03-2019 09:35:00 6.5 C 84 % 4 C
1557 05-03-2019 09:40:00 6.4 C 84 % 3.9 C
1558 05-03-2019 09:45:00 6.4 C 84 % 3.9 C
1559 05-03-2019 09:50:00 6.4 C 85 % 4.07 C
1560 05-03-2019 09:55:00 6.4 C 85 % 4.07 C
1561 05-03-2019 10:00:00 6.4 C 85 % 4.07 C
1562 05-03-2019 10:05:00 6.5 C 85 % 4.17 C
1563 05-03-2019 10:10:00 6.5 C 86 % 4.33 C
1564 05-03-2019 10:15:00 6.6 C 86 % 4.43 C
1565 05-03-2019 10:20:00 6.6 C 85 % 4.26 C
1566 05-03-2019 10:25:00 6.6 C 85 % 4.26 C
1567 05-03-2019 10:30:00 6.7 C 85 % 4.36 C
1568 05-03-2019 10:35:00 6.7 C 85 % 4.36 C
1569 05-03-2019 10:40:00 6.7 C 85 % 4.36 C
1570 05-03-2019 10:45:00 6.7 C 85 % 4.36 C
1571 05-03-2019 10:50:00 6.7 C 85 % 4.36 C
1572 05-03-2019 10:55:00 6.8 C 85 % 4.46 C
1573 05-03-2019 11:00:00 6.8 C 85 % 4.46 C
1574 05-03-2019 11:05:00 6.9 C 85 % 4.56 C
1575 05-03-2019 11:10:00 6.9 C 85 % 4.56 C
Sensor: Nr:Datum:Temp:Feuchte:Taupunkt:
Aussen-T/F 1576 05-03-2019 11:15:00 6.9 C 85 % 4.56 C
1577 05-03-2019 11:20:00 6.9 C 84 % 4.39 C
1578 05-03-2019 11:25:00 7 C 85 % 4.66 C
1579 05-03-2019 11:30:00 7 C 85 % 4.66 C
1580 05-03-2019 11:35:00 7 C 84 % 4.49 C
1581 05-03-2019 11:40:00 7.1 C 84 % 4.58 C
1582 05-03-2019 11:45:00 7.1 C 84 % 4.58 C
1583 05-03-2019 11:50:00 7.1 C 83 % 4.41 C
1584 05-03-2019 11:55:00 7.2 C 83 % 4.51 C
1585 05-03-2019 12:00:00 7.2 C 83 % 4.51 C
1586 05-03-2019 12:05:00 7.2 C 83 % 4.51 C
1587 05-03-2019 12:10:00 7.3 C 82 % 4.44 C
1588 05-03-2019 12:15:00 7.3 C 82 % 4.44 C
1589 05-03-2019 12:20:00 7.3 C 81 % 4.26 C
1590 05-03-2019 12:25:00 7.3 C 81 % 4.26 C
1591 05-03-2019 12:30:00 7.3 C 81 % 4.26 C
1592 05-03-2019 12:35:00 7.3 C 81 % 4.26 C
1593 05-03-2019 12:40:00 7.3 C 81 % 4.26 C
1594 05-03-2019 12:45:00 7.3 C 81 % 4.26 C
1595 05-03-2019 12:50:00 7.4 C 82 % 4.53 C
1596 05-03-2019 12:55:00 7.4 C 81 % 4.36 C
1597 05-03-2019 13:00:00 7.5 C 81 % 4.46 C
1598 05-03-2019 13:05:00 7.6 C 81 % 4.55 C
1599 05-03-2019 13:10:00 7.7 C 81 % 4.65 C
1600 05-03-2019 13:15:00 7.8 C 80 % 4.57 C
Sensor: Nr:Datum:Temp:Feuchte:Taupunkt:
Aussen-T/F 1601 05-03-2019 13:20:00 7.9 C 80 % 4.67 C
1602 05-03-2019 13:25:00 8 C 80 % 4.77 C
1603 05-03-2019 13:30:00 8.1 C 80 % 4.86 C
1604 05-03-2019 13:35:00 8.1 C 79 % 4.68 C
1605 05-03-2019 13:40:00 8.2 C 79 % 4.78 C
1606 05-03-2019 13:45:00 8.2 C 79 % 4.78 C
1607 05-03-2019 13:50:00 8.2 C 79 % 4.78 C
1608 05-03-2019 13:55:00 8.3 C 78 % 4.7 C
1609 05-03-2019 14:00:00 8.3 C 78 % 4.7 C
1610 05-03-2019 14:05:00 8.3 C 78 % 4.7 C
1611 05-03-2019 14:10:00 8.5 C 78 % 4.89 C
1612 05-03-2019 14:15:00 8.6 C 78 % 4.99 C
1613 05-03-2019 14:20:00 8.7 C 78 % 5.08 C
1614 05-03-2019 14:25:00 8.7 C 78 % 5.08 C
1615 05-03-2019 14:30:00 8.7 C 78 % 5.08 C
1616 05-03-2019 14:35:00 8.8 C 77 % 5 C
1617 05-03-2019 14:40:00 8.8 C 77 % 5 C
1618 05-03-2019 14:45:00 8.8 C 77 % 5 C
1619 05-03-2019 14:50:00 8.8 C 76 % 4.81 C
1620 05-03-2019 14:55:00 8.8 C 77 % 5 C
1621 05-03-2019 15:00:00 8.8 C 76 % 4.81 C
1622 05-03-2019 15:05:00 8.8 C 76 % 4.81 C
1623 05-03-2019 15:10:00 8.8 C 76 % 4.81 C
1624 05-03-2019 15:15:00 8.9 C 76 % 4.91 C
1625 05-03-2019 15:20:00 8.8 C 76 % 4.81 C
Sensor: Nr:Datum:Temp:Feuchte:Taupunkt:
Aussen-T/F 1626 05-03-2019 15:25:00 8.9 C 76 % 4.91 C
1627 05-03-2019 15:30:00 9 C 75 % 4.81 C
1628 05-03-2019 15:35:00 9.1 C 74 % 4.72 C
1629 05-03-2019 15:40:00 9.1 C 73 % 4.52 C
1630 05-03-2019 15:45:00 9.1 C 73 % 4.52 C
1631 05-03-2019 15:50:00 9.1 C 74 % 4.72 C
1632 05-03-2019 15:55:00 9.1 C 74 % 4.72 C
1633 05-03-2019 16:00:00 9.1 C 75 % 4.91 C
1634 05-03-2019 16:05:00 9.1 C 76 % 5.1 C
1635 05-03-2019 16:10:00 9.2 C 76 % 5.2 C
1636 05-03-2019 16:15:00 9.5 C 74 % 5.1 C
1637 05-03-2019 16:20:00 9.9 C 72 % 5.1 C
1638 05-03-2019 16:25:00 10.1 C 71 % 5.09 C
1639 05-03-2019 16:30:00 10.1 C 71 % 5.09 C
1640 05-03-2019 16:35:00 10.1 C 71 % 5.09 C
1641 05-03-2019 16:40:00 10.1 C 72 % 5.29 C
1642 05-03-2019 16:45:00 10.1 C 72 % 5.29 C
1643 05-03-2019 16:50:00 10.2 C 71 % 5.18 C
1644 05-03-2019 16:55:00 10.3 C 72 % 5.48 C
1645 05-03-2019 17:00:00 10.3 C 71 % 5.28 C
1646 05-03-2019 17:05:00 10.1 C 72 % 5.29 C
1647 05-03-2019 17:10:00 10.1 C 72 % 5.29 C
1648 05-03-2019 17:15:00 10.1 C 73 % 5.49 C
1649 05-03-2019 17:20:00 10 C 71 % 4.99 C
1650 05-03-2019 17:25:00 9.7 C 72 % 4.9 C
Sensor: Nr:Datum:Temp:Feuchte:Taupunkt:
Aussen-T/F 1651 05-03-2019 17:30:00 9.3 C 74 % 4.91 C
1652 05-03-2019 17:35:00 9.1 C 75 % 4.91 C
1653 05-03-2019 17:40:00 8.7 C 76 % 4.71 C
1654 05-03-2019 17:45:00 8.4 C 77 % 4.61 C
1655 05-03-2019 17:50:00 8.2 C 78 % 4.6 C
1656 05-03-2019 17:55:00 8.1 C 79 % 4.68 C
1657 05-03-2019 18:00:00 7.8 C 79 % 4.39 C
1658 05-03-2019 18:05:00 7.7 C 80 % 4.47 C
1659 05-03-2019 18:10:00 7.5 C 80 % 4.28 C
1660 05-03-2019 18:15:00 7.3 C 81 % 4.26 C
1661 05-03-2019 18:20:00 7.2 C 81 % 4.16 C
1662 05-03-2019 18:25:00 7.1 C 81 % 4.07 C
1663 05-03-2019 18:30:00 7 C 81 % 3.97 C
1664 05-03-2019 18:35:00 6.9 C 81 % 3.87 C
1665 05-03-2019 18:40:00 6.8 C 81 % 3.77 C
1666 05-03-2019 18:45:00 6.8 C 81 % 3.77 C
1667 05-03-2019 18:50:00 6.8 C 81 % 3.77 C
1668 05-03-2019 18:55:00 6.7 C 81 % 3.68 C
1669 05-03-2019 19:00:00 6.7 C 82 % 3.85 C
1670 05-03-2019 19:05:00 6.6 C 82 % 3.75 C
1671 05-03-2019 19:10:00 6.7 C 82 % 3.85 C
1672 05-03-2019 19:15:00 6.7 C 82 % 3.85 C
1673 05-03-2019 19:20:00 6.6 C 82 % 3.75 C
1674 05-03-2019 19:25:00 6.6 C 82 % 3.75 C
1675 05-03-2019 19:30:00 6.6 C 83 % 3.92 C
Sensor: Nr:Datum:Temp:Feuchte:Taupunkt:
Aussen-T/F 1676 05-03-2019 19:35:00 6.6 C 83 % 3.92 C
1677 05-03-2019 19:40:00 6.4 C 83 % 3.73 C
1678 05-03-2019 19:45:00 6.4 C 83 % 3.73 C
1679 05-03-2019 19:50:00 6.4 C 83 % 3.73 C
1680 05-03-2019 19:55:00 6.3 C 83 % 3.63 C
1681 05-03-2019 20:00:00 6.3 C 83 % 3.63 C
1682 05-03-2019 20:05:00 6.2 C 83 % 3.53 C
1683 05-03-2019 20:10:00 6 C 84 % 3.51 C
1684 05-03-2019 20:15:00 5.8 C 84 % 3.31 C
1685 05-03-2019 20:20:00 5.7 C 84 % 3.21 C
1686 05-03-2019 20:25:00 5.5 C 85 % 3.18 C
1687 05-03-2019 20:30:00 5.3 C 85 % 2.99 C
1688 05-03-2019 20:35:00 5.2 C 86 % 3.05 C
1689 05-03-2019 20:40:00 5.1 C 87 % 3.12 C
1690 05-03-2019 20:45:00 5 C 87 % 3.02 C
1691 05-03-2019 20:50:00 4.8 C 87 % 2.82 C
1692 05-03-2019 20:55:00 4.7 C 87 % 2.73 C
1693 05-03-2019 21:00:00 4.6 C 87 % 2.63 C
1694 05-03-2019 21:05:00 4.4 C 88 % 2.59 C
1695 05-03-2019 21:10:00 4.3 C 88 % 2.49 C
1696 05-03-2019 21:15:00 4.2 C 88 % 2.39 C
1697 05-03-2019 21:20:00 4.2 C 89 % 2.55 C
1698 05-03-2019 21:25:00 4.2 C 90 % 2.71 C
1699 05-03-2019 21:30:00 4.2 C 90 % 2.71 C
1700 05-03-2019 21:35:00 4.2 C 90 % 2.71 C
Sensor: Nr:Datum:Temp:Feuchte:Taupunkt:
Aussen-T/F 1701 05-03-2019 21:40:00 4.2 C 91 % 2.87 C
1702 05-03-2019 21:45:00 4.2 C 91 % 2.87 C
1703 05-03-2019 21:50:00 4.3 C 91 % 2.96 C
1704 05-03-2019 21:55:00 4.3 C 91 % 2.96 C
1705 05-03-2019 22:00:00 4.3 C 92 % 3.12 C
1706 05-03-2019 22:05:00 4.4 C 92 % 3.22 C
1707 05-03-2019 22:10:00 4.6 C 92 % 3.42 C
1708 05-03-2019 22:15:00 4.7 C 92 % 3.51 C
1709 05-03-2019 22:20:00 4.7 C 92 % 3.51 C
1710 05-03-2019 22:25:00 4.8 C 92 % 3.61 C
1711 05-03-2019 22:30:00 4.8 C 92 % 3.61 C
1712 05-03-2019 22:35:00 4.8 C 92 % 3.61 C
1713 05-03-2019 22:40:00 4.8 C 92 % 3.61 C
1714 05-03-2019 22:45:00 4.8 C 92 % 3.61 C
1715 05-03-2019 22:50:00 4.9 C 92 % 3.71 C
1716 05-03-2019 22:55:00 4.9 C 92 % 3.71 C
1717 05-03-2019 23:00:00 4.9 C 92 % 3.71 C
1718 05-03-2019 23:05:00 5 C 92 % 3.81 C
1719 05-03-2019 23:10:00 5.1 C 92 % 3.91 C
1720 05-03-2019 23:15:00 5.2 C 92 % 4.01 C
1721 05-03-2019 23:20:00 5.2 C 92 % 4.01 C
1722 05-03-2019 23:25:00 5.3 C 92 % 4.11 C
1723 05-03-2019 23:30:00 5.4 C 92 % 4.21 C
1724 05-03-2019 23:35:00 5.4 C 92 % 4.21 C
1725 05-03-2019 23:40:00 5.4 C 92 % 4.21 C
Sensor: Nr:Datum:Temp:Feuchte:Taupunkt:
Aussen-T/F 1726 05-03-2019 23:45:00 5.4 C 92 % 4.21 C
1727 05-03-2019 23:50:00 5.4 C 92 % 4.21 C
1728 05-03-2019 23:55:00 5.5 C 92 % 4.31 C
1729 06-03-2019 00:00:00 5.5 C 92 % 4.31 C
1730 06-03-2019 00:05:00 5.5 C 92 % 4.31 C
1731 06-03-2019 00:10:00 5.5 C 92 % 4.31 C
1732 06-03-2019 00:15:00 5.6 C 92 % 4.41 C
1733 06-03-2019 00:20:00 5.6 C 92 % 4.41 C
1734 06-03-2019 00:25:00 5.6 C 92 % 4.41 C
1735 06-03-2019 00:30:00 5.7 C 91 % 4.35 C
1736 06-03-2019 00:35:00 5.7 C 91 % 4.35 C
1737 06-03-2019 00:40:00 5.7 C 91 % 4.35 C
1738 06-03-2019 00:45:00 5.7 C 91 % 4.35 C
1739 06-03-2019 00:50:00 5.8 C 92 % 4.6 C
1740 06-03-2019 00:55:00 5.9 C 92 % 4.7 C
1741 06-03-2019 01:00:00 5.9 C 92 % 4.7 C
1742 06-03-2019 01:05:00 6.1 C 92 % 4.9 C
1743 06-03-2019 01:10:00 6.1 C 92 % 4.9 C
1744 06-03-2019 01:15:00 6.1 C 91 % 4.74 C
1745 06-03-2019 01:20:00 6.1 C 91 % 4.74 C
1746 06-03-2019 01:25:00 6.1 C 91 % 4.74 C
1747 06-03-2019 01:30:00 6.1 C 91 % 4.74 C
1748 06-03-2019 01:35:00 6.1 C 91 % 4.74 C
1749 06-03-2019 01:40:00 6.1 C 92 % 4.9 C
1750 06-03-2019 01:45:00 6.2 C 92 % 5 C
Sensor: Nr:Datum:Temp:Feuchte:Taupunkt:
Aussen-T/F 1751 06-03-2019 01:50:00 6.4 C 92 % 5.2 C
1752 06-03-2019 01:55:00 6.5 C 92 % 5.3 C
1753 06-03-2019 02:00:00 6.7 C 91 % 5.34 C
1754 06-03-2019 02:05:00 6.8 C 91 % 5.44 C
1755 06-03-2019 02:10:00 6.8 C 91 % 5.44 C
1756 06-03-2019 02:15:00 6.9 C 90 % 5.38 C
1757 06-03-2019 02:20:00 7 C 90 % 5.48 C
1758 06-03-2019 02:25:00 7.1 C 90 % 5.57 C
1759 06-03-2019 02:30:00 7.1 C 90 % 5.57 C
1760 06-03-2019 02:35:00 7.2 C 89 % 5.51 C
1761 06-03-2019 02:40:00 7.2 C 89 % 5.51 C
1762 06-03-2019 02:45:00 7.2 C 89 % 5.51 C
1763 06-03-2019 02:50:00 7.2 C 89 % 5.51 C
1764 06-03-2019 02:55:00 7.2 C 89 % 5.51 C
1765 06-03-2019 03:00:00 7.2 C 89 % 5.51 C
1766 06-03-2019 03:05:00 7.2 C 89 % 5.51 C
1767 06-03-2019 03:10:00 7.2 C 89 % 5.51 C
1768 06-03-2019 03:15:00 7.1 C 89 % 5.41 C
1769 06-03-2019 03:20:00 7.1 C 89 % 5.41 C
1770 06-03-2019 03:25:00 7 C 89 % 5.31 C
1771 06-03-2019 03:30:00 6.9 C 90 % 5.38 C
1772 06-03-2019 03:35:00 6.9 C 90 % 5.38 C
1773 06-03-2019 03:40:00 6.9 C 90 % 5.38 C
1774 06-03-2019 03:45:00 6.9 C 90 % 5.38 C
1775 06-03-2019 03:50:00 6.8 C 90 % 5.28 C
Sensor: Nr:Datum:Temp:Feuchte:Taupunkt:
Aussen-T/F 1776 06-03-2019 03:55:00 6.8 C 90 % 5.28 C
1777 06-03-2019 04:00:00 6.8 C 91 % 5.44 C
1778 06-03-2019 04:05:00 6.8 C 91 % 5.44 C
1779 06-03-2019 04:10:00 6.8 C 91 % 5.44 C
1780 06-03-2019 04:15:00 6.8 C 91 % 5.44 C
1781 06-03-2019 04:20:00 6.7 C 91 % 5.34 C
1782 06-03-2019 04:25:00 6.7 C 91 % 5.34 C
1783 06-03-2019 04:30:00 6.6 C 91 % 5.24 C
1784 06-03-2019 04:35:00 6.7 C 91 % 5.34 C
1785 06-03-2019 04:40:00 6.8 C 92 % 5.59 C
1786 06-03-2019 04:45:00 6.9 C 91 % 5.54 C
1787 06-03-2019 04:50:00 7.1 C 91 % 5.73 C
1788 06-03-2019 04:55:00 7.1 C 90 % 5.57 C
1789 06-03-2019 05:00:00 7.2 C 90 % 5.67 C
1790 06-03-2019 05:05:00 7.2 C 90 % 5.67 C
1791 06-03-2019 05:10:00 7.3 C 90 % 5.77 C
1792 06-03-2019 05:15:00 7.3 C 89 % 5.61 C
1793 06-03-2019 05:20:00 7.3 C 89 % 5.61 C
1794 06-03-2019 05:25:00 7.3 C 89 % 5.61 C
1795 06-03-2019 05:30:00 7.2 C 89 % 5.51 C
1796 06-03-2019 05:35:00 7.2 C 89 % 5.51 C
1797 06-03-2019 05:40:00 7.1 C 89 % 5.41 C
1798 06-03-2019 05:45:00 7.1 C 89 % 5.41 C
1799 06-03-2019 05:50:00 7 C 89 % 5.31 C
1800 06-03-2019 05:55:00 6.9 C 89 % 5.22 C
Sensor: Nr:Datum:Temp:Feuchte:Taupunkt:
Aussen-T/F 1801 06-03-2019 06:00:00 6.8 C 89 % 5.12 C
1802 06-03-2019 06:05:00 6.8 C 90 % 5.28 C
1803 06-03-2019 06:10:00 6.8 C 90 % 5.28 C
1804 06-03-2019 06:15:00 6.8 C 90 % 5.28 C
1805 06-03-2019 06:20:00 6.7 C 89 % 5.02 C
1806 06-03-2019 06:25:00 6.6 C 89 % 4.92 C
1807 06-03-2019 06:30:00 6.4 C 89 % 4.72 C
1808 06-03-2019 06:35:00 6.2 C 89 % 4.53 C
1809 06-03-2019 06:40:00 6 C 89 % 4.33 C
1810 06-03-2019 06:45:00 5.9 C 90 % 4.39 C
1811 06-03-2019 06:50:00 5.9 C 91 % 4.55 C
1812 06-03-2019 06:55:00 6 C 91 % 4.65 C
1813 06-03-2019 07:00:00 5.9 C 90 % 4.39 C
1814 06-03-2019 07:05:00 5.8 C 90 % 4.29 C
1815 06-03-2019 07:10:00 5.6 C 90 % 4.09 C
1816 06-03-2019 07:15:00 5.4 C 90 % 3.89 C
1817 06-03-2019 07:20:00 5.4 C 91 % 4.05 C
1818 06-03-2019 07:25:00 5.3 C 91 % 3.95 C
1819 06-03-2019 07:30:00 5.3 C 92 % 4.11 C
1820 06-03-2019 07:35:00 5.3 C 92 % 4.11 C
1821 06-03-2019 07:40:00 5.3 C 92 % 4.11 C
1822 06-03-2019 07:45:00 5.3 C 92 % 4.11 C
1823 06-03-2019 07:50:00 5.3 C 92 % 4.11 C
1824 06-03-2019 07:55:00 5.4 C 93 % 4.36 C
1825 06-03-2019 08:00:00 5.4 C 93 % 4.36 C
Sensor: Nr:Datum:Temp:Feuchte:Taupunkt:
Aussen-T/F 1826 06-03-2019 08:05:00 5.6 C 93 % 4.56 C
1827 06-03-2019 08:10:00 5.8 C 93 % 4.76 C
1828 06-03-2019 08:15:00 5.9 C 93 % 4.86 C
1829 06-03-2019 08:20:00 6.1 C 93 % 5.06 C
1830 06-03-2019 08:25:00 6.3 C 92 % 5.1 C
1831 06-03-2019 08:30:00 6.5 C 91 % 5.14 C
1832 06-03-2019 08:35:00 6.7 C 91 % 5.34 C
1833 06-03-2019 08:40:00 6.9 C 90 % 5.38 C
1834 06-03-2019 08:45:00 7.2 C 88 % 5.35 C
1835 06-03-2019 08:50:00 7.3 C 88 % 5.45 C
1836 06-03-2019 08:55:00 7.5 C 87 % 5.48 C
1837 06-03-2019 09:00:00 7.6 C 86 % 5.41 C
1838 06-03-2019 09:05:00 7.7 C 86 % 5.51 C
1839 06-03-2019 09:10:00 7.8 C 86 % 5.61 C
1840 06-03-2019 09:15:00 7.9 C 85 % 5.54 C
1841 06-03-2019 09:20:00 8 C 85 % 5.64 C
1842 06-03-2019 09:25:00 8.1 C 85 % 5.73 C
1843 06-03-2019 09:30:00 8.2 C 84 % 5.66 C
1844 06-03-2019 09:35:00 8.3 C 84 % 5.76 C
1845 06-03-2019 09:40:00 8.4 C 83 % 5.69 C
1846 06-03-2019 09:45:00 8.5 C 83 % 5.78 C
1847 06-03-2019 09:50:00 8.6 C 83 % 5.88 C
1848 06-03-2019 09:55:00 8.8 C 82 % 5.9 C
1849 06-03-2019 10:00:00 8.9 C 82 % 6 C
1850 06-03-2019 10:05:00 9.2 C 81 % 6.11 C
Sensor: Nr:Datum:Temp:Feuchte:Taupunkt:
Aussen-T/F 1851 06-03-2019 10:10:00 9.3 C 80 % 6.03 C
1852 06-03-2019 10:15:00 9.6 C 79 % 6.14 C
1853 06-03-2019 10:20:00 9.7 C 78 % 6.06 C
1854 06-03-2019 10:25:00 9.9 C 77 % 6.06 C
1855 06-03-2019 10:30:00 10.2 C 76 % 6.16 C
1856 06-03-2019 10:35:00 10.4 C 73 % 5.78 C
1857 06-03-2019 10:40:00 10.6 C 73 % 5.97 C
1858 06-03-2019 10:45:00 10.7 C 73 % 6.07 C
1859 06-03-2019 10:50:00 10.8 C 72 % 5.96 C
1860 06-03-2019 10:55:00 10.8 C 72 % 5.96 C
1861 06-03-2019 11:00:00 10.9 C 71 % 5.86 C
1862 06-03-2019 11:05:00 11.1 C 70 % 5.84 C
1863 06-03-2019 11:10:00 11.3 C 69 % 5.83 C
1864 06-03-2019 11:15:00 11.6 C 68 % 5.9 C
1865 06-03-2019 11:20:00 11.8 C 67 % 5.88 C
1866 06-03-2019 11:25:00 12.1 C 66 % 5.95 C
1867 06-03-2019 11:30:00 12.4 C 65 % 6.01 C
1868 06-03-2019 11:35:00 12.7 C 64 % 6.07 C
1869 06-03-2019 11:40:00 13 C 62 % 5.9 C
1870 06-03-2019 11:45:00 13.3 C 61 % 5.95 C
1871 06-03-2019 11:50:00 13.5 C 62 % 6.37 C
1872 06-03-2019 11:55:00 13.6 C 60 % 5.99 C
1873 06-03-2019 12:00:00 13.6 C 59 % 5.75 C
1874 06-03-2019 12:05:00 13.5 C 58 % 5.41 C
1875 06-03-2019 12:10:00 13.4 C 59 % 5.56 C
Sensor: Nr:Datum:Temp:Feuchte:Taupunkt:
Aussen-T/F 1876 06-03-2019 12:15:00 13.4 C 59 % 5.56 C
1877 06-03-2019 12:20:00 13.3 C 58 % 5.22 C
1878 06-03-2019 12:25:00 13.4 C 60 % 5.8 C
1879 06-03-2019 12:30:00 13.3 C 58 % 5.22 C
1880 06-03-2019 12:35:00 13.2 C 59 % 5.37 C
1881 06-03-2019 12:40:00 13.2 C 59 % 5.37 C
1882 06-03-2019 12:45:00 13.2 C 59 % 5.37 C
1883 06-03-2019 12:50:00 13.1 C 61 % 5.76 C
1884 06-03-2019 12:55:00 13.2 C 62 % 6.09 C
1885 06-03-2019 13:00:00 13.2 C 61 % 5.85 C
1886 06-03-2019 13:05:00 13.2 C 59 % 5.37 C
1887 06-03-2019 13:10:00 13.3 C 60 % 5.71 C
1888 06-03-2019 13:15:00 13.3 C 63 % 6.41 C
1889 06-03-2019 13:20:00 13.4 C 61 % 6.04 C
1890 06-03-2019 13:25:00 13.4 C 60 % 5.8 C
1891 06-03-2019 13:30:00 13.4 C 61 % 6.04 C
1892 06-03-2019 13:35:00 13.4 C 60 % 5.8 C
1893 06-03-2019 13:40:00 13.4 C 62 % 6.28 C
1894 06-03-2019 13:45:00 13.4 C 60 % 5.8 C
1895 06-03-2019 13:50:00 13.5 C 62 % 6.37 C
1896 06-03-2019 13:55:00 13.6 C 63 % 6.7 C
1897 06-03-2019 14:00:00 13.6 C 63 % 6.7 C
1898 06-03-2019 14:05:00 13.6 C 61 % 6.23 C
1899 06-03-2019 14:10:00 13.6 C 62 % 6.47 C
1900 06-03-2019 14:15:00 13.5 C 62 % 6.37 C
Sensor: Nr:Datum:Temp:Feuchte:Taupunkt:
Aussen-T/F 1901 06-03-2019 14:20:00 13.5 C 62 % 6.37 C
1902 06-03-2019 14:25:00 13.5 C 62 % 6.37 C
1903 06-03-2019 14:30:00 13.5 C 62 % 6.37 C
1904 06-03-2019 14:35:00 13.6 C 63 % 6.7 C
1905 06-03-2019 14:40:00 13.8 C 62 % 6.65 C
1906 06-03-2019 14:45:00 13.9 C 61 % 6.51 C
1907 06-03-2019 14:50:00 14.1 C 61 % 6.7 C
1908 06-03-2019 14:55:00 14.2 C 60 % 6.56 C
1909 06-03-2019 15:00:00 14.3 C 60 % 6.65 C
1910 06-03-2019 15:05:00 14.4 C 61 % 6.98 C
1911 06-03-2019 15:10:00 14.4 C 60 % 6.74 C
1912 06-03-2019 15:15:00 14.5 C 60 % 6.84 C
1913 06-03-2019 15:20:00 14.6 C 59 % 6.69 C
1914 06-03-2019 15:25:00 14.6 C 58 % 6.44 C
1915 06-03-2019 15:30:00 14.6 C 57 % 6.19 C
1916 06-03-2019 15:35:00 14.6 C 59 % 6.69 C
1917 06-03-2019 15:40:00 14.7 C 59 % 6.78 C
1918 06-03-2019 15:45:00 14.7 C 58 % 6.53 C
1919 06-03-2019 15:50:00 14.7 C 58 % 6.53 C
1920 06-03-2019 15:55:00 14.7 C 56 % 6.02 C
1921 06-03-2019 16:00:00 14.8 C 55 % 5.86 C
1922 06-03-2019 16:05:00 15 C 54 % 5.78 C
1923 06-03-2019 16:10:00 15.1 C 56 % 6.4 C
1924 06-03-2019 16:15:00 15.2 C 56 % 6.49 C
1925 06-03-2019 16:20:00 15.2 C 55 % 6.23 C
Sensor: Nr:Datum:Temp:Feuchte:Taupunkt:
Aussen-T/F 1926 06-03-2019 16:25:00 15.3 C 55 % 6.32 C
1927 06-03-2019 16:30:00 15.4 C 53 % 5.88 C
1928 06-03-2019 16:35:00 15.4 C 54 % 6.15 C
1929 06-03-2019 16:40:00 15.4 C 56 % 6.68 C
1930 06-03-2019 16:45:00 15.4 C 62 % 8.16 C
1931 06-03-2019 16:50:00 15.2 C 64 % 8.44 C
1932 06-03-2019 16:55:00 14.9 C 69 % 9.27 C
1933 06-03-2019 17:00:00 14.6 C 70 % 9.2 C
1934 06-03-2019 17:05:00 14.3 C 71 % 9.12 C
1935 06-03-2019 17:10:00 14.1 C 71 % 8.93 C
1936 06-03-2019 17:15:00 13.9 C 72 % 8.94 C
1937 06-03-2019 17:20:00 13.8 C 68 % 8 C
1938 06-03-2019 17:25:00 13.7 C 67 % 7.69 C
1939 06-03-2019 17:30:00 13.8 C 66 % 7.57 C
1940 06-03-2019 17:35:00 13.8 C 66 % 7.57 C
1941 06-03-2019 17:40:00 13.8 C 66 % 7.57 C
1942 06-03-2019 17:45:00 13.8 C 67 % 7.79 C
1943 06-03-2019 17:50:00 13.8 C 67 % 7.79 C
1944 06-03-2019 17:55:00 13.8 C 68 % 8 C
1945 06-03-2019 18:00:00 13.7 C 69 % 8.12 C
1946 06-03-2019 18:05:00 13.6 C 70 % 8.24 C
1947 06-03-2019 18:10:00 13.4 C 70 % 8.05 C
1948 06-03-2019 18:15:00 13.3 C 70 % 7.95 C
1949 06-03-2019 18:20:00 13.2 C 71 % 8.06 C
1950 06-03-2019 18:25:00 13.1 C 73 % 8.38 C
Sensor: Nr:Datum:Temp:Feuchte:Taupunkt:
Aussen-T/F 1951 06-03-2019 18:30:00 12.9 C 74 % 8.38 C
1952 06-03-2019 18:35:00 12.7 C 74 % 8.19 C
1953 06-03-2019 18:40:00 12.6 C 75 % 8.29 C
1954 06-03-2019 18:45:00 12.6 C 74 % 8.09 C
1955 06-03-2019 18:50:00 12.5 C 75 % 8.19 C
1956 06-03-2019 18:55:00 12.5 C 76 % 8.39 C
1957 06-03-2019 19:00:00 12.4 C 77 % 8.49 C
1958 06-03-2019 19:05:00 12.2 C 79 % 8.67 C
1959 06-03-2019 19:10:00 12 C 77 % 8.1 C
1960 06-03-2019 19:15:00 12 C 79 % 8.48 C
1961 06-03-2019 19:20:00 11.9 C 81 % 8.75 C
1962 06-03-2019 19:25:00 11.7 C 82 % 8.73 C
1963 06-03-2019 19:30:00 11.5 C 82 % 8.54 C
1964 06-03-2019 19:35:00 11.4 C 83 % 8.62 C
1965 06-03-2019 19:40:00 11.3 C 83 % 8.52 C
1966 06-03-2019 19:45:00 11.3 C 84 % 8.7 C
1967 06-03-2019 19:50:00 11.2 C 84 % 8.6 C
1968 06-03-2019 19:55:00 11 C 84 % 8.4 C
1969 06-03-2019 20:00:00 11 C 84 % 8.4 C
1970 06-03-2019 20:05:00 10.9 C 84 % 8.31 C
1971 06-03-2019 20:10:00 10.9 C 84 % 8.31 C
1972 06-03-2019 20:15:00 10.8 C 85 % 8.38 C
1973 06-03-2019 20:20:00 10.7 C 85 % 8.28 C
1974 06-03-2019 20:25:00 10.6 C 85 % 8.19 C
1975 06-03-2019 20:30:00 10.6 C 85 % 8.19 C
Sensor: Nr:Datum:Temp:Feuchte:Taupunkt:
Aussen-T/F 1976 06-03-2019 20:35:00 10.6 C 85 % 8.19 C
1977 06-03-2019 20:40:00 10.5 C 85 % 8.09 C
1978 06-03-2019 20:45:00 10.4 C 85 % 7.99 C
1979 06-03-2019 20:50:00 10.4 C 85 % 7.99 C
1980 06-03-2019 20:55:00 10.4 C 86 % 8.16 C
1981 06-03-2019 21:00:00 10.4 C 85 % 7.99 C
1982 06-03-2019 21:05:00 10.6 C 84 % 8.01 C
1983 06-03-2019 21:10:00 10.7 C 85 % 8.28 C
1984 06-03-2019 21:15:00 10.7 C 84 % 8.11 C
1985 06-03-2019 21:20:00 10.7 C 84 % 8.11 C
1986 06-03-2019 21:25:00 10.7 C 84 % 8.11 C
1987 06-03-2019 21:30:00 10.8 C 83 % 8.03 C
1988 06-03-2019 21:35:00 10.8 C 84 % 8.21 C
1989 06-03-2019 21:40:00 10.7 C 84 % 8.11 C
1990 06-03-2019 21:45:00 10.7 C 84 % 8.11 C
1991 06-03-2019 21:50:00 10.7 C 84 % 8.11 C
1992 06-03-2019 21:55:00 10.6 C 84 % 8.01 C
1993 06-03-2019 22:00:00 10.6 C 85 % 8.19 C
1994 06-03-2019 22:05:00 10.6 C 84 % 8.01 C
1995 06-03-2019 22:10:00 10.6 C 85 % 8.19 C
1996 06-03-2019 22:15:00 10.6 C 84 % 8.01 C
1997 06-03-2019 22:20:00 10.7 C 84 % 8.11 C
1998 06-03-2019 22:25:00 10.7 C 84 % 8.11 C
1999 06-03-2019 22:30:00 10.7 C 84 % 8.11 C
2000 06-03-2019 22:35:00 10.7 C 84 % 8.11 C
Sensor: Nr:Datum:Temp:Feuchte:Taupunkt:
Aussen-T/F 2001 06-03-2019 22:40:00 10.7 C 84 % 8.11 C
2002 06-03-2019 22:45:00 10.7 C 84 % 8.11 C
2003 06-03-2019 22:50:00 10.7 C 84 % 8.11 C
2004 06-03-2019 22:55:00 10.7 C 84 % 8.11 C
2005 06-03-2019 23:00:00 10.7 C 84 % 8.11 C
2006 06-03-2019 23:05:00 10.8 C 84 % 8.21 C
2007 06-03-2019 23:10:00 10.8 C 84 % 8.21 C
2008 06-03-2019 23:15:00 10.8 C 83 % 8.03 C
2009 06-03-2019 23:20:00 10.9 C 81 % 7.77 C
2010 06-03-2019 23:25:00 11.1 C 81 % 7.97 C
2011 06-03-2019 23:30:00 11.2 C 80 % 7.88 C
2012 06-03-2019 23:35:00 11.4 C 80 % 8.08 C
2013 06-03-2019 23:40:00 11.5 C 80 % 8.17 C
2014 06-03-2019 23:45:00 11.6 C 79 % 8.09 C
2015 06-03-2019 23:50:00 11.7 C 79 % 8.18 C
2016 06-03-2019 23:55:00 11.6 C 81 % 8.45 C
2017 07-03-2019 00:00:00 11.4 C 81 % 8.26 C
2018 07-03-2019 00:05:00 11.3 C 82 % 8.34 C
2019 07-03-2019 00:10:00 11.1 C 83 % 8.33 C
2020 07-03-2019 00:15:00 11.1 C 83 % 8.33 C
2021 07-03-2019 00:20:00 11.1 C 82 % 8.15 C
2022 07-03-2019 00:25:00 11.2 C 83 % 8.42 C
2023 07-03-2019 00:30:00 11.2 C 84 % 8.6 C
2024 07-03-2019 00:35:00 11.1 C 85 % 8.68 C
2025 07-03-2019 00:40:00 10.9 C 85 % 8.48 C
Sensor: Nr:Datum:Temp:Feuchte:Taupunkt:
Aussen-T/F 2026 07-03-2019 00:45:00 10.8 C 85 % 8.38 C
2027 07-03-2019 00:50:00 10.7 C 85 % 8.28 C
2028 07-03-2019 00:55:00 10.8 C 86 % 8.56 C
2029 07-03-2019 01:00:00 10.8 C 86 % 8.56 C
2030 07-03-2019 01:05:00 10.8 C 86 % 8.56 C
2031 07-03-2019 01:10:00 10.9 C 86 % 8.65 C
2032 07-03-2019 01:15:00 10.9 C 87 % 8.82 C
2033 07-03-2019 01:20:00 11 C 87 % 8.92 C
2034 07-03-2019 01:25:00 11.1 C 87 % 9.02 C
2035 07-03-2019 01:30:00 11.1 C 87 % 9.02 C
2036 07-03-2019 01:35:00 11.1 C 88 % 9.19 C
2037 07-03-2019 01:40:00 11 C 88 % 9.09 C
2038 07-03-2019 01:45:00 10.9 C 89 % 9.16 C
2039 07-03-2019 01:50:00 10.8 C 89 % 9.06 C
2040 07-03-2019 01:55:00 10.8 C 90 % 9.23 C
2041 07-03-2019 02:00:00 10.7 C 91 % 9.29 C
2042 07-03-2019 02:05:00 10.6 C 91 % 9.19 C
2043 07-03-2019 02:10:00 10.4 C 91 % 9 C
2044 07-03-2019 02:15:00 10.3 C 91 % 8.9 C
2045 07-03-2019 02:20:00 10.1 C 91 % 8.7 C
2046 07-03-2019 02:25:00 9.9 C 91 % 8.5 C
2047 07-03-2019 02:30:00 9.8 C 91 % 8.4 C
2048 07-03-2019 02:35:00 9.7 C 92 % 8.46 C
2049 07-03-2019 02:40:00 9.7 C 92 % 8.46 C
2050 07-03-2019 02:45:00 9.7 C 93 % 8.62 C
Sensor: Nr:Datum:Temp:Feuchte:Taupunkt:
Aussen-T/F 2051 07-03-2019 02:50:00 9.7 C 93 % 8.62 C
2052 07-03-2019 02:55:00 9.7 C 93 % 8.62 C
2053 07-03-2019 03:00:00 9.7 C 93 % 8.62 C
2054 07-03-2019 03:05:00 9.7 C 93 % 8.62 C
2055 07-03-2019 03:10:00 9.7 C 93 % 8.62 C
2056 07-03-2019 03:15:00 9.6 C 93 % 8.53 C
2057 07-03-2019 03:20:00 9.6 C 93 % 8.53 C
2058 07-03-2019 03:25:00 9.6 C 93 % 8.53 C
2059 07-03-2019 03:30:00 9.6 C 93 % 8.53 C
2060 07-03-2019 03:35:00 9.6 C 92 % 8.37 C
2061 07-03-2019 03:40:00 9.5 C 92 % 8.27 C
2062 07-03-2019 03:45:00 9.5 C 92 % 8.27 C
2063 07-03-2019 03:50:00 9.4 C 92 % 8.17 C
2064 07-03-2019 03:55:00 9.5 C 92 % 8.27 C
2065 07-03-2019 04:00:00 9.6 C 92 % 8.37 C
2066 07-03-2019 04:05:00 9.7 C 91 % 8.3 C
2067 07-03-2019 04:10:00 9.8 C 90 % 8.24 C
2068 07-03-2019 04:15:00 9.9 C 90 % 8.34 C
2069 07-03-2019 04:20:00 10.1 C 89 % 8.37 C
2070 07-03-2019 04:25:00 10.2 C 89 % 8.47 C
2071 07-03-2019 04:30:00 10.2 C 88 % 8.3 C
2072 07-03-2019 04:35:00 10.3 C 88 % 8.4 C
2073 07-03-2019 04:40:00 10.3 C 88 % 8.4 C
2074 07-03-2019 04:45:00 10.2 C 87 % 8.14 C
2075 07-03-2019 04:50:00 10.3 C 86 % 8.06 C
Sensor: Nr:Datum:Temp:Feuchte:Taupunkt:
Aussen-T/F 2076 07-03-2019 04:55:00 10.4 C 85 % 7.99 C
2077 07-03-2019 05:00:00 10.4 C 85 % 7.99 C
2078 07-03-2019 05:05:00 10.6 C 84 % 8.01 C
2079 07-03-2019 05:10:00 10.8 C 83 % 8.03 C
2080 07-03-2019 05:15:00 10.9 C 82 % 7.95 C
2081 07-03-2019 05:20:00 11.3 C 81 % 8.16 C
2082 07-03-2019 05:25:00 11.6 C 80 % 8.27 C
2083 07-03-2019 05:30:00 11.7 C 78 % 8 C
2084 07-03-2019 05:35:00 11.8 C 78 % 8.09 C
2085 07-03-2019 05:40:00 11.9 C 77 % 8 C
2086 07-03-2019 05:45:00 12 C 77 % 8.1 C
2087 07-03-2019 05:50:00 12.2 C 76 % 8.1 C
2088 07-03-2019 05:55:00 12.2 C 75 % 7.91 C
2089 07-03-2019 06:00:00 12.3 C 75 % 8 C
2090 07-03-2019 06:05:00 12.3 C 75 % 8 C
2091 07-03-2019 06:10:00 12.3 C 75 % 8 C
2092 07-03-2019 06:15:00 12.2 C 74 % 7.71 C
2093 07-03-2019 06:20:00 12.2 C 74 % 7.71 C
2094 07-03-2019 06:25:00 12.1 C 73 % 7.41 C
2095 07-03-2019 06:30:00 12.1 C 73 % 7.41 C
2096 07-03-2019 06:35:00 11.9 C 73 % 7.22 C
2097 07-03-2019 06:40:00 11.9 C 73 % 7.22 C
2098 07-03-2019 06:45:00 11.8 C 74 % 7.32 C
2099 07-03-2019 06:50:00 11.8 C 74 % 7.32 C
2100 07-03-2019 06:55:00 11.8 C 74 % 7.32 C
Sensor: Nr:Datum:Temp:Feuchte:Taupunkt:
Aussen-T/F 2101 07-03-2019 07:00:00 11.7 C 74 % 7.23 C
2102 07-03-2019 07:05:00 11.6 C 75 % 7.33 C
2103 07-03-2019 07:10:00 11.6 C 75 % 7.33 C
2104 07-03-2019 07:15:00 11.6 C 75 % 7.33 C
2105 07-03-2019 07:20:00 11.5 C 74 % 7.03 C
2106 07-03-2019 07:25:00 11.4 C 74 % 6.94 C
2107 07-03-2019 07:30:00 11.4 C 74 % 6.94 C
2108 07-03-2019 07:35:00 11.2 C 74 % 6.74 C
2109 07-03-2019 07:40:00 11.1 C 74 % 6.65 C
2110 07-03-2019 07:45:00 11 C 74 % 6.55 C
2111 07-03-2019 07:50:00 10.9 C 74 % 6.45 C
2112 07-03-2019 07:55:00 10.9 C 74 % 6.45 C
2113 07-03-2019 08:00:00 10.8 C 74 % 6.36 C
2114 07-03-2019 08:05:00 10.8 C 74 % 6.36 C
2115 07-03-2019 08:10:00 10.8 C 75 % 6.55 C
2116 07-03-2019 08:15:00 10.7 C 75 % 6.46 C
2117 07-03-2019 08:20:00 10.7 C 75 % 6.46 C
2118 07-03-2019 08:25:00 10.7 C 76 % 6.65 C
2119 07-03-2019 08:30:00 10.7 C 76 % 6.65 C
2120 07-03-2019 08:35:00 10.6 C 76 % 6.55 C
2121 07-03-2019 08:40:00 10.6 C 77 % 6.74 C
2122 07-03-2019 08:45:00 10.6 C 78 % 6.93 C
2123 07-03-2019 08:50:00 10.6 C 77 % 6.74 C
2124 07-03-2019 08:55:00 10.7 C 78 % 7.03 C
2125 07-03-2019 09:00:00 10.7 C 79 % 7.21 C
Sensor: Nr:Datum:Temp:Feuchte:Taupunkt:
Aussen-T/F 2126 07-03-2019 09:05:00 10.6 C 80 % 7.3 C
2127 07-03-2019 09:10:00 10.4 C 81 % 7.28 C
2128 07-03-2019 09:15:00 10.2 C 82 % 7.27 C
2129 07-03-2019 09:20:00 10.1 C 84 % 7.52 C
2130 07-03-2019 09:25:00 9.9 C 85 % 7.5 C
2131 07-03-2019 09:30:00 9.8 C 85 % 7.4 C
2132 07-03-2019 09:35:00 9.7 C 84 % 7.13 C
2133 07-03-2019 09:40:00 9.8 C 84 % 7.23 C
2134 07-03-2019 09:45:00 9.8 C 83 % 7.05 C
2135 07-03-2019 09:50:00 9.9 C 83 % 7.15 C
2136 07-03-2019 09:55:00 9.9 C 82 % 6.98 C
2137 07-03-2019 10:00:00 10 C 82 % 7.07 C
2138 07-03-2019 10:05:00 10.1 C 81 % 6.99 C
2139 07-03-2019 10:10:00 10.2 C 82 % 7.27 C
2140 07-03-2019 10:15:00 10.2 C 82 % 7.27 C
2141 07-03-2019 10:20:00 10.2 C 82 % 7.27 C
2142 07-03-2019 10:25:00 10.1 C 82 % 7.17 C
2143 07-03-2019 10:30:00 10.2 C 82 % 7.27 C
2144 07-03-2019 10:35:00 10.2 C 82 % 7.27 C
2145 07-03-2019 10:40:00 10.3 C 82 % 7.37 C
2146 07-03-2019 10:45:00 10.4 C 82 % 7.46 C
2147 07-03-2019 10:50:00 10.4 C 83 % 7.64 C
2148 07-03-2019 10:55:00 10.4 C 84 % 7.82 C
2149 07-03-2019 11:00:00 10.3 C 86 % 8.06 C
2150 07-03-2019 11:05:00 9.8 C 86 % 7.57 C
Sensor: Nr:Datum:Temp:Feuchte:Taupunkt:
Aussen-T/F 2151 07-03-2019 11:10:00 9.5 C 87 % 7.45 C
2152 07-03-2019 11:15:00 9.5 C 87 % 7.45 C
2153 07-03-2019 11:20:00 9.5 C 86 % 7.28 C
2154 07-03-2019 11:25:00 9.6 C 86 % 7.38 C
2155 07-03-2019 11:30:00 9.6 C 85 % 7.21 C
2156 07-03-2019 11:35:00 9.7 C 84 % 7.13 C
2157 07-03-2019 11:40:00 9.8 C 83 % 7.05 C
2158 07-03-2019 11:45:00 9.9 C 81 % 6.8 C
2159 07-03-2019 11:50:00 10.1 C 78 % 6.44 C
2160 07-03-2019 11:55:00 10.3 C 78 % 6.64 C
2161 07-03-2019 12:00:00 10.4 C 78 % 6.74 C
2162 07-03-2019 12:05:00 10.6 C 76 % 6.55 C
2163 07-03-2019 12:10:00 10.6 C 76 % 6.55 C
2164 07-03-2019 12:15:00 10.6 C 76 % 6.55 C
2165 07-03-2019 12:20:00 10.7 C 74 % 6.26 C
2166 07-03-2019 12:25:00 10.8 C 74 % 6.36 C
2167 07-03-2019 12:30:00 10.8 C 74 % 6.36 C
2168 07-03-2019 12:35:00 10.8 C 74 % 6.36 C
2169 07-03-2019 12:40:00 10.9 C 74 % 6.45 C
2170 07-03-2019 12:45:00 10.9 C 73 % 6.26 C
2171 07-03-2019 12:50:00 11 C 74 % 6.55 C
2172 07-03-2019 12:55:00 11.3 C 73 % 6.64 C
2173 07-03-2019 13:00:00 11.7 C 71 % 6.62 C
2174 07-03-2019 13:05:00 11.8 C 70 % 6.51 C
2175 07-03-2019 13:10:00 11.9 C 71 % 6.82 C
Sensor: Nr:Datum:Temp:Feuchte:Taupunkt:
Aussen-T/F 2176 07-03-2019 13:15:00 12.2 C 69 % 6.69 C
2177 07-03-2019 13:20:00 12.4 C 66 % 6.23 C
2178 07-03-2019 13:25:00 12.4 C 68 % 6.67 C
2179 07-03-2019 13:30:00 12.2 C 68 % 6.48 C
2180 07-03-2019 13:35:00 12 C 68 % 6.29 C
2181 07-03-2019 13:40:00 12 C 68 % 6.29 C
2182 07-03-2019 13:45:00 12.1 C 67 % 6.17 C
2183 07-03-2019 13:50:00 11.8 C 67 % 5.88 C
2184 07-03-2019 13:55:00 11.5 C 71 % 6.43 C
2185 07-03-2019 14:00:00 10.7 C 77 % 6.84 C
2186 07-03-2019 14:05:00 10.1 C 80 % 6.81 C
2187 07-03-2019 14:10:00 9.7 C 80 % 6.42 C
2188 07-03-2019 14:15:00 9.7 C 81 % 6.6 C
2189 07-03-2019 14:20:00 9.9 C 81 % 6.8 C
2190 07-03-2019 14:25:00 10.2 C 81 % 7.09 C
2191 07-03-2019 14:30:00 10.5 C 78 % 6.83 C
2192 07-03-2019 14:35:00 10.7 C 78 % 7.03 C
2193 07-03-2019 14:40:00 10.7 C 77 % 6.84 C
2194 07-03-2019 14:45:00 10.7 C 76 % 6.65 C
2195 07-03-2019 14:50:00 10.9 C 75 % 6.65 C
2196 07-03-2019 14:55:00 11.1 C 73 % 6.45 C
2197 07-03-2019 15:00:00 11.3 C 70 % 6.03 C
2198 07-03-2019 15:05:00 11.4 C 68 % 5.71 C
2199 07-03-2019 15:10:00 11.7 C 69 % 6.21 C
2200 07-03-2019 15:15:00 11.7 C 68 % 6 C
Sensor: Nr:Datum:Temp:Feuchte:Taupunkt:
Aussen-T/F 2201 07-03-2019 15:20:00 11.7 C 69 % 6.21 C
2202 07-03-2019 15:25:00 11.6 C 68 % 5.9 C
2203 07-03-2019 15:30:00 11.2 C 73 % 6.55 C
2204 07-03-2019 15:35:00 10.5 C 77 % 6.64 C
2205 07-03-2019 15:40:00 10 C 81 % 6.89 C
2206 07-03-2019 15:45:00 9.8 C 82 % 6.88 C
2207 07-03-2019 15:50:00 9.6 C 82 % 6.68 C
2208 07-03-2019 15:55:00 9.4 C 82 % 6.49 C
2209 07-03-2019 16:00:00 9.4 C 84 % 6.84 C
2210 07-03-2019 16:05:00 9.5 C 83 % 6.76 C
2211 07-03-2019 16:10:00 9.6 C 82 % 6.68 C
2212 07-03-2019 16:15:00 9.7 C 82 % 6.78 C
2213 07-03-2019 16:20:00 9.8 C 82 % 6.88 C
2214 07-03-2019 16:25:00 9.9 C 79 % 6.43 C
2215 07-03-2019 16:30:00 10.1 C 78 % 6.44 C
2216 07-03-2019 16:35:00 10.1 C 74 % 5.68 C
2217 07-03-2019 16:40:00 10.2 C 73 % 5.58 C
2218 07-03-2019 16:45:00 10.2 C 74 % 5.78 C
2219 07-03-2019 16:50:00 10.1 C 78 % 6.44 C
2220 07-03-2019 16:55:00 10 C 80 % 6.71 C
2221 07-03-2019 17:00:00 10 C 80 % 6.71 C
2222 07-03-2019 17:05:00 10.2 C 79 % 6.73 C
2223 07-03-2019 17:10:00 10.3 C 76 % 6.26 C
2224 07-03-2019 17:15:00 10.3 C 75 % 6.07 C
2225 07-03-2019 17:20:00 10.3 C 75 % 6.07 C
Sensor: Nr:Datum:Temp:Feuchte:Taupunkt:
Aussen-T/F 2226 07-03-2019 17:25:00 10.3 C 74 % 5.88 C
2227 07-03-2019 17:30:00 10.4 C 74 % 5.97 C
2228 07-03-2019 17:35:00 10.3 C 73 % 5.68 C
2229 07-03-2019 17:40:00 10.1 C 73 % 5.49 C
2230 07-03-2019 17:45:00 9.9 C 73 % 5.29 C
2231 07-03-2019 17:50:00 9.8 C 74 % 5.39 C
2232 07-03-2019 17:55:00 9.8 C 74 % 5.39 C
2233 07-03-2019 18:00:00 9.8 C 72 % 5 C
2234 07-03-2019 18:05:00 9.8 C 72 % 5 C
2235 07-03-2019 18:10:00 9.8 C 72 % 5 C
2236 07-03-2019 18:15:00 9.7 C 72 % 4.9 C
2237 07-03-2019 18:20:00 9.6 C 71 % 4.61 C
2238 07-03-2019 18:25:00 9.4 C 72 % 4.62 C
2239 07-03-2019 18:30:00 9.4 C 72 % 4.62 C
2240 07-03-2019 18:35:00 9.4 C 72 % 4.62 C
2241 07-03-2019 18:40:00 9.3 C 72 % 4.52 C
2242 07-03-2019 18:45:00 9.2 C 73 % 4.62 C
2243 07-03-2019 18:50:00 9.1 C 74 % 4.72 C
2244 07-03-2019 18:55:00 8.9 C 75 % 4.72 C
2245 07-03-2019 19:00:00 8.9 C 75 % 4.72 C
2246 07-03-2019 19:05:00 8.9 C 76 % 4.91 C
2247 07-03-2019 19:10:00 8.9 C 76 % 4.91 C
2248 07-03-2019 19:15:00 8.9 C 78 % 5.28 C
2249 07-03-2019 19:20:00 8.8 C 79 % 5.36 C
2250 07-03-2019 19:25:00 8.6 C 80 % 5.35 C
Sensor: Nr:Datum:Temp:Feuchte:Taupunkt:
Aussen-T/F 2251 07-03-2019 19:30:00 8.4 C 81 % 5.33 C
2252 07-03-2019 19:35:00 8.3 C 82 % 5.41 C
2253 07-03-2019 19:40:00 8.1 C 82 % 5.22 C
2254 07-03-2019 19:45:00 8 C 82 % 5.12 C
2255 07-03-2019 19:50:00 7.9 C 82 % 5.02 C
2256 07-03-2019 19:55:00 7.9 C 81 % 4.85 C
2257 07-03-2019 20:00:00 8.1 C 80 % 4.86 C
2258 07-03-2019 20:05:00 8.2 C 79 % 4.78 C
2259 07-03-2019 20:10:00 8.3 C 78 % 4.7 C
2260 07-03-2019 20:15:00 8.4 C 77 % 4.61 C
2261 07-03-2019 20:20:00 8.6 C 77 % 4.8 C
2262 07-03-2019 20:25:00 8.7 C 76 % 4.71 C
2263 07-03-2019 20:30:00 8.8 C 76 % 4.81 C
2264 07-03-2019 20:35:00 8.8 C 76 % 4.81 C
2265 07-03-2019 20:40:00 8.9 C 75 % 4.72 C
2266 07-03-2019 20:45:00 8.9 C 75 % 4.72 C
2267 07-03-2019 20:50:00 9 C 75 % 4.81 C
2268 07-03-2019 20:55:00 9 C 75 % 4.81 C
2269 07-03-2019 21:00:00 9.1 C 75 % 4.91 C
2270 07-03-2019 21:05:00 9.1 C 75 % 4.91 C
2271 07-03-2019 21:10:00 9.2 C 75 % 5.01 C
2272 07-03-2019 21:15:00 9.2 C 75 % 5.01 C
2273 07-03-2019 21:20:00 9.2 C 75 % 5.01 C
2274 07-03-2019 21:25:00 9.2 C 75 % 5.01 C
2275 07-03-2019 21:30:00 9.3 C 75 % 5.1 C
Sensor: Nr:Datum:Temp:Feuchte:Taupunkt:
Aussen-T/F 2276 07-03-2019 21:35:00 9.3 C 74 % 4.91 C
2277 07-03-2019 21:40:00 9.3 C 74 % 4.91 C
2278 07-03-2019 21:45:00 9.3 C 74 % 4.91 C
2279 07-03-2019 21:50:00 9.3 C 74 % 4.91 C
2280 07-03-2019 21:55:00 9.3 C 74 % 4.91 C
2281 07-03-2019 22:00:00 9.4 C 74 % 5.01 C
2282 07-03-2019 22:05:00 9.4 C 74 % 5.01 C
2283 07-03-2019 22:10:00 9.4 C 74 % 5.01 C
2284 07-03-2019 22:15:00 9.4 C 75 % 5.2 C
2285 07-03-2019 22:20:00 9.3 C 75 % 5.1 C
2286 07-03-2019 22:25:00 9.2 C 75 % 5.01 C
2287 07-03-2019 22:30:00 9.2 C 75 % 5.01 C
2288 07-03-2019 22:35:00 9.1 C 75 % 4.91 C
2289 07-03-2019 22:40:00 9.1 C 75 % 4.91 C
2290 07-03-2019 22:45:00 9 C 75 % 4.81 C
2291 07-03-2019 22:50:00 9 C 75 % 4.81 C
2292 07-03-2019 22:55:00 8.9 C 75 % 4.72 C
2293 07-03-2019 23:00:00 8.9 C 75 % 4.72 C
2294 07-03-2019 23:05:00 8.8 C 75 % 4.62 C
2295 07-03-2019 23:10:00 8.7 C 76 % 4.71 C
2296 07-03-2019 23:15:00 8.7 C 76 % 4.71 C
2297 07-03-2019 23:20:00 8.5 C 77 % 4.71 C
2298 07-03-2019 23:25:00 8.5 C 77 % 4.71 C
2299 07-03-2019 23:30:00 8.5 C 77 % 4.71 C
2300 07-03-2019 23:35:00 8.6 C 77 % 4.8 C
Sensor: Nr:Datum:Temp:Feuchte:Taupunkt:
Aussen-T/F 2301 07-03-2019 23:40:00 8.6 C 77 % 4.8 C
2302 07-03-2019 23:45:00 8.7 C 78 % 5.08 C
2303 07-03-2019 23:50:00 8.7 C 79 % 5.27 C
2304 07-03-2019 23:55:00 8.5 C 79 % 5.07 C
2305 08-03-2019 00:00:00 8.3 C 80 % 5.06 C
2306 08-03-2019 00:05:00 8.2 C 80 % 4.96 C
2307 08-03-2019 00:10:00 8.2 C 81 % 5.14 C
2308 08-03-2019 00:15:00 8.2 C 82 % 5.32 C
2309 08-03-2019 00:20:00 8 C 84 % 5.47 C
2310 08-03-2019 00:25:00 7.8 C 85 % 5.44 C
2311 08-03-2019 00:30:00 7.6 C 86 % 5.41 C
2312 08-03-2019 00:35:00 7.4 C 86 % 5.22 C
2313 08-03-2019 00:40:00 7.3 C 86 % 5.12 C
2314 08-03-2019 00:45:00 7.1 C 87 % 5.09 C
2315 08-03-2019 00:50:00 6.9 C 87 % 4.89 C
2316 08-03-2019 00:55:00 6.9 C 87 % 4.89 C
2317 08-03-2019 01:00:00 6.8 C 87 % 4.79 C
2318 08-03-2019 01:05:00 6.8 C 87 % 4.79 C
2319 08-03-2019 01:10:00 6.8 C 87 % 4.79 C
2320 08-03-2019 01:15:00 6.8 C 87 % 4.79 C
2321 08-03-2019 01:20:00 6.9 C 87 % 4.89 C
2322 08-03-2019 01:25:00 6.9 C 87 % 4.89 C
2323 08-03-2019 01:30:00 7 C 87 % 4.99 C
2324 08-03-2019 01:35:00 7.1 C 86 % 4.92 C
2325 08-03-2019 01:40:00 7.2 C 85 % 4.85 C
Sensor: Nr:Datum:Temp:Feuchte:Taupunkt:
Aussen-T/F 2326 08-03-2019 01:45:00 7.3 C 85 % 4.95 C
2327 08-03-2019 01:50:00 7.4 C 84 % 4.88 C
2328 08-03-2019 01:55:00 7.7 C 82 % 4.83 C
2329 08-03-2019 02:00:00 7.9 C 80 % 4.67 C
2330 08-03-2019 02:05:00 8 C 79 % 4.59 C
2331 08-03-2019 02:10:00 8.1 C 79 % 4.68 C
2332 08-03-2019 02:15:00 8.1 C 78 % 4.5 C
2333 08-03-2019 02:20:00 8.1 C 78 % 4.5 C
2334 08-03-2019 02:25:00 8.2 C 77 % 4.42 C
2335 08-03-2019 02:30:00 8.2 C 77 % 4.42 C
2336 08-03-2019 02:35:00 8.3 C 76 % 4.33 C
2337 08-03-2019 02:40:00 8.3 C 76 % 4.33 C
2338 08-03-2019 02:45:00 8.3 C 76 % 4.33 C
2339 08-03-2019 02:50:00 8.2 C 76 % 4.23 C
2340 08-03-2019 02:55:00 8.2 C 76 % 4.23 C
2341 08-03-2019 03:00:00 8.2 C 76 % 4.23 C
2342 08-03-2019 03:05:00 8.2 C 76 % 4.23 C
2343 08-03-2019 03:10:00 8.2 C 76 % 4.23 C
2344 08-03-2019 03:15:00 8.3 C 75 % 4.14 C
2345 08-03-2019 03:20:00 8.2 C 75 % 4.04 C
2346 08-03-2019 03:25:00 8.2 C 74 % 3.85 C
2347 08-03-2019 03:30:00 8.1 C 75 % 3.94 C
2348 08-03-2019 03:35:00 8.1 C 75 % 3.94 C
2349 08-03-2019 03:40:00 8.1 C 75 % 3.94 C
2350 08-03-2019 03:45:00 8.1 C 75 % 3.94 C
Sensor: Nr:Datum:Temp:Feuchte:Taupunkt:
Aussen-T/F 2351 08-03-2019 03:50:00 8.1 C 75 % 3.94 C
2352 08-03-2019 03:55:00 8 C 75 % 3.85 C
2353 08-03-2019 04:00:00 8 C 76 % 4.04 C
2354 08-03-2019 04:05:00 8 C 76 % 4.04 C
2355 08-03-2019 04:10:00 8 C 76 % 4.04 C
2356 08-03-2019 04:15:00 8 C 76 % 4.04 C
2357 08-03-2019 04:20:00 8.1 C 76 % 4.13 C
2358 08-03-2019 04:25:00 8.1 C 76 % 4.13 C
2359 08-03-2019 04:30:00 8.1 C 76 % 4.13 C
2360 08-03-2019 04:35:00 8 C 77 % 4.22 C
2361 08-03-2019 04:40:00 8 C 77 % 4.22 C
2362 08-03-2019 04:45:00 8.1 C 77 % 4.32 C
2363 08-03-2019 04:50:00 8.1 C 76 % 4.13 C
2364 08-03-2019 04:55:00 8.1 C 76 % 4.13 C
2365 08-03-2019 05:00:00 8.1 C 77 % 4.32 C
2366 08-03-2019 05:05:00 8 C 77 % 4.22 C
2367 08-03-2019 05:10:00 7.9 C 77 % 4.12 C
2368 08-03-2019 05:15:00 7.8 C 78 % 4.21 C
2369 08-03-2019 05:20:00 7.8 C 78 % 4.21 C
2370 08-03-2019 05:25:00 7.8 C 78 % 4.21 C
2371 08-03-2019 05:30:00 7.8 C 78 % 4.21 C
2372 08-03-2019 05:35:00 7.7 C 79 % 4.3 C
2373 08-03-2019 05:40:00 7.7 C 79 % 4.3 C
2374 08-03-2019 05:45:00 7.7 C 79 % 4.3 C
2375 08-03-2019 05:50:00 7.7 C 79 % 4.3 C
Sensor: Nr:Datum:Temp:Feuchte:Taupunkt:
Aussen-T/F 2376 08-03-2019 05:55:00 7.6 C 79 % 4.2 C
2377 08-03-2019 06:00:00 7.6 C 79 % 4.2 C
2378 08-03-2019 06:05:00 7.6 C 79 % 4.2 C
2379 08-03-2019 06:10:00 7.6 C 80 % 4.38 C
2380 08-03-2019 06:15:00 7.6 C 80 % 4.38 C
2381 08-03-2019 06:20:00 7.5 C 80 % 4.28 C
2382 08-03-2019 06:25:00 7.5 C 80 % 4.28 C
2383 08-03-2019 06:30:00 7.6 C 80 % 4.38 C
2384 08-03-2019 06:35:00 7.6 C 80 % 4.38 C
2385 08-03-2019 06:40:00 7.7 C 80 % 4.47 C
2386 08-03-2019 06:45:00 7.7 C 80 % 4.47 C
2387 08-03-2019 06:50:00 7.7 C 80 % 4.47 C
2388 08-03-2019 06:55:00 7.6 C 80 % 4.38 C
2389 08-03-2019 07:00:00 7.6 C 80 % 4.38 C
2390 08-03-2019 07:05:00 7.6 C 81 % 4.55 C
2391 08-03-2019 07:10:00 7.6 C 81 % 4.55 C
2392 08-03-2019 07:15:00 7.6 C 81 % 4.55 C
2393 08-03-2019 07:20:00 7.6 C 80 % 4.38 C
2394 08-03-2019 07:25:00 7.7 C 80 % 4.47 C
2395 08-03-2019 07:30:00 7.7 C 80 % 4.47 C
2396 08-03-2019 07:35:00 7.8 C 80 % 4.57 C
2397 08-03-2019 07:40:00 7.8 C 80 % 4.57 C
2398 08-03-2019 07:45:00 7.8 C 80 % 4.57 C
2399 08-03-2019 07:50:00 7.8 C 81 % 4.75 C
2400 08-03-2019 07:55:00 7.8 C 81 % 4.75 C
Sensor: Nr:Datum:Temp:Feuchte:Taupunkt:
Aussen-T/F 2401 08-03-2019 08:00:00 7.8 C 81 % 4.75 C
2402 08-03-2019 08:05:00 7.8 C 81 % 4.75 C
2403 08-03-2019 08:10:00 7.8 C 81 % 4.75 C
2404 08-03-2019 08:15:00 7.8 C 81 % 4.75 C
2405 08-03-2019 08:20:00 7.8 C 81 % 4.75 C
2406 08-03-2019 08:25:00 7.8 C 82 % 4.92 C
2407 08-03-2019 08:30:00 7.9 C 82 % 5.02 C
2408 08-03-2019 08:35:00 7.9 C 82 % 5.02 C
2409 08-03-2019 08:40:00 7.9 C 82 % 5.02 C
2410 08-03-2019 08:45:00 7.9 C 82 % 5.02 C
2411 08-03-2019 08:50:00 7.9 C 83 % 5.2 C
2412 08-03-2019 08:55:00 7.9 C 83 % 5.2 C
2413 08-03-2019 09:00:00 7.9 C 83 % 5.2 C
2414 08-03-2019 09:05:00 7.9 C 83 % 5.2 C
2415 08-03-2019 09:10:00 7.9 C 83 % 5.2 C
2416 08-03-2019 09:15:00 7.8 C 83 % 5.1 C
2417 08-03-2019 09:20:00 7.8 C 84 % 5.27 C
2418 08-03-2019 09:25:00 7.8 C 85 % 5.44 C
2419 08-03-2019 09:30:00 7.7 C 86 % 5.51 C
2420 08-03-2019 09:35:00 7.7 C 86 % 5.51 C
2421 08-03-2019 09:40:00 7.6 C 87 % 5.58 C
2422 08-03-2019 09:45:00 7.4 C 87 % 5.38 C
2423 08-03-2019 09:50:00 7.4 C 88 % 5.55 C
2424 08-03-2019 09:55:00 7.3 C 88 % 5.45 C
2425 08-03-2019 10:00:00 7.2 C 88 % 5.35 C
Sensor: Nr:Datum:Temp:Feuchte:Taupunkt:
Aussen-T/F 2426 08-03-2019 10:05:00 7.2 C 88 % 5.35 C
2427 08-03-2019 10:10:00 7.3 C 88 % 5.45 C
2428 08-03-2019 10:15:00 7.4 C 88 % 5.55 C
2429 08-03-2019 10:20:00 7.5 C 87 % 5.48 C
2430 08-03-2019 10:25:00 7.7 C 86 % 5.51 C
2431 08-03-2019 10:30:00 7.8 C 84 % 5.27 C
2432 08-03-2019 10:35:00 7.9 C 84 % 5.37 C
2433 08-03-2019 10:40:00 8.1 C 83 % 5.39 C
2434 08-03-2019 10:45:00 8.2 C 82 % 5.32 C
2435 08-03-2019 10:50:00 8.3 C 82 % 5.41 C
2436 08-03-2019 10:55:00 8.4 C 81 % 5.33 C
2437 08-03-2019 11:00:00 8.4 C 81 % 5.33 C
2438 08-03-2019 11:05:00 8.4 C 81 % 5.33 C
2439 08-03-2019 11:10:00 8.4 C 80 % 5.16 C
2440 08-03-2019 11:15:00 8.4 C 80 % 5.16 C
2441 08-03-2019 11:20:00 8.4 C 81 % 5.33 C
2442 08-03-2019 11:25:00 8.6 C 81 % 5.53 C
2443 08-03-2019 11:30:00 8.7 C 79 % 5.27 C
2444 08-03-2019 11:35:00 8.8 C 79 % 5.36 C
2445 08-03-2019 11:40:00 8.8 C 79 % 5.36 C
2446 08-03-2019 11:45:00 8.8 C 78 % 5.18 C
2447 08-03-2019 11:50:00 9 C 77 % 5.19 C
2448 08-03-2019 11:55:00 9.2 C 76 % 5.2 C
2449 08-03-2019 12:00:00 9.3 C 73 % 4.72 C
2450 08-03-2019 12:05:00 9.5 C 71 % 4.51 C
Sensor: Nr:Datum:Temp:Feuchte:Taupunkt:
Aussen-T/F 2451 08-03-2019 12:10:00 9.5 C 70 % 4.31 C
2452 08-03-2019 12:15:00 9.3 C 72 % 4.52 C
2453 08-03-2019 12:20:00 9.1 C 73 % 4.52 C
2454 08-03-2019 12:25:00 9.1 C 73 % 4.52 C
2455 08-03-2019 12:30:00 9.1 C 74 % 4.72 C
2456 08-03-2019 12:35:00 9 C 73 % 4.43 C
2457 08-03-2019 12:40:00 9 C 71 % 4.03 C
2458 08-03-2019 12:45:00 9.1 C 72 % 4.33 C
2459 08-03-2019 12:50:00 9.2 C 72 % 4.42 C
2460 08-03-2019 12:55:00 9.4 C 71 % 4.42 C
2461 08-03-2019 13:00:00 9.6 C 71 % 4.61 C
2462 08-03-2019 13:05:00 9.5 C 69 % 4.11 C
2463 08-03-2019 13:10:00 9.5 C 70 % 4.31 C
2464 08-03-2019 13:15:00 9.5 C 69 % 4.11 C
2465 08-03-2019 13:20:00 9.5 C 69 % 4.11 C
2466 08-03-2019 13:25:00 9.6 C 69 % 4.2 C
2467 08-03-2019 13:30:00 9.7 C 70 % 4.5 C
2468 08-03-2019 13:35:00 9.7 C 69 % 4.3 C
2469 08-03-2019 13:40:00 10.1 C 69 % 4.68 C
2470 08-03-2019 13:45:00 10.3 C 67 % 4.45 C
2471 08-03-2019 13:50:00 10.3 C 68 % 4.66 C
2472 08-03-2019 13:55:00 10.3 C 66 % 4.24 C
2473 08-03-2019 14:00:00 10.3 C 65 % 4.02 C
2474 08-03-2019 14:05:00 10.2 C 65 % 3.92 C
2475 08-03-2019 14:10:00 10.3 C 65 % 4.02 C
Sensor: Nr:Datum:Temp:Feuchte:Taupunkt:
Aussen-T/F 2476 08-03-2019 14:15:00 10.4 C 64 % 3.89 C
2477 08-03-2019 14:20:00 10.3 C 64 % 3.8 C
2478 08-03-2019 14:25:00 10.2 C 66 % 4.14 C
2479 08-03-2019 14:30:00 10.2 C 66 % 4.14 C
2480 08-03-2019 14:35:00 10.2 C 63 % 3.48 C
2481 08-03-2019 14:40:00 10.3 C 64 % 3.8 C
2482 08-03-2019 14:45:00 10.4 C 63 % 3.67 C
2483 08-03-2019 14:50:00 10.6 C 63 % 3.86 C
2484 08-03-2019 14:55:00 10.7 C 63 % 3.95 C
2485 08-03-2019 15:00:00 10.8 C 63 % 4.05 C
2486 08-03-2019 15:05:00 11 C 62 % 4.01 C
2487 08-03-2019 15:10:00 11.1 C 61 % 3.87 C
2488 08-03-2019 15:15:00 11.2 C 60 % 3.73 C
2489 08-03-2019 15:20:00 11.3 C 61 % 4.06 C
2490 08-03-2019 15:25:00 11.3 C 60 % 3.83 C
2491 08-03-2019 15:30:00 11.4 C 61 % 4.16 C
2492 08-03-2019 15:35:00 11.6 C 61 % 4.35 C
2493 08-03-2019 15:40:00 11.7 C 62 % 4.67 C
2494 08-03-2019 15:45:00 11.5 C 63 % 4.71 C
2495 08-03-2019 15:50:00 11.2 C 64 % 4.65 C
2496 08-03-2019 15:55:00 10.9 C 66 % 4.81 C
2497 08-03-2019 16:00:00 10.6 C 68 % 4.95 C
2498 08-03-2019 16:05:00 10.3 C 70 % 5.08 C
2499 08-03-2019 16:10:00 10.3 C 71 % 5.28 C
2500 08-03-2019 16:15:00 10.3 C 70 % 5.08 C
Sensor: Nr:Datum:Temp:Feuchte:Taupunkt:
Aussen-T/F 2501 08-03-2019 16:20:00 10.2 C 70 % 4.98 C
2502 08-03-2019 16:25:00 10.1 C 71 % 5.09 C
2503 08-03-2019 16:30:00 10.3 C 70 % 5.08 C
2504 08-03-2019 16:35:00 10.4 C 69 % 4.97 C
2505 08-03-2019 16:40:00 10.3 C 69 % 4.87 C
2506 08-03-2019 16:45:00 10.2 C 70 % 4.98 C
2507 08-03-2019 16:50:00 10.1 C 71 % 5.09 C
2508 08-03-2019 16:55:00 10.1 C 72 % 5.29 C
2509 08-03-2019 17:00:00 10.1 C 72 % 5.29 C
2510 08-03-2019 17:05:00 9.8 C 73 % 5.2 C
2511 08-03-2019 17:10:00 9.6 C 74 % 5.2 C
2512 08-03-2019 17:15:00 9.4 C 75 % 5.2 C
2513 08-03-2019 17:20:00 9.3 C 76 % 5.29 C
2514 08-03-2019 17:25:00 9.2 C 77 % 5.38 C
2515 08-03-2019 17:30:00 9.1 C 78 % 5.47 C
2516 08-03-2019 17:35:00 9 C 79 % 5.56 C
2517 08-03-2019 17:40:00 8.9 C 81 % 5.82 C
2518 08-03-2019 17:45:00 8.7 C 81 % 5.63 C
2519 08-03-2019 17:50:00 8.5 C 82 % 5.61 C
2520 08-03-2019 17:55:00 8.3 C 83 % 5.59 C
2521 08-03-2019 18:00:00 8.1 C 84 % 5.56 C
2522 08-03-2019 18:05:00 7.9 C 84 % 5.37 C
2523 08-03-2019 18:10:00 7.7 C 85 % 5.34 C
2524 08-03-2019 18:15:00 7.6 C 85 % 5.24 C
2525 08-03-2019 18:20:00 7.4 C 85 % 5.05 C
Sensor: Nr:Datum:Temp:Feuchte:Taupunkt:
Aussen-T/F 2526 08-03-2019 18:25:00 7.4 C 85 % 5.05 C
2527 08-03-2019 18:30:00 7.3 C 85 % 4.95 C
2528 08-03-2019 18:35:00 7.2 C 86 % 5.02 C
2529 08-03-2019 18:40:00 7.2 C 86 % 5.02 C
2530 08-03-2019 18:45:00 7.1 C 86 % 4.92 C
2531 08-03-2019 18:50:00 7.1 C 86 % 4.92 C
2532 08-03-2019 18:55:00 7.1 C 86 % 4.92 C
2533 08-03-2019 19:00:00 7 C 87 % 4.99 C
2534 08-03-2019 19:05:00 7 C 87 % 4.99 C
2535 08-03-2019 19:10:00 7 C 87 % 4.99 C
2536 08-03-2019 19:15:00 6.9 C 88 % 5.05 C
2537 08-03-2019 19:20:00 6.9 C 88 % 5.05 C
2538 08-03-2019 19:25:00 6.9 C 87 % 4.89 C
2539 08-03-2019 19:30:00 6.8 C 88 % 4.96 C
2540 08-03-2019 19:35:00 6.8 C 88 % 4.96 C
2541 08-03-2019 19:40:00 6.7 C 88 % 4.86 C
2542 08-03-2019 19:45:00 6.7 C 88 % 4.86 C
2543 08-03-2019 19:50:00 6.7 C 89 % 5.02 C
2544 08-03-2019 19:55:00 6.6 C 89 % 4.92 C
2545 08-03-2019 20:00:00 6.6 C 89 % 4.92 C
2546 08-03-2019 20:05:00 6.4 C 89 % 4.72 C
2547 08-03-2019 20:10:00 6.4 C 89 % 4.72 C
2548 08-03-2019 20:15:00 6.3 C 89 % 4.62 C
2549 08-03-2019 20:20:00 6.3 C 89 % 4.62 C
2550 08-03-2019 20:25:00 6.3 C 90 % 4.78 C
Sensor: Nr:Datum:Temp:Feuchte:Taupunkt:
Aussen-T/F 2551 08-03-2019 20:30:00 6.2 C 89 % 4.53 C
2552 08-03-2019 20:35:00 6.2 C 90 % 4.69 C
2553 08-03-2019 20:40:00 6.2 C 90 % 4.69 C
2554 08-03-2019 20:45:00 6.2 C 90 % 4.69 C
2555 08-03-2019 20:50:00 6.2 C 90 % 4.69 C
2556 08-03-2019 20:55:00 6.3 C 90 % 4.78 C
2557 08-03-2019 21:00:00 6.3 C 90 % 4.78 C
2558 08-03-2019 21:05:00 6.3 C 90 % 4.78 C
2559 08-03-2019 21:10:00 6.3 C 90 % 4.78 C
2560 08-03-2019 21:15:00 6.4 C 90 % 4.88 C
2561 08-03-2019 21:20:00 6.5 C 90 % 4.98 C
2562 08-03-2019 21:25:00 6.6 C 90 % 5.08 C
2563 08-03-2019 21:30:00 6.6 C 89 % 4.92 C
2564 08-03-2019 21:35:00 6.6 C 89 % 4.92 C
2565 08-03-2019 21:40:00 6.6 C 89 % 4.92 C
2566 08-03-2019 21:45:00 6.6 C 89 % 4.92 C
2567 08-03-2019 21:50:00 6.7 C 88 % 4.86 C
2568 08-03-2019 21:55:00 6.8 C 88 % 4.96 C
2569 08-03-2019 22:00:00 6.8 C 88 % 4.96 C
2570 08-03-2019 22:05:00 6.8 C 87 % 4.79 C
2571 08-03-2019 22:10:00 6.8 C 87 % 4.79 C
2572 08-03-2019 22:15:00 6.8 C 87 % 4.79 C
2573 08-03-2019 22:20:00 6.8 C 87 % 4.79 C
2574 08-03-2019 22:25:00 6.8 C 87 % 4.79 C
2575 08-03-2019 22:30:00 6.8 C 86 % 4.63 C
Sensor: Nr:Datum:Temp:Feuchte:Taupunkt:
Aussen-T/F 2576 08-03-2019 22:35:00 7 C 85 % 4.66 C
2577 08-03-2019 22:40:00 7.2 C 85 % 4.85 C
2578 08-03-2019 22:45:00 7.3 C 83 % 4.61 C
2579 08-03-2019 22:50:00 7.5 C 82 % 4.63 C
2580 08-03-2019 22:55:00 7.7 C 81 % 4.65 C
2581 08-03-2019 23:00:00 7.9 C 80 % 4.67 C
2582 08-03-2019 23:05:00 8.2 C 79 % 4.78 C
2583 08-03-2019 23:10:00 8.3 C 78 % 4.7 C
2584 08-03-2019 23:15:00 8.3 C 78 % 4.7 C
2585 08-03-2019 23:20:00 8.3 C 78 % 4.7 C
2586 08-03-2019 23:25:00 8.3 C 78 % 4.7 C
2587 08-03-2019 23:30:00 8.3 C 78 % 4.7 C
2588 08-03-2019 23:35:00 8.3 C 78 % 4.7 C
2589 08-03-2019 23:40:00 8.3 C 77 % 4.51 C
2590 08-03-2019 23:45:00 8.3 C 77 % 4.51 C
2591 08-03-2019 23:50:00 8.3 C 77 % 4.51 C
2592 08-03-2019 23:55:00 8.3 C 77 % 4.51 C
2593 09-03-2019 00:00:00 8.4 C 77 % 4.61 C
2594 09-03-2019 00:05:00 8.4 C 76 % 4.42 C
2595 09-03-2019 00:10:00 8.4 C 77 % 4.61 C
2596 09-03-2019 00:15:00 8.4 C 76 % 4.42 C
2597 09-03-2019 00:20:00 8.5 C 76 % 4.52 C
2598 09-03-2019 00:25:00 8.5 C 75 % 4.33 C
2599 09-03-2019 00:30:00 8.6 C 75 % 4.43 C
2600 09-03-2019 00:35:00 8.6 C 76 % 4.62 C
Sensor: Nr:Datum:Temp:Feuchte:Taupunkt:
Aussen-T/F 2601 09-03-2019 00:40:00 8.7 C 75 % 4.52 C
2602 09-03-2019 00:45:00 8.7 C 75 % 4.52 C
2603 09-03-2019 00:50:00 8.8 C 74 % 4.43 C
2604 09-03-2019 00:55:00 8.8 C 74 % 4.43 C
2605 09-03-2019 01:00:00 8.9 C 74 % 4.53 C
2606 09-03-2019 01:05:00 9 C 73 % 4.43 C
2607 09-03-2019 01:10:00 9.1 C 73 % 4.52 C
2608 09-03-2019 01:15:00 9.1 C 73 % 4.52 C
2609 09-03-2019 01:20:00 9.1 C 74 % 4.72 C
2610 09-03-2019 01:25:00 9.1 C 73 % 4.52 C
2611 09-03-2019 01:30:00 9.2 C 72 % 4.42 C
2612 09-03-2019 01:35:00 9.2 C 72 % 4.42 C
2613 09-03-2019 01:40:00 9.3 C 72 % 4.52 C
2614 09-03-2019 01:45:00 9.3 C 72 % 4.52 C
2615 09-03-2019 01:50:00 9.3 C 72 % 4.52 C
2616 09-03-2019 01:55:00 9.3 C 72 % 4.52 C
2617 09-03-2019 02:00:00 9.3 C 73 % 4.72 C
2618 09-03-2019 02:05:00 9.3 C 72 % 4.52 C
2619 09-03-2019 02:10:00 9.3 C 72 % 4.52 C
2620 09-03-2019 02:15:00 9.4 C 72 % 4.62 C
2621 09-03-2019 02:20:00 9.4 C 73 % 4.81 C
2622 09-03-2019 02:25:00 9.4 C 72 % 4.62 C
2623 09-03-2019 02:30:00 9.4 C 72 % 4.62 C
2624 09-03-2019 02:35:00 9.4 C 72 % 4.62 C
2625 09-03-2019 02:40:00 9.4 C 73 % 4.81 C
Sensor: Nr:Datum:Temp:Feuchte:Taupunkt:
Aussen-T/F 2626 09-03-2019 02:45:00 9.4 C 73 % 4.81 C
2627 09-03-2019 02:50:00 9.4 C 72 % 4.62 C
2628 09-03-2019 02:55:00 9.4 C 73 % 4.81 C
2629 09-03-2019 03:00:00 9.3 C 73 % 4.72 C
2630 09-03-2019 03:05:00 9.3 C 74 % 4.91 C
2631 09-03-2019 03:10:00 9.3 C 74 % 4.91 C
2632 09-03-2019 03:15:00 9.3 C 74 % 4.91 C
2633 09-03-2019 03:20:00 9.2 C 74 % 4.81 C
2634 09-03-2019 03:25:00 9.2 C 74 % 4.81 C
2635 09-03-2019 03:30:00 9.2 C 76 % 5.2 C
2636 09-03-2019 03:35:00 8.9 C 78 % 5.28 C
2637 09-03-2019 03:40:00 8.8 C 79 % 5.36 C
2638 09-03-2019 03:45:00 8.7 C 80 % 5.45 C
2639 09-03-2019 03:50:00 8.6 C 80 % 5.35 C
2640 09-03-2019 03:55:00 8.6 C 81 % 5.53 C
2641 09-03-2019 04:00:00 8.4 C 82 % 5.51 C
2642 09-03-2019 04:05:00 8.3 C 83 % 5.59 C
2643 09-03-2019 04:10:00 8.2 C 84 % 5.66 C
2644 09-03-2019 04:15:00 8.1 C 85 % 5.73 C
2645 09-03-2019 04:20:00 7.9 C 85 % 5.54 C
2646 09-03-2019 04:25:00 7.8 C 85 % 5.44 C
2647 09-03-2019 04:30:00 7.8 C 85 % 5.44 C
2648 09-03-2019 04:35:00 7.8 C 86 % 5.61 C
2649 09-03-2019 04:40:00 7.8 C 86 % 5.61 C
2650 09-03-2019 04:45:00 7.8 C 86 % 5.61 C
Sensor: Nr:Datum:Temp:Feuchte:Taupunkt:
Aussen-T/F 2651 09-03-2019 04:50:00 7.8 C 86 % 5.61 C
2652 09-03-2019 04:55:00 7.8 C 86 % 5.61 C
2653 09-03-2019 05:00:00 7.8 C 86 % 5.61 C
2654 09-03-2019 05:05:00 7.8 C 86 % 5.61 C
2655 09-03-2019 05:10:00 7.8 C 87 % 5.78 C
2656 09-03-2019 05:15:00 7.8 C 87 % 5.78 C
2657 09-03-2019 05:20:00 7.8 C 87 % 5.78 C
2658 09-03-2019 05:25:00 7.8 C 88 % 5.94 C
2659 09-03-2019 05:30:00 7.8 C 88 % 5.94 C
2660 09-03-2019 05:35:00 7.7 C 88 % 5.84 C
2661 09-03-2019 05:40:00 7.7 C 88 % 5.84 C
2662 09-03-2019 05:45:00 7.7 C 88 % 5.84 C
2663 09-03-2019 05:50:00 7.8 C 88 % 5.94 C
2664 09-03-2019 05:55:00 7.8 C 88 % 5.94 C
2665 09-03-2019 06:00:00 7.8 C 88 % 5.94 C
2666 09-03-2019 06:05:00 7.9 C 88 % 6.04 C
2667 09-03-2019 06:10:00 8 C 88 % 6.14 C
2668 09-03-2019 06:15:00 8 C 88 % 6.14 C
2669 09-03-2019 06:20:00 8.1 C 88 % 6.24 C
2670 09-03-2019 06:25:00 8.1 C 88 % 6.24 C
2671 09-03-2019 06:30:00 8.1 C 88 % 6.24 C
2672 09-03-2019 06:35:00 8.1 C 88 % 6.24 C
2673 09-03-2019 06:40:00 8.2 C 88 % 6.33 C
2674 09-03-2019 06:45:00 8.2 C 88 % 6.33 C
2675 09-03-2019 06:50:00 8.2 C 88 % 6.33 C
Sensor: Nr:Datum:Temp:Feuchte:Taupunkt:
Aussen-T/F 2676 09-03-2019 06:55:00 8.3 C 88 % 6.43 C
2677 09-03-2019 07:00:00 8.3 C 88 % 6.43 C
2678 09-03-2019 07:05:00 8.3 C 88 % 6.43 C
2679 09-03-2019 07:10:00 8.4 C 88 % 6.53 C
2680 09-03-2019 07:15:00 8.5 C 88 % 6.63 C
2681 09-03-2019 07:20:00 8.6 C 88 % 6.73 C
2682 09-03-2019 07:25:00 8.6 C 88 % 6.73 C
2683 09-03-2019 07:30:00 8.7 C 87 % 6.66 C
2684 09-03-2019 07:35:00 8.7 C 87 % 6.66 C
2685 09-03-2019 07:40:00 8.8 C 87 % 6.76 C
2686 09-03-2019 07:45:00 8.9 C 86 % 6.69 C
2687 09-03-2019 07:50:00 8.9 C 86 % 6.69 C
2688 09-03-2019 07:55:00 8.9 C 86 % 6.69 C
2689 09-03-2019 08:00:00 8.9 C 86 % 6.69 C
2690 09-03-2019 08:05:00 9 C 86 % 6.79 C
2691 09-03-2019 08:10:00 9.2 C 86 % 6.98 C
2692 09-03-2019 08:15:00 9.3 C 86 % 7.08 C
2693 09-03-2019 08:20:00 9.3 C 85 % 6.91 C
2694 09-03-2019 08:25:00 9.3 C 85 % 6.91 C
2695 09-03-2019 08:30:00 9.4 C 85 % 7.01 C
2696 09-03-2019 08:35:00 9.6 C 85 % 7.21 C
2697 09-03-2019 08:40:00 9.7 C 85 % 7.3 C
2698 09-03-2019 08:45:00 9.8 C 85 % 7.4 C
2699 09-03-2019 08:50:00 9.9 C 85 % 7.5 C
2700 09-03-2019 08:55:00 10 C 84 % 7.43 C
Sensor: Nr:Datum:Temp:Feuchte:Taupunkt:
Aussen-T/F 2701 09-03-2019 09:00:00 10.1 C 84 % 7.52 C
2702 09-03-2019 09:05:00 10.1 C 84 % 7.52 C
2703 09-03-2019 09:10:00 10.1 C 84 % 7.52 C
2704 09-03-2019 09:15:00 10.1 C 84 % 7.52 C
2705 09-03-2019 09:20:00 10.1 C 84 % 7.52 C
2706 09-03-2019 09:25:00 10.1 C 84 % 7.52 C
2707 09-03-2019 09:30:00 10.1 C 84 % 7.52 C
2708 09-03-2019 09:35:00 10.2 C 84 % 7.62 C
2709 09-03-2019 09:40:00 10.2 C 83 % 7.45 C
2710 09-03-2019 09:45:00 10.2 C 83 % 7.45 C
2711 09-03-2019 09:50:00 10.3 C 83 % 7.54 C
2712 09-03-2019 09:55:00 10.3 C 83 % 7.54 C
2713 09-03-2019 10:00:00 10.3 C 83 % 7.54 C
2714 09-03-2019 10:05:00 10.3 C 82 % 7.37 C
2715 09-03-2019 10:10:00 10.3 C 82 % 7.37 C
2716 09-03-2019 10:15:00 10.3 C 82 % 7.37 C
2717 09-03-2019 10:20:00 10.4 C 82 % 7.46 C
2718 09-03-2019 10:25:00 10.5 C 81 % 7.38 C
2719 09-03-2019 10:30:00 10.6 C 81 % 7.48 C
2720 09-03-2019 10:35:00 10.6 C 81 % 7.48 C
2721 09-03-2019 10:40:00 10.7 C 80 % 7.4 C
2722 09-03-2019 10:45:00 10.7 C 81 % 7.58 C
2723 09-03-2019 10:50:00 10.7 C 81 % 7.58 C
2724 09-03-2019 10:55:00 10.7 C 81 % 7.58 C
2725 09-03-2019 11:00:00 10.7 C 81 % 7.58 C
Sensor: Nr:Datum:Temp:Feuchte:Taupunkt:
Aussen-T/F 2726 09-03-2019 11:05:00 10.7 C 81 % 7.58 C
2727 09-03-2019 11:10:00 10.7 C 80 % 7.4 C
2728 09-03-2019 11:15:00 10.8 C 81 % 7.67 C
2729 09-03-2019 11:20:00 10.8 C 80 % 7.49 C
2730 09-03-2019 11:25:00 10.8 C 80 % 7.49 C
2731 09-03-2019 11:30:00 10.9 C 80 % 7.59 C
2732 09-03-2019 11:35:00 11 C 80 % 7.69 C
2733 09-03-2019 11:40:00 11.1 C 79 % 7.6 C
2734 09-03-2019 11:45:00 11.1 C 79 % 7.6 C
2735 09-03-2019 11:50:00 11.2 C 79 % 7.7 C
2736 09-03-2019 11:55:00 11.3 C 78 % 7.61 C
2737 09-03-2019 12:00:00 11.4 C 78 % 7.71 C
2738 09-03-2019 12:05:00 11.4 C 77 % 7.52 C
2739 09-03-2019 12:10:00 11.5 C 78 % 7.8 C
2740 09-03-2019 12:15:00 11.5 C 77 % 7.61 C
2741 09-03-2019 12:20:00 11.5 C 77 % 7.61 C
2742 09-03-2019 12:25:00 11.6 C 77 % 7.71 C
2743 09-03-2019 12:30:00 11.7 C 77 % 7.81 C
2744 09-03-2019 12:35:00 11.8 C 77 % 7.9 C
2745 09-03-2019 12:40:00 11.9 C 76 % 7.81 C
2746 09-03-2019 12:45:00 12.1 C 76 % 8 C
2747 09-03-2019 12:50:00 12.1 C 75 % 7.81 C
2748 09-03-2019 12:55:00 12.1 C 75 % 7.81 C
2749 09-03-2019 13:00:00 12.1 C 76 % 8 C
2750 09-03-2019 13:05:00 12.1 C 76 % 8 C
Sensor: Nr:Datum:Temp:Feuchte:Taupunkt:
Aussen-T/F 2751 09-03-2019 13:10:00 12.2 C 76 % 8.1 C
2752 09-03-2019 13:15:00 12.3 C 75 % 8 C
2753 09-03-2019 13:20:00 12.4 C 75 % 8.1 C
2754 09-03-2019 13:25:00 12.5 C 75 % 8.19 C
2755 09-03-2019 13:30:00 12.6 C 74 % 8.09 C
2756 09-03-2019 13:35:00 12.7 C 74 % 8.19 C
2757 09-03-2019 13:40:00 12.7 C 74 % 8.19 C
2758 09-03-2019 13:45:00 12.7 C 74 % 8.19 C
2759 09-03-2019 13:50:00 12.9 C 73 % 8.18 C
2760 09-03-2019 13:55:00 13.1 C 73 % 8.38 C
2761 09-03-2019 14:00:00 13.3 C 72 % 8.36 C
2762 09-03-2019 14:05:00 13.6 C 70 % 8.24 C
2763 09-03-2019 14:10:00 13.6 C 70 % 8.24 C
2764 09-03-2019 14:15:00 13.6 C 69 % 8.03 C
2765 09-03-2019 14:20:00 13.7 C 70 % 8.33 C
2766 09-03-2019 14:25:00 13.7 C 70 % 8.33 C
2767 09-03-2019 14:30:00 13.6 C 68 % 7.81 C
2768 09-03-2019 14:35:00 13.6 C 69 % 8.03 C
2769 09-03-2019 14:40:00 13.6 C 69 % 8.03 C
2770 09-03-2019 14:45:00 13.3 C 70 % 7.95 C
2771 09-03-2019 14:50:00 13.2 C 70 % 7.86 C
2772 09-03-2019 14:55:00 13 C 70 % 7.66 C
2773 09-03-2019 15:00:00 12.9 C 71 % 7.78 C
2774 09-03-2019 15:05:00 13 C 71 % 7.87 C
2775 09-03-2019 15:10:00 13.1 C 70 % 7.76 C
Sensor: Nr:Datum:Temp:Feuchte:Taupunkt:
Aussen-T/F 2776 09-03-2019 15:15:00 13.1 C 70 % 7.76 C
2777 09-03-2019 15:20:00 13.1 C 69 % 7.55 C
2778 09-03-2019 15:25:00 13.1 C 69 % 7.55 C
2779 09-03-2019 15:30:00 13.2 C 69 % 7.64 C
2780 09-03-2019 15:35:00 13.4 C 69 % 7.84 C
2781 09-03-2019 15:40:00 13.7 C 68 % 7.91 C
2782 09-03-2019 15:45:00 13.8 C 67 % 7.79 C
2783 09-03-2019 15:50:00 13.7 C 66 % 7.47 C
2784 09-03-2019 15:55:00 13.6 C 67 % 7.6 C
2785 09-03-2019 16:00:00 13.7 C 67 % 7.69 C
2786 09-03-2019 16:05:00 13.7 C 65 % 7.25 C
2787 09-03-2019 16:10:00 13.6 C 65 % 7.15 C
2788 09-03-2019 16:15:00 13.4 C 67 % 7.4 C
2789 09-03-2019 16:20:00 13.3 C 67 % 7.31 C
2790 09-03-2019 16:25:00 13.2 C 67 % 7.21 C
2791 09-03-2019 16:30:00 13.3 C 66 % 7.09 C
2792 09-03-2019 16:35:00 13.4 C 61 % 6.04 C
2793 09-03-2019 16:40:00 13.3 C 59 % 5.47 C
2794 09-03-2019 16:45:00 13.3 C 59 % 5.47 C
2795 09-03-2019 16:50:00 13.2 C 59 % 5.37 C
2796 09-03-2019 16:55:00 13.3 C 59 % 5.47 C
2797 09-03-2019 17:00:00 13.3 C 59 % 5.47 C
2798 09-03-2019 17:05:00 13.4 C 60 % 5.8 C
2799 09-03-2019 17:10:00 13.5 C 60 % 5.9 C
2800 09-03-2019 17:15:00 13.4 C 60 % 5.8 C
Sensor: Nr:Datum:Temp:Feuchte:Taupunkt:
Aussen-T/F 2801 09-03-2019 17:20:00 13.2 C 60 % 5.61 C
2802 09-03-2019 17:25:00 13.1 C 60 % 5.52 C
2803 09-03-2019 17:30:00 13.1 C 61 % 5.76 C
2804 09-03-2019 17:35:00 13.1 C 61 % 5.76 C
2805 09-03-2019 17:40:00 12.9 C 62 % 5.8 C
2806 09-03-2019 17:45:00 12.7 C 62 % 5.62 C
2807 09-03-2019 17:50:00 12.6 C 61 % 5.29 C
2808 09-03-2019 17:55:00 12.4 C 62 % 5.33 C
2809 09-03-2019 18:00:00 12.3 C 63 % 5.47 C
2810 09-03-2019 18:05:00 12.2 C 63 % 5.37 C
2811 09-03-2019 18:10:00 12.1 C 63 % 5.28 C
2812 09-03-2019 18:15:00 12 C 63 % 5.18 C
2813 09-03-2019 18:20:00 11.9 C 63 % 5.09 C
2814 09-03-2019 18:25:00 11.9 C 63 % 5.09 C
2815 09-03-2019 18:30:00 11.8 C 63 % 5 C
2816 09-03-2019 18:35:00 11.9 C 62 % 4.86 C
2817 09-03-2019 18:40:00 12 C 62 % 4.96 C
2818 09-03-2019 18:45:00 11.9 C 62 % 4.86 C
2819 09-03-2019 18:50:00 12.1 C 62 % 5.05 C
2820 09-03-2019 18:55:00 12.1 C 62 % 5.05 C
2821 09-03-2019 19:00:00 12.1 C 63 % 5.28 C
2822 09-03-2019 19:05:00 12 C 66 % 5.85 C
2823 09-03-2019 19:10:00 11.4 C 69 % 5.92 C
2824 09-03-2019 19:15:00 11.1 C 72 % 6.25 C
2825 09-03-2019 19:20:00 10.8 C 73 % 6.16 C
Sensor: Nr:Datum:Temp:Feuchte:Taupunkt:
Aussen-T/F 2826 09-03-2019 19:25:00 10.7 C 74 % 6.26 C
2827 09-03-2019 19:30:00 10.4 C 77 % 6.55 C
2828 09-03-2019 19:35:00 10.2 C 78 % 6.54 C
2829 09-03-2019 19:40:00 9.9 C 79 % 6.43 C
2830 09-03-2019 19:45:00 9.8 C 80 % 6.52 C
2831 09-03-2019 19:50:00 9.8 C 80 % 6.52 C
2832 09-03-2019 19:55:00 9.7 C 80 % 6.42 C
2833 09-03-2019 20:00:00 9.7 C 80 % 6.42 C
2834 09-03-2019 20:05:00 9.6 C 81 % 6.5 C
2835 09-03-2019 20:10:00 9.6 C 81 % 6.5 C
2836 09-03-2019 20:15:00 9.5 C 81 % 6.41 C
2837 09-03-2019 20:20:00 9.5 C 82 % 6.59 C
2838 09-03-2019 20:25:00 9.4 C 83 % 6.66 C
2839 09-03-2019 20:30:00 9.4 C 83 % 6.66 C
2840 09-03-2019 20:35:00 9.4 C 83 % 6.66 C
2841 09-03-2019 20:40:00 9.4 C 83 % 6.66 C
2842 09-03-2019 20:45:00 9.3 C 83 % 6.57 C
2843 09-03-2019 20:50:00 9.3 C 83 % 6.57 C
2844 09-03-2019 20:55:00 9.3 C 84 % 6.74 C
2845 09-03-2019 21:00:00 9.3 C 84 % 6.74 C
2846 09-03-2019 21:05:00 9.3 C 83 % 6.57 C
2847 09-03-2019 21:10:00 9.7 C 76 % 5.68 C
2848 09-03-2019 21:15:00 10.2 C 79 % 6.73 C
2849 09-03-2019 21:20:00 10.2 C 80 % 6.91 C
2850 09-03-2019 21:25:00 10 C 81 % 6.89 C
Sensor: Nr:Datum:Temp:Feuchte:Taupunkt:
Aussen-T/F 2851 09-03-2019 21:30:00 9.8 C 82 % 6.88 C
2852 09-03-2019 21:35:00 9.7 C 83 % 6.96 C
2853 09-03-2019 21:40:00 9.6 C 84 % 7.03 C
2854 09-03-2019 21:45:00 9.5 C 84 % 6.94 C
2855 09-03-2019 21:50:00 9.4 C 85 % 7.01 C
2856 09-03-2019 21:55:00 9.3 C 85 % 6.91 C
2857 09-03-2019 22:00:00 9.3 C 85 % 6.91 C
2858 09-03-2019 22:05:00 9.2 C 85 % 6.81 C
2859 09-03-2019 22:10:00 9.2 C 85 % 6.81 C
2860 09-03-2019 22:15:00 9.2 C 86 % 6.98 C
2861 09-03-2019 22:20:00 9.2 C 86 % 6.98 C
2862 09-03-2019 22:25:00 9.2 C 82 % 6.29 C
2863 09-03-2019 22:30:00 9.4 C 79 % 5.95 C
2864 09-03-2019 22:35:00 9.8 C 76 % 5.78 C
2865 09-03-2019 22:40:00 10 C 75 % 5.78 C
2866 09-03-2019 22:45:00 10.2 C 74 % 5.78 C
2867 09-03-2019 22:50:00 10.3 C 74 % 5.88 C
2868 09-03-2019 22:55:00 10.3 C 73 % 5.68 C
2869 09-03-2019 23:00:00 10.4 C 73 % 5.78 C
2870 09-03-2019 23:05:00 10.4 C 72 % 5.58 C
2871 09-03-2019 23:10:00 10.4 C 72 % 5.58 C
2872 09-03-2019 23:15:00 10.4 C 71 % 5.38 C
2873 09-03-2019 23:20:00 10.3 C 71 % 5.28 C
2874 09-03-2019 23:25:00 10.4 C 71 % 5.38 C
2875 09-03-2019 23:30:00 10.4 C 71 % 5.38 C
Sensor: Nr:Datum:Temp:Feuchte:Taupunkt:
Aussen-T/F 2876 09-03-2019 23:35:00 10.3 C 71 % 5.28 C
2877 09-03-2019 23:40:00 10.3 C 71 % 5.28 C
2878 09-03-2019 23:45:00 10.3 C 71 % 5.28 C
2879 09-03-2019 23:50:00 10.3 C 71 % 5.28 C
2880 09-03-2019 23:55:00 10.2 C 71 % 5.18 C
2881 10-03-2019 00:00:00 10.2 C 71 % 5.18 C
2882 10-03-2019 00:05:00 10.2 C 71 % 5.18 C
2883 10-03-2019 00:10:00 10.2 C 70 % 4.98 C
2884 10-03-2019 00:15:00 10.2 C 70 % 4.98 C
2885 10-03-2019 00:20:00 10.2 C 69 % 4.78 C
2886 10-03-2019 00:25:00 10.2 C 68 % 4.57 C
2887 10-03-2019 00:30:00 10.2 C 69 % 4.78 C
2888 10-03-2019 00:35:00 10.2 C 69 % 4.78 C
2889 10-03-2019 00:40:00 10.1 C 69 % 4.68 C
2890 10-03-2019 00:45:00 10 C 70 % 4.79 C
2891 10-03-2019 00:50:00 9.9 C 70 % 4.69 C
2892 10-03-2019 00:55:00 9.8 C 70 % 4.6 C
2893 10-03-2019 01:00:00 9.8 C 70 % 4.6 C
2894 10-03-2019 01:05:00 9.8 C 69 % 4.39 C
2895 10-03-2019 01:10:00 9.8 C 69 % 4.39 C
2896 10-03-2019 01:15:00 9.8 C 70 % 4.6 C
2897 10-03-2019 01:20:00 9.7 C 69 % 4.3 C
2898 10-03-2019 01:25:00 9.7 C 70 % 4.5 C
2899 10-03-2019 01:30:00 9.7 C 70 % 4.5 C
2900 10-03-2019 01:35:00 9.6 C 71 % 4.61 C
Sensor: Nr:Datum:Temp:Feuchte:Taupunkt:
Aussen-T/F 2901 10-03-2019 01:40:00 9.6 C 71 % 4.61 C
2902 10-03-2019 01:45:00 9.5 C 72 % 4.71 C
2903 10-03-2019 01:50:00 9.5 C 72 % 4.71 C
2904 10-03-2019 01:55:00 9.5 C 72 % 4.71 C
2905 10-03-2019 02:00:00 9.5 C 73 % 4.91 C
2906 10-03-2019 02:05:00 9.4 C 73 % 4.81 C
2907 10-03-2019 02:10:00 9.4 C 73 % 4.81 C
2908 10-03-2019 02:15:00 9.4 C 73 % 4.81 C
2909 10-03-2019 02:20:00 9.4 C 74 % 5.01 C
2910 10-03-2019 02:25:00 9.4 C 73 % 4.81 C
2911 10-03-2019 02:30:00 9.4 C 74 % 5.01 C
2912 10-03-2019 02:35:00 9.4 C 74 % 5.01 C
2913 10-03-2019 02:40:00 9.4 C 74 % 5.01 C
2914 10-03-2019 02:45:00 9.4 C 74 % 5.01 C
2915 10-03-2019 02:50:00 9.4 C 74 % 5.01 C
2916 10-03-2019 02:55:00 9.4 C 74 % 5.01 C
2917 10-03-2019 03:00:00 9.4 C 75 % 5.2 C
2918 10-03-2019 03:05:00 9.4 C 75 % 5.2 C
2919 10-03-2019 03:10:00 9.3 C 75 % 5.1 C
2920 10-03-2019 03:15:00 9.3 C 76 % 5.29 C
2921 10-03-2019 03:20:00 9.3 C 76 % 5.29 C
2922 10-03-2019 03:25:00 9.2 C 77 % 5.38 C
2923 10-03-2019 03:30:00 9.2 C 77 % 5.38 C
2924 10-03-2019 03:35:00 9.1 C 78 % 5.47 C
2925 10-03-2019 03:40:00 8.9 C 79 % 5.46 C
Sensor: Nr:Datum:Temp:Feuchte:Taupunkt:
Aussen-T/F 2926 10-03-2019 03:45:00 8.8 C 79 % 5.36 C
2927 10-03-2019 03:50:00 8.7 C 80 % 5.45 C
2928 10-03-2019 03:55:00 8.6 C 81 % 5.53 C
2929 10-03-2019 04:00:00 8.5 C 81 % 5.43 C
2930 10-03-2019 04:05:00 8.4 C 81 % 5.33 C
2931 10-03-2019 04:10:00 8.4 C 82 % 5.51 C
2932 10-03-2019 04:15:00 8.4 C 83 % 5.69 C
2933 10-03-2019 04:20:00 8.4 C 84 % 5.86 C
2934 10-03-2019 04:25:00 8.4 C 85 % 6.03 C
2935 10-03-2019 04:30:00 8.4 C 86 % 6.2 C
2936 10-03-2019 04:35:00 8.3 C 87 % 6.27 C
2937 10-03-2019 04:40:00 8.3 C 87 % 6.27 C
2938 10-03-2019 04:45:00 8.2 C 88 % 6.33 C
2939 10-03-2019 04:50:00 8.1 C 88 % 6.24 C
2940 10-03-2019 04:55:00 8.1 C 89 % 6.4 C
2941 10-03-2019 05:00:00 8 C 89 % 6.3 C
2942 10-03-2019 05:05:00 7.9 C 90 % 6.36 C
2943 10-03-2019 05:10:00 7.9 C 90 % 6.36 C
2944 10-03-2019 05:15:00 7.9 C 90 % 6.36 C
2945 10-03-2019 05:20:00 7.9 C 90 % 6.36 C
2946 10-03-2019 05:25:00 7.8 C 91 % 6.43 C
2947 10-03-2019 05:30:00 7.8 C 91 % 6.43 C
2948 10-03-2019 05:35:00 7.7 C 92 % 6.48 C
2949 10-03-2019 05:40:00 7.7 C 92 % 6.48 C
2950 10-03-2019 05:45:00 7.7 C 92 % 6.48 C
Sensor: Nr:Datum:Temp:Feuchte:Taupunkt:
Aussen-T/F 2951 10-03-2019 05:50:00 7.7 C 92 % 6.48 C
2952 10-03-2019 05:55:00 7.6 C 92 % 6.39 C
2953 10-03-2019 06:00:00 7.6 C 93 % 6.54 C
2954 10-03-2019 06:05:00 7.6 C 93 % 6.54 C
2955 10-03-2019 06:10:00 7.6 C 93 % 6.54 C
2956 10-03-2019 06:15:00 7.6 C 93 % 6.54 C
2957 10-03-2019 06:20:00 7.5 C 93 % 6.44 C
2958 10-03-2019 06:25:00 7.5 C 93 % 6.44 C
2959 10-03-2019 06:30:00 7.4 C 94 % 6.5 C
2960 10-03-2019 06:35:00 7.4 C 94 % 6.5 C
2961 10-03-2019 06:40:00 7.4 C 94 % 6.5 C
2962 10-03-2019 06:45:00 7.4 C 94 % 6.5 C
2963 10-03-2019 06:50:00 7.4 C 94 % 6.5 C
2964 10-03-2019 06:55:00 7.3 C 94 % 6.4 C
2965 10-03-2019 07:00:00 7.3 C 94 % 6.4 C
2966 10-03-2019 07:05:00 7.4 C 94 % 6.5 C
2967 10-03-2019 07:10:00 7.4 C 95 % 6.65 C
2968 10-03-2019 07:15:00 7.6 C 95 % 6.85 C
2969 10-03-2019 07:20:00 7.6 C 95 % 6.85 C
2970 10-03-2019 07:25:00 7.7 C 95 % 6.95 C
2971 10-03-2019 07:30:00 7.7 C 95 % 6.95 C
2972 10-03-2019 07:35:00 7.8 C 95 % 7.05 C
2973 10-03-2019 07:40:00 7.8 C 95 % 7.05 C
2974 10-03-2019 07:45:00 7.9 C 95 % 7.15 C
2975 10-03-2019 07:50:00 7.9 C 95 % 7.15 C
Sensor: Nr:Datum:Temp:Feuchte:Taupunkt:
Aussen-T/F 2976 10-03-2019 07:55:00 8 C 95 % 7.25 C
2977 10-03-2019 08:00:00 8.1 C 95 % 7.35 C
2978 10-03-2019 08:05:00 8.1 C 96 % 7.5 C
2979 10-03-2019 08:10:00 8.2 C 96 % 7.6 C
2980 10-03-2019 08:15:00 8.3 C 96 % 7.7 C
2981 10-03-2019 08:20:00 8.4 C 96 % 7.8 C
2982 10-03-2019 08:25:00 8.7 C 96 % 8.1 C
2983 10-03-2019 08:30:00 8.9 C 96 % 8.3 C
2984 10-03-2019 08:35:00 9.2 C 96 % 8.6 C
2985 10-03-2019 08:40:00 9.4 C 96 % 8.8 C
2986 10-03-2019 08:45:00 9.6 C 96 % 8.99 C
2987 10-03-2019 08:50:00 9.7 C 96 % 9.09 C
2988 10-03-2019 08:55:00 9.8 C 96 % 9.19 C
2989 10-03-2019 09:00:00 9.9 C 96 % 9.29 C
2990 10-03-2019 09:05:00 10.1 C 96 % 9.49 C
2991 10-03-2019 09:10:00 10.2 C 95 % 9.44 C
2992 10-03-2019 09:15:00 10.3 C 95 % 9.54 C
2993 10-03-2019 09:20:00 10.4 C 95 % 9.63 C
2994 10-03-2019 09:25:00 10.4 C 95 % 9.63 C
2995 10-03-2019 09:30:00 10.6 C 95 % 9.83 C
2996 10-03-2019 09:35:00 10.7 C 95 % 9.93 C
2997 10-03-2019 09:40:00 10.8 C 95 % 10.03 C
2998 10-03-2019 09:45:00 11.1 C 95 % 10.33 C
2999 10-03-2019 09:50:00 11.2 C 95 % 10.43 C
3000 10-03-2019 09:55:00 11.3 C 95 % 10.53 C
Sensor: Nr:Datum:Temp:Feuchte:Taupunkt:
Aussen-T/F 3001 10-03-2019 10:00:00 11.4 C 94 % 10.47 C
3002 10-03-2019 10:05:00 11.5 C 94 % 10.57 C
3003 10-03-2019 10:10:00 11.6 C 94 % 10.67 C
3004 10-03-2019 10:15:00 11.7 C 94 % 10.77 C
3005 10-03-2019 10:20:00 11.8 C 94 % 10.87 C
3006 10-03-2019 10:25:00 11.9 C 94 % 10.97 C
3007 10-03-2019 10:30:00 12 C 94 % 11.07 C
3008 10-03-2019 10:35:00 12.2 C 94 % 11.26 C
3009 10-03-2019 10:40:00 12.2 C 93 % 11.1 C
3010 10-03-2019 10:45:00 12.3 C 92 % 11.04 C
3011 10-03-2019 10:50:00 12.4 C 92 % 11.14 C
3012 10-03-2019 10:55:00 12.5 C 91 % 11.07 C
3013 10-03-2019 11:00:00 12.6 C 90 % 11 C
3014 10-03-2019 11:05:00 12.7 C 88 % 10.77 C
3015 10-03-2019 11:10:00 12.8 C 85 % 10.34 C
3016 10-03-2019 11:15:00 12.9 C 81 % 9.72 C
3017 10-03-2019 11:20:00 13.2 C 79 % 9.64 C
3018 10-03-2019 11:25:00 13.3 C 77 % 9.36 C
3019 10-03-2019 11:30:00 13.3 C 75 % 8.97 C
3020 10-03-2019 11:35:00 13.3 C 74 % 8.77 C
3021 10-03-2019 11:40:00 13.3 C 74 % 8.77 C
3022 10-03-2019 11:45:00 13.3 C 75 % 8.97 C
3023 10-03-2019 11:50:00 13.4 C 74 % 8.87 C
3024 10-03-2019 11:55:00 13.6 C 73 % 8.86 C
3025 10-03-2019 12:00:00 13.7 C 75 % 9.35 C
Sensor: Nr:Datum:Temp:Feuchte:Taupunkt:
Aussen-T/F 3026 10-03-2019 12:05:00 13.8 C 75 % 9.45 C
3027 10-03-2019 12:10:00 13.9 C 73 % 9.15 C
3028 10-03-2019 12:15:00 14.1 C 72 % 9.13 C
3029 10-03-2019 12:20:00 14.1 C 71 % 8.93 C
3030 10-03-2019 12:25:00 14.2 C 71 % 9.02 C
3031 10-03-2019 12:30:00 14.3 C 71 % 9.12 C
3032 10-03-2019 12:35:00 14.3 C 70 % 8.91 C
3033 10-03-2019 12:40:00 14.3 C 72 % 9.33 C
3034 10-03-2019 12:45:00 14.3 C 72 % 9.33 C
3035 10-03-2019 12:50:00 14.3 C 73 % 9.53 C
3036 10-03-2019 12:55:00 14.2 C 72 % 9.23 C
3037 10-03-2019 13:00:00 14.1 C 72 % 9.13 C
3038 10-03-2019 13:05:00 13.9 C 71 % 8.73 C
3039 10-03-2019 13:10:00 13.9 C 69 % 8.31 C
3040 10-03-2019 13:15:00 13.9 C 69 % 8.31 C
3041 10-03-2019 13:20:00 14 C 69 % 8.41 C
3042 10-03-2019 13:25:00 14.1 C 68 % 8.29 C
3043 10-03-2019 13:30:00 14.2 C 68 % 8.39 C
3044 10-03-2019 13:35:00 14.6 C 64 % 7.87 C
3045 10-03-2019 13:40:00 14.9 C 59 % 6.97 C
3046 10-03-2019 13:45:00 15.1 C 57 % 6.65 C
3047 10-03-2019 13:50:00 15.1 C 56 % 6.4 C
3048 10-03-2019 13:55:00 15 C 53 % 5.51 C
3049 10-03-2019 14:00:00 14.9 C 52 % 5.14 C
3050 10-03-2019 14:05:00 14.8 C 51 % 4.77 C
Sensor: Nr:Datum:Temp:Feuchte:Taupunkt:
Aussen-T/F 3051 10-03-2019 14:10:00 14.8 C 52 % 5.05 C
3052 10-03-2019 14:15:00 14.7 C 52 % 4.96 C
3053 10-03-2019 14:20:00 14.6 C 53 % 5.14 C
3054 10-03-2019 14:25:00 14.4 C 52 % 4.68 C
3055 10-03-2019 14:30:00 14.3 C 52 % 4.59 C
3056 10-03-2019 14:35:00 14.2 C 52 % 4.5 C
3057 10-03-2019 14:40:00 14.2 C 52 % 4.5 C
3058 10-03-2019 14:45:00 14.1 C 53 % 4.68 C
3059 10-03-2019 14:50:00 14 C 51 % 4.04 C
3060 10-03-2019 14:55:00 13.9 C 52 % 4.22 C
3061 10-03-2019 15:00:00 13.9 C 52 % 4.22 C
3062 10-03-2019 15:05:00 13.8 C 51 % 3.85 C
3063 10-03-2019 15:10:00 13.7 C 52 % 4.03 C
3064 10-03-2019 15:15:00 13.5 C 51 % 3.57 C
3065 10-03-2019 15:20:00 13.4 C 50 % 3.2 C
3066 10-03-2019 15:25:00 13.4 C 51 % 3.48 C
3067 10-03-2019 15:30:00 13.4 C 48 % 2.63 C
3068 10-03-2019 15:35:00 13.5 C 48 % 2.72 C
3069 10-03-2019 15:40:00 13.6 C 50 % 3.39 C
3070 10-03-2019 15:45:00 13.7 C 49 % 3.19 C
3071 10-03-2019 15:50:00 13.5 C 51 % 3.57 C
3072 10-03-2019 15:55:00 13.3 C 50 % 3.11 C
3073 10-03-2019 16:00:00 13.2 C 50 % 3.02 C
3074 10-03-2019 16:05:00 13 C 51 % 3.11 C
3075 10-03-2019 16:10:00 12.8 C 51 % 2.93 C
Sensor: Nr:Datum:Temp:Feuchte:Taupunkt:
Aussen-T/F 3076 10-03-2019 16:15:00 12.6 C 52 % 3.02 C
3077 10-03-2019 16:20:00 12.5 C 51 % 2.65 C
3078 10-03-2019 16:25:00 12.4 C 50 % 2.28 C
3079 10-03-2019 16:30:00 12.4 C 50 % 2.28 C
3080 10-03-2019 16:35:00 12.6 C 49 % 2.18 C
3081 10-03-2019 16:40:00 12.4 C 48 % 1.71 C
3082 10-03-2019 16:45:00 12.3 C 49 % 1.91 C
3083 10-03-2019 16:50:00 12.2 C 50 % 2.1 C
3084 10-03-2019 16:55:00 12 C 51 % 2.19 C
3085 10-03-2019 17:00:00 11.9 C 51 % 2.1 C
3086 10-03-2019 17:05:00 11.7 C 51 % 1.91 C
3087 10-03-2019 17:10:00 11.6 C 51 % 1.82 C
3088 10-03-2019 17:15:00 11.6 C 51 % 1.82 C
3089 10-03-2019 17:20:00 11.4 C 59 % 3.68 C
3090 10-03-2019 17:25:00 10.7 C 64 % 4.18 C
3091 10-03-2019 17:30:00 9.9 C 69 % 4.49 C
3092 10-03-2019 17:35:00 9.4 C 71 % 4.42 C
3093 10-03-2019 17:40:00 9.2 C 71 % 4.22 C
3094 10-03-2019 17:45:00 9.1 C 72 % 4.33 C
3095 10-03-2019 17:50:00 9.1 C 73 % 4.52 C
3096 10-03-2019 17:55:00 9 C 72 % 4.23 C
3097 10-03-2019 18:00:00 9 C 72 % 4.23 C
3098 10-03-2019 18:05:00 9.1 C 73 % 4.52 C
3099 10-03-2019 18:10:00 8.7 C 76 % 4.71 C
3100 10-03-2019 18:15:00 8 C 79 % 4.59 C
Sensor: Nr:Datum:Temp:Feuchte:Taupunkt:
Aussen-T/F 3101 10-03-2019 18:20:00 7.7 C 81 % 4.65 C
3102 10-03-2019 18:25:00 7.5 C 82 % 4.63 C
3103 10-03-2019 18:30:00 7.3 C 83 % 4.61 C
3104 10-03-2019 18:35:00 7.1 C 83 % 4.41 C
3105 10-03-2019 18:40:00 7.1 C 84 % 4.58 C
3106 10-03-2019 18:45:00 7 C 84 % 4.49 C
3107 10-03-2019 18:50:00 6.9 C 83 % 4.22 C
3108 10-03-2019 18:55:00 6.9 C 83 % 4.22 C
3109 10-03-2019 19:00:00 6.9 C 81 % 3.87 C
3110 10-03-2019 19:05:00 6.9 C 81 % 3.87 C
3111 10-03-2019 19:10:00 6.8 C 81 % 3.77 C
3112 10-03-2019 19:15:00 6.8 C 81 % 3.77 C
3113 10-03-2019 19:20:00 6.8 C 81 % 3.77 C
3114 10-03-2019 19:25:00 6.8 C 80 % 3.6 C
3115 10-03-2019 19:30:00 6.8 C 79 % 3.42 C
3116 10-03-2019 19:35:00 6.9 C 78 % 3.34 C
3117 10-03-2019 19:40:00 7 C 77 % 3.25 C
3118 10-03-2019 19:45:00 7.1 C 75 % 2.98 C
3119 10-03-2019 19:50:00 7.2 C 75 % 3.07 C
3120 10-03-2019 19:55:00 7.3 C 74 % 2.98 C
3121 10-03-2019 20:00:00 7.3 C 73 % 2.79 C
3122 10-03-2019 20:05:00 7.3 C 72 % 2.6 C
3123 10-03-2019 20:10:00 7.2 C 73 % 2.69 C
3124 10-03-2019 20:15:00 6.6 C 73 % 2.12 C
3125 10-03-2019 20:20:00 6 C 74 % 1.73 C
Sensor: Nr:Datum:Temp:Feuchte:Taupunkt:
Aussen-T/F 3126 10-03-2019 20:25:00 5.7 C 75 % 1.62 C
3127 10-03-2019 20:30:00 5.6 C 76 % 1.71 C
3128 10-03-2019 20:35:00 5.6 C 77 % 1.89 C
3129 10-03-2019 20:40:00 5.4 C 77 % 1.7 C
3130 10-03-2019 20:45:00 5.4 C 78 % 1.88 C
3131 10-03-2019 20:50:00 5.4 C 78 % 1.88 C
3132 10-03-2019 20:55:00 5.4 C 79 % 2.06 C
3133 10-03-2019 21:00:00 5.3 C 79 % 1.96 C
3134 10-03-2019 21:05:00 5.3 C 79 % 1.96 C
3135 10-03-2019 21:10:00 5.2 C 79 % 1.86 C
3136 10-03-2019 21:15:00 5.2 C 80 % 2.04 C
3137 10-03-2019 21:20:00 5.2 C 80 % 2.04 C
3138 10-03-2019 21:25:00 5.1 C 80 % 1.94 C
3139 10-03-2019 21:30:00 5.1 C 80 % 1.94 C
3140 10-03-2019 21:35:00 5.2 C 80 % 2.04 C
3141 10-03-2019 21:40:00 5.3 C 79 % 1.96 C
3142 10-03-2019 21:45:00 5.3 C 78 % 1.78 C
3143 10-03-2019 21:50:00 5.2 C 78 % 1.69 C
3144 10-03-2019 21:55:00 5.2 C 78 % 1.69 C
3145 10-03-2019 22:00:00 5.1 C 78 % 1.59 C
3146 10-03-2019 22:05:00 4.9 C 78 % 1.39 C
3147 10-03-2019 22:10:00 4.9 C 79 % 1.57 C
3148 10-03-2019 22:15:00 4.9 C 80 % 1.75 C
3149 10-03-2019 22:20:00 5 C 80 % 1.84 C
3150 10-03-2019 22:25:00 5.1 C 80 % 1.94 C
Sensor: Nr:Datum:Temp:Feuchte:Taupunkt:
Aussen-T/F 3151 10-03-2019 22:30:00 5.2 C 80 % 2.04 C
3152 10-03-2019 22:35:00 5.2 C 80 % 2.04 C
3153 10-03-2019 22:40:00 5.2 C 81 % 2.21 C
3154 10-03-2019 22:45:00 5.2 C 81 % 2.21 C
3155 10-03-2019 22:50:00 5.1 C 81 % 2.12 C
3156 10-03-2019 22:55:00 4.9 C 81 % 1.92 C
3157 10-03-2019 23:00:00 4.9 C 81 % 1.92 C
3158 10-03-2019 23:05:00 4.8 C 81 % 1.82 C
3159 10-03-2019 23:10:00 4.8 C 81 % 1.82 C
3160 10-03-2019 23:15:00 4.8 C 81 % 1.82 C
3161 10-03-2019 23:20:00 4.9 C 81 % 1.92 C
3162 10-03-2019 23:25:00 4.9 C 80 % 1.75 C
3163 10-03-2019 23:30:00 5 C 80 % 1.84 C
3164 10-03-2019 23:35:00 4.9 C 80 % 1.75 C
3165 10-03-2019 23:40:00 4.9 C 80 % 1.75 C
3166 10-03-2019 23:45:00 4.8 C 80 % 1.65 C
3167 10-03-2019 23:50:00 4.8 C 80 % 1.65 C
3168 10-03-2019 23:55:00 4.8 C 80 % 1.65 C
3169 11-03-2019 00:00:00 4.7 C 80 % 1.55 C
3170 11-03-2019 00:05:00 4.6 C 80 % 1.46 C
3171 11-03-2019 00:10:00 4.5 C 80 % 1.36 C
3172 11-03-2019 00:15:00 4.4 C 81 % 1.43 C
3173 11-03-2019 00:20:00 4.3 C 81 % 1.34 C
3174 11-03-2019 00:25:00 4.2 C 81 % 1.24 C
3175 11-03-2019 00:30:00 4.2 C 81 % 1.24 C
Sensor: Nr:Datum:Temp:Feuchte:Taupunkt:
Aussen-T/F 3176 11-03-2019 00:35:00 4.2 C 82 % 1.41 C
3177 11-03-2019 00:40:00 4.2 C 82 % 1.41 C
3178 11-03-2019 00:45:00 4.2 C 82 % 1.41 C
3179 11-03-2019 00:50:00 4.3 C 82 % 1.51 C
3180 11-03-2019 00:55:00 4.3 C 81 % 1.34 C
3181 11-03-2019 01:00:00 4.3 C 81 % 1.34 C
3182 11-03-2019 01:05:00 4.4 C 81 % 1.43 C
3183 11-03-2019 01:10:00 4.4 C 80 % 1.26 C
3184 11-03-2019 01:15:00 4.5 C 80 % 1.36 C
3185 11-03-2019 01:20:00 4.5 C 80 % 1.36 C
3186 11-03-2019 01:25:00 4.4 C 80 % 1.26 C
3187 11-03-2019 01:30:00 4.3 C 80 % 1.16 C
3188 11-03-2019 01:35:00 4.4 C 80 % 1.26 C
3189 11-03-2019 01:40:00 4.5 C 79 % 1.18 C
3190 11-03-2019 01:45:00 4.7 C 79 % 1.38 C
3191 11-03-2019 01:50:00 4.8 C 78 % 1.3 C
3192 11-03-2019 01:55:00 4.9 C 78 % 1.39 C
3193 11-03-2019 02:00:00 5 C 78 % 1.49 C
3194 11-03-2019 02:05:00 5.2 C 77 % 1.51 C
3195 11-03-2019 02:10:00 5.4 C 77 % 1.7 C
3196 11-03-2019 02:15:00 5.4 C 77 % 1.7 C
3197 11-03-2019 02:20:00 5.3 C 78 % 1.78 C
3198 11-03-2019 02:25:00 5.2 C 79 % 1.86 C
3199 11-03-2019 02:30:00 5.1 C 80 % 1.94 C
3200 11-03-2019 02:35:00 5 C 80 % 1.84 C
Sensor: Nr:Datum:Temp:Feuchte:Taupunkt:
Aussen-T/F 3201 11-03-2019 02:40:00 4.9 C 80 % 1.75 C
3202 11-03-2019 02:45:00 4.9 C 80 % 1.75 C
3203 11-03-2019 02:50:00 4.9 C 80 % 1.75 C
3204 11-03-2019 02:55:00 5 C 81 % 2.02 C
3205 11-03-2019 03:00:00 5 C 81 % 2.02 C
3206 11-03-2019 03:05:00 5 C 81 % 2.02 C
3207 11-03-2019 03:10:00 5 C 82 % 2.19 C
3208 11-03-2019 03:15:00 4.9 C 81 % 1.92 C
3209 11-03-2019 03:20:00 4.3 C 83 % 1.67 C
3210 11-03-2019 03:25:00 3.7 C 85 % 1.42 C
3211 11-03-2019 03:30:00 3.3 C 86 % 1.19 C
3212 11-03-2019 03:35:00 2.9 C 87 % 0.96 C
3213 11-03-2019 03:40:00 2.6 C 88 % 0.82 C
3214 11-03-2019 03:45:00 2.5 C 89 % 0.88 C
3215 11-03-2019 03:50:00 2.4 C 90 % 0.93 C
3216 11-03-2019 03:55:00 2.3 C 91 % 0.99 C
3217 11-03-2019 04:00:00 2.3 C 91 % 0.99 C
3218 11-03-2019 04:05:00 2.3 C 92 % 1.14 C
3219 11-03-2019 04:10:00 2.3 C 92 % 1.14 C
3220 11-03-2019 04:15:00 2.3 C 92 % 1.14 C
3221 11-03-2019 04:20:00 2.3 C 93 % 1.29 C
3222 11-03-2019 04:25:00 2.3 C 93 % 1.29 C
3223 11-03-2019 04:30:00 2.4 C 93 % 1.39 C
3224 11-03-2019 04:35:00 2.5 C 93 % 1.49 C
3225 11-03-2019 04:40:00 2.5 C 93 % 1.49 C
Sensor: Nr:Datum:Temp:Feuchte:Taupunkt:
Aussen-T/F 3226 11-03-2019 04:45:00 2.4 C 93 % 1.39 C
3227 11-03-2019 04:50:00 2.4 C 93 % 1.39 C
3228 11-03-2019 04:55:00 2.4 C 93 % 1.39 C
3229 11-03-2019 05:00:00 2.4 C 94 % 1.54 C
3230 11-03-2019 05:05:00 2.5 C 94 % 1.63 C
3231 11-03-2019 05:10:00 2.4 C 93 % 1.39 C
3232 11-03-2019 05:15:00 2.3 C 93 % 1.29 C
3233 11-03-2019 05:20:00 2.2 C 93 % 1.19 C
3234 11-03-2019 05:25:00 2.2 C 93 % 1.19 C
3235 11-03-2019 05:30:00 2.2 C 93 % 1.19 C
3236 11-03-2019 05:35:00 2.1 C 92 % 0.94 C
3237 11-03-2019 05:40:00 2 C 92 % 0.84 C
3238 11-03-2019 05:45:00 2 C 92 % 0.84 C
3239 11-03-2019 05:50:00 2.1 C 92 % 0.94 C
3240 11-03-2019 05:55:00 2.1 C 92 % 0.94 C
3241 11-03-2019 06:00:00 2.2 C 92 % 1.04 C
3242 11-03-2019 06:05:00 2.1 C 92 % 0.94 C
3243 11-03-2019 06:10:00 1.9 C 92 % 0.74 C
3244 11-03-2019 06:15:00 1.8 C 92 % 0.64 C
3245 11-03-2019 06:20:00 1.8 C 92 % 0.64 C
3246 11-03-2019 06:25:00 1.7 C 92 % 0.54 C
3247 11-03-2019 06:30:00 1.7 C 93 % 0.69 C
3248 11-03-2019 06:35:00 1.6 C 93 % 0.59 C
3249 11-03-2019 06:40:00 1.6 C 93 % 0.59 C
3250 11-03-2019 06:45:00 1.6 C 93 % 0.59 C
Sensor: Nr:Datum:Temp:Feuchte:Taupunkt:
Aussen-T/F 3251 11-03-2019 06:50:00 1.5 C 93 % 0.49 C
3252 11-03-2019 06:55:00 1.4 C 93 % 0.4 C
3253 11-03-2019 07:00:00 1.4 C 93 % 0.4 C
3254 11-03-2019 07:05:00 1.4 C 93 % 0.4 C
3255 11-03-2019 07:10:00 1.4 C 94 % 0.54 C
3256 11-03-2019 07:15:00 1.3 C 94 % 0.44 C
3257 11-03-2019 07:20:00 1.3 C 94 % 0.44 C
3258 11-03-2019 07:25:00 1.4 C 94 % 0.54 C
3259 11-03-2019 07:30:00 1.4 C 94 % 0.54 C
3260 11-03-2019 07:35:00 1.5 C 94 % 0.64 C
3261 11-03-2019 07:40:00 1.7 C 95 % 0.99 C
3262 11-03-2019 07:45:00 1.8 C 95 % 1.09 C
3263 11-03-2019 07:50:00 1.8 C 95 % 1.09 C
3264 11-03-2019 07:55:00 1.9 C 95 % 1.19 C
3265 11-03-2019 08:00:00 1.9 C 95 % 1.19 C
3266 11-03-2019 08:05:00 2 C 95 % 1.29 C
3267 11-03-2019 08:10:00 2 C 95 % 1.29 C
3268 11-03-2019 08:15:00 2 C 95 % 1.29 C
3269 11-03-2019 08:20:00 2.1 C 95 % 1.38 C
3270 11-03-2019 08:25:00 2.2 C 95 % 1.48 C
3271 11-03-2019 08:30:00 2.3 C 95 % 1.58 C
3272 11-03-2019 08:35:00 2.4 C 95 % 1.68 C
3273 11-03-2019 08:40:00 2.5 C 95 % 1.78 C
3274 11-03-2019 08:45:00 2.7 C 95 % 1.98 C
3275 11-03-2019 08:50:00 2.8 C 95 % 2.08 C
Sensor: Nr:Datum:Temp:Feuchte:Taupunkt:
Aussen-T/F 3276 11-03-2019 08:55:00 2.9 C 95 % 2.18 C
3277 11-03-2019 09:00:00 3 C 94 % 2.13 C
3278 11-03-2019 09:05:00 3 C 93 % 1.98 C
3279 11-03-2019 09:10:00 3.2 C 91 % 1.88 C
3280 11-03-2019 09:15:00 3.3 C 89 % 1.67 C
3281 11-03-2019 09:20:00 3.4 C 89 % 1.76 C
3282 11-03-2019 09:25:00 3.6 C 87 % 1.64 C
3283 11-03-2019 09:30:00 3.7 C 86 % 1.58 C
3284 11-03-2019 09:35:00 3.6 C 87 % 1.64 C
3285 11-03-2019 09:40:00 3.4 C 88 % 1.61 C
3286 11-03-2019 09:45:00 3.3 C 89 % 1.67 C
3287 11-03-2019 09:50:00 3.3 C 90 % 1.82 C
3288 11-03-2019 09:55:00 3.3 C 90 % 1.82 C
3289 11-03-2019 10:00:00 3.4 C 91 % 2.07 C
3290 11-03-2019 10:05:00 3.5 C 91 % 2.17 C
3291 11-03-2019 10:10:00 3.6 C 91 % 2.27 C
3292 11-03-2019 10:15:00 3.8 C 91 % 2.47 C
3293 11-03-2019 10:20:00 3.9 C 91 % 2.57 C
3294 11-03-2019 10:25:00 4.1 C 89 % 2.45 C
3295 11-03-2019 10:30:00 4.1 C 88 % 2.3 C
3296 11-03-2019 10:35:00 4.1 C 87 % 2.14 C
3297 11-03-2019 10:40:00 4.2 C 86 % 2.07 C
3298 11-03-2019 10:45:00 4.1 C 85 % 1.81 C
3299 11-03-2019 10:50:00 4.1 C 85 % 1.81 C
3300 11-03-2019 10:55:00 4.2 C 85 % 1.91 C
Sensor: Nr:Datum:Temp:Feuchte:Taupunkt:
Aussen-T/F 3301 11-03-2019 11:00:00 4.3 C 86 % 2.17 C
3302 11-03-2019 11:05:00 4.4 C 86 % 2.27 C
3303 11-03-2019 11:10:00 4.6 C 85 % 2.3 C
3304 11-03-2019 11:15:00 4.6 C 84 % 2.14 C
3305 11-03-2019 11:20:00 4.6 C 83 % 1.97 C
3306 11-03-2019 11:25:00 4.7 C 84 % 2.23 C
3307 11-03-2019 11:30:00 4.9 C 83 % 2.26 C
3308 11-03-2019 11:35:00 5.2 C 81 % 2.21 C
3309 11-03-2019 11:40:00 5.3 C 79 % 1.96 C
3310 11-03-2019 11:45:00 5.3 C 79 % 1.96 C
3311 11-03-2019 11:50:00 5.3 C 79 % 1.96 C
3312 11-03-2019 11:55:00 5.3 C 79 % 1.96 C
3313 11-03-2019 12:00:00 5.3 C 79 % 1.96 C
3314 11-03-2019 12:05:00 5.3 C 78 % 1.78 C
3315 11-03-2019 12:10:00 5.3 C 77 % 1.6 C
3316 11-03-2019 12:15:00 5.4 C 77 % 1.7 C
3317 11-03-2019 12:20:00 5.5 C 76 % 1.62 C
3318 11-03-2019 12:25:00 5.6 C 77 % 1.89 C
3319 11-03-2019 12:30:00 5.6 C 76 % 1.71 C
3320 11-03-2019 12:35:00 5.7 C 76 % 1.81 C
3321 11-03-2019 12:40:00 5.8 C 75 % 1.72 C
3322 11-03-2019 12:45:00 5.8 C 75 % 1.72 C
3323 11-03-2019 12:50:00 5.9 C 76 % 2 C
3324 11-03-2019 12:55:00 6.1 C 74 % 1.82 C
3325 11-03-2019 13:00:00 6.1 C 73 % 1.63 C
Sensor: Nr:Datum:Temp:Feuchte:Taupunkt:
Aussen-T/F 3326 11-03-2019 13:05:00 6.1 C 73 % 1.63 C
3327 11-03-2019 13:10:00 6.1 C 72 % 1.44 C
3328 11-03-2019 13:15:00 6.1 C 73 % 1.63 C
3329 11-03-2019 13:20:00 6.1 C 73 % 1.63 C
3330 11-03-2019 13:25:00 6.3 C 72 % 1.63 C
3331 11-03-2019 13:30:00 6.3 C 72 % 1.63 C
3332 11-03-2019 13:35:00 6.7 C 73 % 2.21 C
3333 11-03-2019 13:40:00 7.2 C 71 % 2.3 C
3334 11-03-2019 13:45:00 7.5 C 70 % 2.39 C
3335 11-03-2019 13:50:00 7.4 C 69 % 2.1 C
3336 11-03-2019 13:55:00 7 C 71 % 2.11 C
3337 11-03-2019 14:00:00 6.8 C 72 % 2.12 C
3338 11-03-2019 14:05:00 6.6 C 71 % 1.73 C
3339 11-03-2019 14:10:00 6.7 C 73 % 2.21 C
3340 11-03-2019 14:15:00 6.8 C 72 % 2.12 C
3341 11-03-2019 14:20:00 6.8 C 72 % 2.12 C
3342 11-03-2019 14:25:00 6.9 C 71 % 2.02 C
3343 11-03-2019 14:30:00 7.1 C 71 % 2.21 C
3344 11-03-2019 14:35:00 7.2 C 71 % 2.3 C
3345 11-03-2019 14:40:00 7.4 C 67 % 1.69 C
3346 11-03-2019 14:45:00 7.4 C 67 % 1.69 C
3347 11-03-2019 14:50:00 7.4 C 68 % 1.89 C
3348 11-03-2019 14:55:00 7.4 C 67 % 1.69 C
3349 11-03-2019 15:00:00 7.4 C 67 % 1.69 C
3350 11-03-2019 15:05:00 7.4 C 67 % 1.69 C
Sensor: Nr:Datum:Temp:Feuchte:Taupunkt:
Aussen-T/F 3351 11-03-2019 15:10:00 7.5 C 67 % 1.78 C
3352 11-03-2019 15:15:00 7.6 C 67 % 1.88 C
3353 11-03-2019 15:20:00 7.5 C 66 % 1.57 C
3354 11-03-2019 15:25:00 7.6 C 67 % 1.88 C
3355 11-03-2019 15:30:00 7.8 C 67 % 2.07 C
3356 11-03-2019 15:35:00 7.9 C 66 % 1.95 C
3357 11-03-2019 15:40:00 7.8 C 66 % 1.86 C
3358 11-03-2019 15:45:00 7.7 C 67 % 1.97 C
3359 11-03-2019 15:50:00 7.7 C 67 % 1.97 C
3360 11-03-2019 15:55:00 7.7 C 67 % 1.97 C
3361 11-03-2019 16:00:00 7.5 C 67 % 1.78 C
3362 11-03-2019 16:05:00 7.3 C 68 % 1.8 C
3363 11-03-2019 16:10:00 7.3 C 68 % 1.8 C
3364 11-03-2019 16:15:00 7.2 C 68 % 1.7 C
3365 11-03-2019 16:20:00 7.2 C 68 % 1.7 C
3366 11-03-2019 16:25:00 7.2 C 68 % 1.7 C
3367 11-03-2019 16:30:00 7.3 C 68 % 1.8 C
3368 11-03-2019 16:35:00 7.3 C 69 % 2 C
3369 11-03-2019 16:40:00 7.3 C 68 % 1.8 C
3370 11-03-2019 16:45:00 7.2 C 68 % 1.7 C
3371 11-03-2019 16:50:00 7.2 C 68 % 1.7 C
3372 11-03-2019 16:55:00 7.2 C 71 % 2.3 C
3373 11-03-2019 17:00:00 7 C 71 % 2.11 C
3374 11-03-2019 17:05:00 6.7 C 72 % 2.02 C
3375 11-03-2019 17:10:00 6.6 C 73 % 2.12 C
Sensor: Nr:Datum:Temp:Feuchte:Taupunkt:
Aussen-T/F 3376 11-03-2019 17:15:00 6.4 C 73 % 1.92 C
3377 11-03-2019 17:20:00 6.6 C 75 % 2.49 C
3378 11-03-2019 17:25:00 7 C 74 % 2.69 C
3379 11-03-2019 17:30:00 7.3 C 70 % 2.2 C
3380 11-03-2019 17:35:00 7.6 C 68 % 2.08 C
3381 11-03-2019 17:40:00 7.7 C 66 % 1.76 C
3382 11-03-2019 17:45:00 7.7 C 67 % 1.97 C
3383 11-03-2019 17:50:00 7.7 C 67 % 1.97 C
3384 11-03-2019 17:55:00 7.8 C 66 % 1.86 C
3385 11-03-2019 18:00:00 7.8 C 66 % 1.86 C
3386 11-03-2019 18:05:00 7.7 C 65 % 1.55 C
3387 11-03-2019 18:10:00 7.7 C 66 % 1.76 C
3388 11-03-2019 18:15:00 7.4 C 66 % 1.48 C
3389 11-03-2019 18:20:00 7.1 C 67 % 1.4 C
3390 11-03-2019 18:25:00 6.9 C 68 % 1.41 C
3391 11-03-2019 18:30:00 6.7 C 70 % 1.63 C
3392 11-03-2019 18:35:00 6.6 C 70 % 1.53 C
3393 11-03-2019 18:40:00 6.4 C 71 % 1.54 C
3394 11-03-2019 18:45:00 6.4 C 72 % 1.73 C
3395 11-03-2019 18:50:00 6.3 C 71 % 1.44 C
3396 11-03-2019 18:55:00 6.2 C 72 % 1.54 C
3397 11-03-2019 19:00:00 6.1 C 72 % 1.44 C
3398 11-03-2019 19:05:00 5.9 C 72 % 1.25 C
3399 11-03-2019 19:10:00 5.9 C 72 % 1.25 C
3400 11-03-2019 19:15:00 5.8 C 73 % 1.34 C
Sensor: Nr:Datum:Temp:Feuchte:Taupunkt:
Aussen-T/F 3401 11-03-2019 19:20:00 5.8 C 73 % 1.34 C
3402 11-03-2019 19:25:00 5.8 C 73 % 1.34 C
3403 11-03-2019 19:30:00 5.8 C 73 % 1.34 C
3404 11-03-2019 19:35:00 5.8 C 73 % 1.34 C
3405 11-03-2019 19:40:00 5.8 C 72 % 1.15 C
3406 11-03-2019 19:45:00 5.8 C 73 % 1.34 C
3407 11-03-2019 19:50:00 5.8 C 73 % 1.34 C
3408 11-03-2019 19:55:00 5.7 C 73 % 1.25 C
3409 11-03-2019 20:00:00 5.7 C 73 % 1.25 C
3410 11-03-2019 20:05:00 5.7 C 73 % 1.25 C
3411 11-03-2019 20:10:00 5.7 C 73 % 1.25 C
3412 11-03-2019 20:15:00 5.8 C 73 % 1.34 C
3413 11-03-2019 20:20:00 5.7 C 73 % 1.25 C
3414 11-03-2019 20:25:00 5.7 C 73 % 1.25 C
3415 11-03-2019 20:30:00 5.7 C 73 % 1.25 C
3416 11-03-2019 20:35:00 5.7 C 74 % 1.44 C
3417 11-03-2019 20:40:00 5.7 C 74 % 1.44 C
3418 11-03-2019 20:45:00 5.6 C 74 % 1.34 C
3419 11-03-2019 20:50:00 5.6 C 74 % 1.34 C
3420 11-03-2019 20:55:00 5.6 C 75 % 1.53 C
3421 11-03-2019 21:00:00 5.5 C 75 % 1.43 C
3422 11-03-2019 21:05:00 5.4 C 75 % 1.33 C
3423 11-03-2019 21:10:00 5.3 C 76 % 1.42 C
3424 11-03-2019 21:15:00 5.2 C 76 % 1.32 C
3425 11-03-2019 21:20:00 5.2 C 76 % 1.32 C
Sensor: Nr:Datum:Temp:Feuchte:Taupunkt:
Aussen-T/F 3426 11-03-2019 21:25:00 5.2 C 76 % 1.32 C
3427 11-03-2019 21:30:00 5.2 C 75 % 1.14 C
3428 11-03-2019 21:35:00 5.2 C 75 % 1.14 C
3429 11-03-2019 21:40:00 5.2 C 74 % 0.95 C
3430 11-03-2019 21:45:00 5.3 C 74 % 1.05 C
3431 11-03-2019 21:50:00 5.3 C 74 % 1.05 C
3432 11-03-2019 21:55:00 5.4 C 74 % 1.15 C
3433 11-03-2019 22:00:00 5.4 C 74 % 1.15 C
3434 11-03-2019 22:05:00 5.5 C 74 % 1.24 C
3435 11-03-2019 22:10:00 5.5 C 74 % 1.24 C
3436 11-03-2019 22:15:00 5.5 C 74 % 1.24 C
3437 11-03-2019 22:20:00 5.5 C 74 % 1.24 C
3438 11-03-2019 22:25:00 5.4 C 74 % 1.15 C
3439 11-03-2019 22:30:00 5.3 C 74 % 1.05 C
3440 11-03-2019 22:35:00 5.3 C 75 % 1.24 C
3441 11-03-2019 22:40:00 5.2 C 75 % 1.14 C
3442 11-03-2019 22:45:00 5.2 C 75 % 1.14 C
3443 11-03-2019 22:50:00 5.2 C 75 % 1.14 C
3444 11-03-2019 22:55:00 5.1 C 75 % 1.04 C
3445 11-03-2019 23:00:00 5.1 C 75 % 1.04 C
3446 11-03-2019 23:05:00 5 C 75 % 0.95 C
3447 11-03-2019 23:10:00 4.9 C 75 % 0.85 C
3448 11-03-2019 23:15:00 4.9 C 75 % 0.85 C
3449 11-03-2019 23:20:00 4.8 C 75 % 0.75 C
3450 11-03-2019 23:25:00 4.8 C 76 % 0.94 C
Sensor: Nr:Datum:Temp:Feuchte:Taupunkt:
Aussen-T/F 3451 11-03-2019 23:30:00 4.8 C 76 % 0.94 C
3452 11-03-2019 23:35:00 4.7 C 76 % 0.84 C
3453 11-03-2019 23:40:00 4.6 C 77 % 0.92 C
3454 11-03-2019 23:45:00 4.5 C 77 % 0.83 C
3455 11-03-2019 23:50:00 4.5 C 77 % 0.83 C
3456 11-03-2019 23:55:00 4.4 C 78 % 0.91 C
3457 12-03-2019 00:00:00 4.5 C 78 % 1.01 C
3458 12-03-2019 00:05:00 4.4 C 78 % 0.91 C
3459 12-03-2019 00:10:00 4.4 C 79 % 1.09 C
3460 12-03-2019 00:15:00 4.4 C 79 % 1.09 C
3461 12-03-2019 00:20:00 4.3 C 79 % 0.99 C
3462 12-03-2019 00:25:00 4.3 C 80 % 1.16 C
3463 12-03-2019 00:30:00 4.2 C 80 % 1.07 C
3464 12-03-2019 00:35:00 4.1 C 81 % 1.14 C
3465 12-03-2019 00:40:00 4 C 81 % 1.04 C
3466 12-03-2019 00:45:00 3.9 C 82 % 1.12 C
3467 12-03-2019 00:50:00 3.9 C 82 % 1.12 C
3468 12-03-2019 00:55:00 3.9 C 82 % 1.12 C
3469 12-03-2019 01:00:00 3.8 C 82 % 1.02 C
3470 12-03-2019 01:05:00 3.7 C 83 % 1.09 C
3471 12-03-2019 01:10:00 3.6 C 82 % 0.82 C
3472 12-03-2019 01:15:00 3.4 C 83 % 0.79 C
3473 12-03-2019 01:20:00 3.3 C 84 % 0.86 C
3474 12-03-2019 01:25:00 3.2 C 84 % 0.76 C
3475 12-03-2019 01:30:00 3.1 C 85 % 0.83 C
Sensor: Nr:Datum:Temp:Feuchte:Taupunkt:
Aussen-T/F 3476 12-03-2019 01:35:00 3.1 C 85 % 0.83 C
3477 12-03-2019 01:40:00 3.1 C 85 % 0.83 C
3478 12-03-2019 01:45:00 2.9 C 85 % 0.63 C
3479 12-03-2019 01:50:00 2.8 C 85 % 0.54 C
3480 12-03-2019 01:55:00 2.7 C 86 % 0.6 C
3481 12-03-2019 02:00:00 2.7 C 86 % 0.6 C
3482 12-03-2019 02:05:00 2.6 C 86 % 0.5 C
3483 12-03-2019 02:10:00 2.4 C 86 % 0.3 C
3484 12-03-2019 02:15:00 2.3 C 86 % 0.21 C
3485 12-03-2019 02:20:00 2.2 C 86 % 0.11 C
3486 12-03-2019 02:25:00 2.1 C 87 % 0.17 C
3487 12-03-2019 02:30:00 2 C 87 % 0.07 C
3488 12-03-2019 02:35:00 1.9 C 88 % 0.13 C
3489 12-03-2019 02:40:00 1.9 C 88 % 0.13 C
3490 12-03-2019 02:45:00 1.9 C 88 % 0.13 C
3491 12-03-2019 02:50:00 2 C 88 % 0.23 C
3492 12-03-2019 02:55:00 1.9 C 88 % 0.13 C
3493 12-03-2019 03:00:00 1.9 C 88 % 0.13 C
3494 12-03-2019 03:05:00 1.8 C 88 % 0.03 C
3495 12-03-2019 03:10:00 1.7 C 89 % 0.09 C
3496 12-03-2019 03:15:00 1.7 C 88 % -0.07 C
3497 12-03-2019 03:20:00 1.7 C 89 % 0.09 C
3498 12-03-2019 03:25:00 1.7 C 89 % 0.09 C
3499 12-03-2019 03:30:00 1.6 C 89 % -0.01 C
3500 12-03-2019 03:35:00 1.6 C 89 % -0.01 C
Sensor: Nr:Datum:Temp:Feuchte:Taupunkt:
Aussen-T/F 3501 12-03-2019 03:40:00 1.5 C 89 % -0.11 C
3502 12-03-2019 03:45:00 1.6 C 89 % -0.01 C
3503 12-03-2019 03:50:00 1.6 C 89 % -0.01 C
3504 12-03-2019 03:55:00 1.5 C 89 % -0.11 C
3505 12-03-2019 04:00:00 1.5 C 89 % -0.11 C
3506 12-03-2019 04:05:00 1.4 C 89 % -0.21 C
3507 12-03-2019 04:10:00 1.4 C 89 % -0.21 C
3508 12-03-2019 04:15:00 1.4 C 89 % -0.21 C
3509 12-03-2019 04:20:00 1.4 C 90 % -0.06 C
3510 12-03-2019 04:25:00 1.4 C 89 % -0.21 C
3511 12-03-2019 04:30:00 1.3 C 89 % -0.31 C
3512 12-03-2019 04:35:00 1.3 C 90 % -0.15 C
3513 12-03-2019 04:40:00 1.2 C 89 % -0.41 C
3514 12-03-2019 04:45:00 1.2 C 90 % -0.25 C
3515 12-03-2019 04:50:00 1.2 C 90 % -0.25 C
3516 12-03-2019 04:55:00 1.3 C 90 % -0.15 C
3517 12-03-2019 05:00:00 1.3 C 90 % -0.15 C
3518 12-03-2019 05:05:00 1.3 C 90 % -0.15 C
3519 12-03-2019 05:10:00 1.4 C 90 % -0.06 C
3520 12-03-2019 05:15:00 1.5 C 90 % 0.04 C
3521 12-03-2019 05:20:00 1.6 C 90 % 0.14 C
3522 12-03-2019 05:25:00 1.7 C 90 % 0.24 C
3523 12-03-2019 05:30:00 1.7 C 90 % 0.24 C
3524 12-03-2019 05:35:00 1.7 C 90 % 0.24 C
3525 12-03-2019 05:40:00 1.8 C 90 % 0.34 C
Sensor: Nr:Datum:Temp:Feuchte:Taupunkt:
Aussen-T/F 3526 12-03-2019 05:45:00 1.8 C 90 % 0.34 C
3527 12-03-2019 05:50:00 1.8 C 90 % 0.34 C
3528 12-03-2019 05:55:00 1.9 C 90 % 0.44 C
3529 12-03-2019 06:00:00 1.9 C 90 % 0.44 C
3530 12-03-2019 06:05:00 1.9 C 90 % 0.44 C
3531 12-03-2019 06:10:00 1.9 C 90 % 0.44 C
3532 12-03-2019 06:15:00 1.9 C 89 % 0.28 C
3533 12-03-2019 06:20:00 1.8 C 89 % 0.19 C
3534 12-03-2019 06:25:00 1.8 C 89 % 0.19 C
3535 12-03-2019 06:30:00 1.8 C 89 % 0.19 C
3536 12-03-2019 06:35:00 1.7 C 89 % 0.09 C
3537 12-03-2019 06:40:00 1.7 C 90 % 0.24 C
3538 12-03-2019 06:45:00 1.6 C 90 % 0.14 C
3539 12-03-2019 06:50:00 1.6 C 90 % 0.14 C
3540 12-03-2019 06:55:00 1.6 C 90 % 0.14 C
3541 12-03-2019 07:00:00 1.7 C 90 % 0.24 C
3542 12-03-2019 07:05:00 1.7 C 91 % 0.39 C
3543 12-03-2019 07:10:00 1.7 C 91 % 0.39 C
3544 12-03-2019 07:15:00 1.8 C 90 % 0.34 C
3545 12-03-2019 07:20:00 1.8 C 90 % 0.34 C
3546 12-03-2019 07:25:00 1.8 C 91 % 0.49 C
3547 12-03-2019 07:30:00 1.8 C 91 % 0.49 C
3548 12-03-2019 07:35:00 1.9 C 91 % 0.59 C
3549 12-03-2019 07:40:00 2.1 C 91 % 0.79 C
3550 12-03-2019 07:45:00 2.2 C 91 % 0.89 C
Sensor: Nr:Datum:Temp:Feuchte:Taupunkt:
Aussen-T/F 3551 12-03-2019 07:50:00 2.3 C 91 % 0.99 C
3552 12-03-2019 07:55:00 2.4 C 91 % 1.08 C
3553 12-03-2019 08:00:00 2.6 C 91 % 1.28 C
3554 12-03-2019 08:05:00 2.7 C 90 % 1.23 C
3555 12-03-2019 08:10:00 2.7 C 90 % 1.23 C
3556 12-03-2019 08:15:00 2.8 C 90 % 1.33 C
3557 12-03-2019 08:20:00 2.9 C 90 % 1.43 C
3558 12-03-2019 08:25:00 3.1 C 90 % 1.62 C
3559 12-03-2019 08:30:00 3.2 C 90 % 1.72 C
3560 12-03-2019 08:35:00 3.4 C 89 % 1.76 C
3561 12-03-2019 08:40:00 3.6 C 88 % 1.8 C
3562 12-03-2019 08:45:00 3.8 C 87 % 1.84 C
3563 12-03-2019 08:50:00 4 C 86 % 1.88 C
3564 12-03-2019 08:55:00 4.2 C 86 % 2.07 C
3565 12-03-2019 09:00:00 4.4 C 85 % 2.11 C
3566 12-03-2019 09:05:00 4.6 C 85 % 2.3 C
3567 12-03-2019 09:10:00 4.7 C 84 % 2.23 C
3568 12-03-2019 09:15:00 4.8 C 84 % 2.33 C
3569 12-03-2019 09:20:00 4.9 C 84 % 2.43 C
3570 12-03-2019 09:25:00 5.1 C 83 % 2.46 C
3571 12-03-2019 09:30:00 5.2 C 83 % 2.56 C
3572 12-03-2019 09:35:00 5.3 C 82 % 2.48 C
3573 12-03-2019 09:40:00 5.6 C 81 % 2.6 C
3574 12-03-2019 09:45:00 5.7 C 81 % 2.7 C
3575 12-03-2019 09:50:00 6 C 79 % 2.64 C
Sensor: Nr:Datum:Temp:Feuchte:Taupunkt:
Aussen-T/F 3576 12-03-2019 09:55:00 6.2 C 79 % 2.84 C
3577 12-03-2019 10:00:00 6.4 C 77 % 2.67 C
3578 12-03-2019 10:05:00 6.7 C 76 % 2.78 C
3579 12-03-2019 10:10:00 6.9 C 76 % 2.97 C
3580 12-03-2019 10:15:00 7.2 C 75 % 3.07 C
3581 12-03-2019 10:20:00 7.3 C 74 % 2.98 C
3582 12-03-2019 10:25:00 7.4 C 73 % 2.89 C
3583 12-03-2019 10:30:00 7.4 C 72 % 2.69 C
3584 12-03-2019 10:35:00 7.6 C 71 % 2.69 C
3585 12-03-2019 10:40:00 7.7 C 69 % 2.38 C
3586 12-03-2019 10:45:00 7.9 C 69 % 2.57 C
3587 12-03-2019 10:50:00 8.1 C 69 % 2.77 C
3588 12-03-2019 10:55:00 8.2 C 67 % 2.45 C
3589 12-03-2019 11:00:00 8.2 C 66 % 2.24 C
3590 12-03-2019 11:05:00 8.2 C 66 % 2.24 C
3591 12-03-2019 11:10:00 8.3 C 66 % 2.33 C
3592 12-03-2019 11:15:00 8.4 C 65 % 2.21 C
3593 12-03-2019 11:20:00 8.6 C 65 % 2.4 C
3594 12-03-2019 11:25:00 8.8 C 64 % 2.38 C
3595 12-03-2019 11:30:00 9 C 63 % 2.35 C
3596 12-03-2019 11:35:00 9.1 C 63 % 2.44 C
3597 12-03-2019 11:40:00 9.2 C 61 % 2.08 C
3598 12-03-2019 11:45:00 9.2 C 61 % 2.08 C
3599 12-03-2019 11:50:00 9.2 C 62 % 2.31 C
3600 12-03-2019 11:55:00 9.2 C 61 % 2.08 C
Sensor: Nr:Datum:Temp:Feuchte:Taupunkt:
Aussen-T/F 3601 12-03-2019 12:00:00 9.2 C 61 % 2.08 C
3602 12-03-2019 12:05:00 9.2 C 63 % 2.53 C
3603 12-03-2019 12:10:00 9.2 C 62 % 2.31 C
3604 12-03-2019 12:15:00 9.2 C 62 % 2.31 C
3605 12-03-2019 12:20:00 9.2 C 61 % 2.08 C
3606 12-03-2019 12:25:00 9.3 C 62 % 2.4 C
3607 12-03-2019 12:30:00 9.4 C 60 % 2.04 C
3608 12-03-2019 12:35:00 9.5 C 61 % 2.37 C
3609 12-03-2019 12:40:00 9.6 C 60 % 2.23 C
3610 12-03-2019 12:45:00 9.7 C 61 % 2.55 C
3611 12-03-2019 12:50:00 9.7 C 61 % 2.55 C
3612 12-03-2019 12:55:00 9.7 C 60 % 2.32 C
3613 12-03-2019 13:00:00 9.7 C 60 % 2.32 C
3614 12-03-2019 13:05:00 9.6 C 60 % 2.23 C
3615 12-03-2019 13:10:00 9.6 C 60 % 2.23 C
3616 12-03-2019 13:15:00 9.6 C 59 % 1.99 C
3617 12-03-2019 13:20:00 9.7 C 61 % 2.55 C
3618 12-03-2019 13:25:00 9.7 C 59 % 2.09 C
3619 12-03-2019 13:30:00 9.8 C 60 % 2.42 C
3620 12-03-2019 13:35:00 9.9 C 60 % 2.51 C
3621 12-03-2019 13:40:00 9.9 C 58 % 2.04 C
3622 12-03-2019 13:45:00 9.8 C 59 % 2.18 C
3623 12-03-2019 13:50:00 9.8 C 58 % 1.94 C
3624 12-03-2019 13:55:00 9.8 C 59 % 2.18 C
3625 12-03-2019 14:00:00 9.8 C 59 % 2.18 C
Sensor: Nr:Datum:Temp:Feuchte:Taupunkt:
Aussen-T/F 3626 12-03-2019 14:05:00 9.9 C 59 % 2.27 C
3627 12-03-2019 14:10:00 10.1 C 60 % 2.7 C
3628 12-03-2019 14:15:00 10.1 C 59 % 2.46 C
3629 12-03-2019 14:20:00 10.1 C 58 % 2.22 C
3630 12-03-2019 14:25:00 10.2 C 57 % 2.07 C
3631 12-03-2019 14:30:00 10.2 C 56 % 1.83 C
3632 12-03-2019 14:35:00 10.2 C 57 % 2.07 C
3633 12-03-2019 14:40:00 10.3 C 58 % 2.41 C
3634 12-03-2019 14:45:00 10.3 C 56 % 1.92 C
3635 12-03-2019 14:50:00 10.4 C 57 % 2.26 C
3636 12-03-2019 14:55:00 10.6 C 56 % 2.2 C
3637 12-03-2019 15:00:00 10.8 C 55 % 2.13 C
3638 12-03-2019 15:05:00 10.8 C 55 % 2.13 C
3639 12-03-2019 15:10:00 10.8 C 55 % 2.13 C
3640 12-03-2019 15:15:00 10.8 C 54 % 1.88 C
3641 12-03-2019 15:20:00 10.6 C 53 % 1.43 C
3642 12-03-2019 15:25:00 10.6 C 54 % 1.69 C
3643 12-03-2019 15:30:00 10.4 C 54 % 1.51 C
3644 12-03-2019 15:35:00 10.4 C 53 % 1.25 C
3645 12-03-2019 15:40:00 10.3 C 53 % 1.15 C
3646 12-03-2019 15:45:00 10.3 C 54 % 1.41 C
3647 12-03-2019 15:50:00 10.4 C 53 % 1.25 C
3648 12-03-2019 15:55:00 10.6 C 55 % 1.95 C
3649 12-03-2019 16:00:00 10.6 C 54 % 1.69 C
3650 12-03-2019 16:05:00 10.6 C 52 % 1.17 C
Sensor: Nr:Datum:Temp:Feuchte:Taupunkt:
Aussen-T/F 3651 12-03-2019 16:10:00 10.6 C 52 % 1.17 C
3652 12-03-2019 16:15:00 10.6 C 49 % 0.35 C
3653 12-03-2019 16:20:00 10.5 C 52 % 1.07 C
3654 12-03-2019 16:25:00 10.4 C 49 % 0.16 C
3655 12-03-2019 16:30:00 10.3 C 48 % -0.21 C
3656 12-03-2019 16:35:00 10.2 C 49 % -0.02 C
3657 12-03-2019 16:40:00 10.2 C 50 % 0.26 C
3658 12-03-2019 16:45:00 10.1 C 50 % 0.16 C
3659 12-03-2019 16:50:00 10 C 49 % -0.21 C
3660 12-03-2019 16:55:00 9.9 C 49 % -0.3 C
3661 12-03-2019 17:00:00 9.9 C 52 % 0.52 C
3662 12-03-2019 17:05:00 9.8 C 52 % 0.43 C
3663 12-03-2019 17:10:00 9.8 C 51 % 0.16 C
3664 12-03-2019 17:15:00 9.7 C 51 % 0.07 C
3665 12-03-2019 17:20:00 9.6 C 54 % 0.76 C
3666 12-03-2019 17:25:00 9.5 C 53 % 0.41 C
3667 12-03-2019 17:30:00 9.3 C 59 % 1.71 C
3668 12-03-2019 17:35:00 9.2 C 56 % 0.89 C
3669 12-03-2019 17:40:00 9 C 57 % 0.95 C
3670 12-03-2019 17:45:00 8.9 C 58 % 1.1 C
3671 12-03-2019 17:50:00 8.8 C 61 % 1.71 C
3672 12-03-2019 17:55:00 8.6 C 62 % 1.74 C
3673 12-03-2019 18:00:00 8.4 C 62 % 1.55 C
3674 12-03-2019 18:05:00 8.3 C 62 % 1.46 C
3675 12-03-2019 18:10:00 8.2 C 61 % 1.14 C
Sensor: Nr:Datum:Temp:Feuchte:Taupunkt:
Aussen-T/F 3676 12-03-2019 18:15:00 8.1 C 62 % 1.27 C
3677 12-03-2019 18:20:00 8 C 63 % 1.4 C
3678 12-03-2019 18:25:00 7.9 C 61 % 0.86 C
3679 12-03-2019 18:30:00 7.9 C 62 % 1.08 C
3680 12-03-2019 18:35:00 7.9 C 63 % 1.3 C
3681 12-03-2019 18:40:00 8 C 58 % 0.25 C
3682 12-03-2019 18:45:00 8.1 C 59 % 0.58 C
3683 12-03-2019 18:50:00 8.2 C 62 % 1.37 C
3684 12-03-2019 18:55:00 8.2 C 60 % 0.91 C
3685 12-03-2019 19:00:00 8.4 C 56 % 0.15 C
3686 12-03-2019 19:05:00 8.5 C 59 % 0.96 C
3687 12-03-2019 19:10:00 8.5 C 54 % -0.26 C
3688 12-03-2019 19:15:00 8.6 C 59 % 1.05 C
3689 12-03-2019 19:20:00 8.6 C 52 % -0.68 C
3690 12-03-2019 19:25:00 8.8 C 55 % 0.27 C
3691 12-03-2019 19:30:00 8.8 C 58 % 1 C
3692 12-03-2019 19:35:00 8.9 C 51 % -0.67 C
3693 12-03-2019 19:40:00 9.1 C 52 % -0.22 C
3694 12-03-2019 19:45:00 8.9 C 53 % -0.15 C
3695 12-03-2019 19:50:00 8.8 C 52 % -0.5 C
3696 12-03-2019 19:55:00 8.8 C 49 % -1.31 C
3697 12-03-2019 20:00:00 8.8 C 48 % -1.59 C
3698 12-03-2019 20:05:00 9 C 46 % -1.98 C
3699 12-03-2019 20:10:00 9.3 C 46 % -1.71 C
3700 12-03-2019 20:15:00 9.4 C 46 % -1.62 C
Sensor: Nr:Datum:Temp:Feuchte:Taupunkt:
Aussen-T/F 3701 12-03-2019 20:20:00 9.4 C 50 % -0.48 C
3702 12-03-2019 20:25:00 9.4 C 45 % -1.91 C
3703 12-03-2019 20:30:00 9.4 C 46 % -1.62 C
3704 12-03-2019 20:35:00 9.5 C 46 % -1.53 C
3705 12-03-2019 20:40:00 9.6 C 46 % -1.43 C
3706 12-03-2019 20:45:00 9.7 C 47 % -1.05 C
3707 12-03-2019 20:50:00 9.8 C 46 % -1.25 C
3708 12-03-2019 20:55:00 9.8 C 46 % -1.25 C
3709 12-03-2019 21:00:00 10 C 45 % -1.37 C
3710 12-03-2019 21:05:00 10.2 C 46 % -0.89 C
3711 12-03-2019 21:10:00 10.3 C 46 % -0.8 C
3712 12-03-2019 21:15:00 10.4 C 46 % -0.7 C
3713 12-03-2019 21:20:00 10.6 C 45 % -0.82 C
3714 12-03-2019 21:25:00 10.8 C 44 % -0.95 C
3715 12-03-2019 21:30:00 11 C 45 % -0.46 C
3716 12-03-2019 21:35:00 11.1 C 45 % -0.37 C
3717 12-03-2019 21:40:00 11 C 46 % -0.16 C
3718 12-03-2019 21:45:00 11.1 C 46 % -0.07 C
3719 12-03-2019 21:50:00 11.2 C 47 % 0.32 C
3720 12-03-2019 21:55:00 11.2 C 47 % 0.32 C
3721 12-03-2019 22:00:00 11.3 C 49 % 0.99 C
3722 12-03-2019 22:05:00 11.3 C 49 % 0.99 C
3723 12-03-2019 22:10:00 11.3 C 50 % 1.27 C
3724 12-03-2019 22:15:00 11.3 C 51 % 1.54 C
3725 12-03-2019 22:20:00 11.3 C 51 % 1.54 C
Sensor: Nr:Datum:Temp:Feuchte:Taupunkt:
Aussen-T/F 3726 12-03-2019 22:25:00 11.3 C 52 % 1.81 C
3727 12-03-2019 22:30:00 11.3 C 53 % 2.08 C
3728 12-03-2019 22:35:00 11.2 C 54 % 2.25 C
3729 12-03-2019 22:40:00 11.2 C 54 % 2.25 C
3730 12-03-2019 22:45:00 11.1 C 57 % 2.92 C
3731 12-03-2019 22:50:00 10.8 C 62 % 3.82 C
3732 12-03-2019 22:55:00 10.3 C 65 % 4.02 C
3733 12-03-2019 23:00:00 9.9 C 69 % 4.49 C
3734 12-03-2019 23:05:00 9.6 C 71 % 4.61 C
3735 12-03-2019 23:10:00 9.3 C 73 % 4.72 C
3736 12-03-2019 23:15:00 9.1 C 74 % 4.72 C
3737 12-03-2019 23:20:00 8.9 C 76 % 4.91 C
3738 12-03-2019 23:25:00 8.8 C 76 % 4.81 C
3739 12-03-2019 23:30:00 8.7 C 78 % 5.08 C
3740 12-03-2019 23:35:00 8.5 C 79 % 5.07 C
3741 12-03-2019 23:40:00 8 C 79 % 4.59 C
3742 12-03-2019 23:45:00 7.5 C 80 % 4.28 C
3743 12-03-2019 23:50:00 7.2 C 82 % 4.34 C
3744 12-03-2019 23:55:00 6.9 C 83 % 4.22 C
3745 13-03-2019 00:00:00 6.8 C 83 % 4.12 C
3746 13-03-2019 00:05:00 6.8 C 83 % 4.12 C
3747 13-03-2019 00:10:00 6.8 C 82 % 3.95 C
3748 13-03-2019 00:15:00 6.7 C 80 % 3.5 C
3749 13-03-2019 00:20:00 6.6 C 80 % 3.4 C
3750 13-03-2019 00:25:00 6.6 C 80 % 3.4 C
Sensor: Nr:Datum:Temp:Feuchte:Taupunkt:
Aussen-T/F 3751 13-03-2019 00:30:00 6.4 C 80 % 3.21 C
3752 13-03-2019 00:35:00 6.4 C 80 % 3.21 C
3753 13-03-2019 00:40:00 6.3 C 80 % 3.11 C
3754 13-03-2019 00:45:00 6.3 C 79 % 2.93 C
3755 13-03-2019 00:50:00 6.4 C 80 % 3.21 C
3756 13-03-2019 00:55:00 6.3 C 80 % 3.11 C
3757 13-03-2019 01:00:00 6.2 C 79 % 2.84 C
3758 13-03-2019 01:05:00 6.2 C 79 % 2.84 C
3759 13-03-2019 01:10:00 6.1 C 79 % 2.74 C
3760 13-03-2019 01:15:00 5.9 C 79 % 2.54 C
3761 13-03-2019 01:20:00 5.8 C 79 % 2.45 C
3762 13-03-2019 01:25:00 5.7 C 80 % 2.53 C
3763 13-03-2019 01:30:00 5.6 C 80 % 2.43 C
3764 13-03-2019 01:35:00 5.6 C 80 % 2.43 C
3765 13-03-2019 01:40:00 5.4 C 80 % 2.23 C
3766 13-03-2019 01:45:00 5.4 C 80 % 2.23 C
3767 13-03-2019 01:50:00 5.5 C 79 % 2.16 C
3768 13-03-2019 01:55:00 5.5 C 79 % 2.16 C
3769 13-03-2019 02:00:00 5.5 C 80 % 2.33 C
3770 13-03-2019 02:05:00 5.4 C 80 % 2.23 C
3771 13-03-2019 02:10:00 5.3 C 81 % 2.31 C
3772 13-03-2019 02:15:00 5.2 C 81 % 2.21 C
3773 13-03-2019 02:20:00 5.2 C 82 % 2.39 C
3774 13-03-2019 02:25:00 5.2 C 82 % 2.39 C
3775 13-03-2019 02:30:00 5.3 C 82 % 2.48 C
Sensor: Nr:Datum:Temp:Feuchte:Taupunkt:
Aussen-T/F 3776 13-03-2019 02:35:00 5.4 C 81 % 2.41 C
3777 13-03-2019 02:40:00 5.5 C 79 % 2.16 C
3778 13-03-2019 02:45:00 5.6 C 78 % 2.07 C
3779 13-03-2019 02:50:00 5.7 C 78 % 2.17 C
3780 13-03-2019 02:55:00 5.8 C 78 % 2.27 C
3781 13-03-2019 03:00:00 5.8 C 78 % 2.27 C
3782 13-03-2019 03:05:00 5.7 C 77 % 1.99 C
3783 13-03-2019 03:10:00 5.7 C 77 % 1.99 C
3784 13-03-2019 03:15:00 5.6 C 76 % 1.71 C
3785 13-03-2019 03:20:00 5.6 C 77 % 1.89 C
3786 13-03-2019 03:25:00 5.6 C 77 % 1.89 C
3787 13-03-2019 03:30:00 5.7 C 77 % 1.99 C
3788 13-03-2019 03:35:00 5.8 C 77 % 2.09 C
3789 13-03-2019 03:40:00 5.8 C 77 % 2.09 C
3790 13-03-2019 03:45:00 5.9 C 77 % 2.19 C
3791 13-03-2019 03:50:00 5.9 C 78 % 2.37 C
3792 13-03-2019 03:55:00 5.8 C 78 % 2.27 C
3793 13-03-2019 04:00:00 5.8 C 78 % 2.27 C
3794 13-03-2019 04:05:00 5.7 C 79 % 2.35 C
3795 13-03-2019 04:10:00 5.6 C 79 % 2.25 C
3796 13-03-2019 04:15:00 5.7 C 79 % 2.35 C
3797 13-03-2019 04:20:00 5.6 C 79 % 2.25 C
3798 13-03-2019 04:25:00 5.6 C 80 % 2.43 C
3799 13-03-2019 04:30:00 5.6 C 80 % 2.43 C
3800 13-03-2019 04:35:00 5.5 C 80 % 2.33 C
Sensor: Nr:Datum:Temp:Feuchte:Taupunkt:
Aussen-T/F 3801 13-03-2019 04:40:00 5.4 C 80 % 2.23 C
3802 13-03-2019 04:45:00 5.3 C 81 % 2.31 C
3803 13-03-2019 04:50:00 5.3 C 81 % 2.31 C
3804 13-03-2019 04:55:00 5.3 C 81 % 2.31 C
3805 13-03-2019 05:00:00 5.4 C 83 % 2.75 C
3806 13-03-2019 05:05:00 5.4 C 83 % 2.75 C
3807 13-03-2019 05:10:00 5.4 C 83 % 2.75 C
3808 13-03-2019 05:15:00 5.3 C 83 % 2.65 C
3809 13-03-2019 05:20:00 5.3 C 83 % 2.65 C
3810 13-03-2019 05:25:00 5.2 C 83 % 2.56 C
3811 13-03-2019 05:30:00 5.2 C 84 % 2.72 C
3812 13-03-2019 05:35:00 5.3 C 83 % 2.65 C
3813 13-03-2019 05:40:00 5.4 C 83 % 2.75 C
3814 13-03-2019 05:45:00 5.5 C 83 % 2.85 C
3815 13-03-2019 05:50:00 5.4 C 83 % 2.75 C
3816 13-03-2019 05:55:00 5.3 C 83 % 2.65 C
3817 13-03-2019 06:00:00 5.3 C 83 % 2.65 C
3818 13-03-2019 06:05:00 5.2 C 83 % 2.56 C
3819 13-03-2019 06:10:00 5.1 C 83 % 2.46 C
3820 13-03-2019 06:15:00 4.9 C 83 % 2.26 C
3821 13-03-2019 06:20:00 4.8 C 83 % 2.16 C
3822 13-03-2019 06:25:00 4.9 C 84 % 2.43 C
3823 13-03-2019 06:30:00 5.1 C 84 % 2.63 C
3824 13-03-2019 06:35:00 5.2 C 83 % 2.56 C
3825 13-03-2019 06:40:00 5.3 C 83 % 2.65 C
Sensor: Nr:Datum:Temp:Feuchte:Taupunkt:
Aussen-T/F 3826 13-03-2019 06:45:00 5.4 C 82 % 2.58 C
3827 13-03-2019 06:50:00 5.4 C 81 % 2.41 C
3828 13-03-2019 06:55:00 5.4 C 81 % 2.41 C
3829 13-03-2019 07:00:00 5.4 C 81 % 2.41 C
3830 13-03-2019 07:05:00 5.4 C 81 % 2.41 C
3831 13-03-2019 07:10:00 5.4 C 81 % 2.41 C
3832 13-03-2019 07:15:00 5.4 C 81 % 2.41 C
3833 13-03-2019 07:20:00 5.4 C 80 % 2.23 C
3834 13-03-2019 07:25:00 5.4 C 80 % 2.23 C
3835 13-03-2019 07:30:00 5.4 C 80 % 2.23 C
3836 13-03-2019 07:35:00 5.4 C 80 % 2.23 C
3837 13-03-2019 07:40:00 5.5 C 80 % 2.33 C
3838 13-03-2019 07:45:00 5.6 C 80 % 2.43 C
3839 13-03-2019 07:50:00 5.6 C 81 % 2.6 C
3840 13-03-2019 07:55:00 5.7 C 82 % 2.87 C
3841 13-03-2019 08:00:00 5.6 C 81 % 2.6 C
3842 13-03-2019 08:05:00 5.6 C 81 % 2.6 C
3843 13-03-2019 08:10:00 5.8 C 81 % 2.8 C
3844 13-03-2019 08:15:00 5.9 C 80 % 2.72 C
3845 13-03-2019 08:20:00 6.1 C 80 % 2.92 C
3846 13-03-2019 08:25:00 6.2 C 80 % 3.01 C
3847 13-03-2019 08:30:00 6.3 C 80 % 3.11 C
3848 13-03-2019 08:35:00 6.3 C 80 % 3.11 C
3849 13-03-2019 08:40:00 6.3 C 79 % 2.93 C
3850 13-03-2019 08:45:00 6.3 C 80 % 3.11 C
Sensor: Nr:Datum:Temp:Feuchte:Taupunkt:
Aussen-T/F 3851 13-03-2019 08:50:00 6.3 C 80 % 3.11 C
3852 13-03-2019 08:55:00 6.3 C 80 % 3.11 C
3853 13-03-2019 09:00:00 6.3 C 80 % 3.11 C
3854 13-03-2019 09:05:00 6.3 C 80 % 3.11 C
3855 13-03-2019 09:10:00 6.3 C 80 % 3.11 C
3856 13-03-2019 09:15:00 6.4 C 79 % 3.03 C
3857 13-03-2019 09:20:00 6.6 C 77 % 2.86 C
3858 13-03-2019 09:25:00 6.7 C 77 % 2.96 C
3859 13-03-2019 09:30:00 6.8 C 77 % 3.06 C
3860 13-03-2019 09:35:00 6.7 C 77 % 2.96 C
3861 13-03-2019 09:40:00 6.6 C 76 % 2.68 C
3862 13-03-2019 09:45:00 6.5 C 77 % 2.77 C
3863 13-03-2019 09:50:00 6.4 C 77 % 2.67 C
3864 13-03-2019 09:55:00 6.4 C 77 % 2.67 C
3865 13-03-2019 10:00:00 6.4 C 78 % 2.85 C
3866 13-03-2019 10:05:00 6.6 C 78 % 3.05 C
3867 13-03-2019 10:10:00 6.7 C 78 % 3.14 C
3868 13-03-2019 10:15:00 6.8 C 77 % 3.06 C
3869 13-03-2019 10:20:00 6.9 C 77 % 3.16 C
3870 13-03-2019 10:25:00 6.9 C 77 % 3.16 C
3871 13-03-2019 10:30:00 6.9 C 78 % 3.34 C
3872 13-03-2019 10:35:00 7.1 C 77 % 3.35 C
3873 13-03-2019 10:40:00 7.1 C 77 % 3.35 C
3874 13-03-2019 10:45:00 7.2 C 77 % 3.45 C
3875 13-03-2019 10:50:00 7.3 C 77 % 3.54 C
Sensor: Nr:Datum:Temp:Feuchte:Taupunkt:
Aussen-T/F 3876 13-03-2019 10:55:00 7.4 C 76 % 3.45 C
3877 13-03-2019 11:00:00 7.4 C 76 % 3.45 C
3878 13-03-2019 11:05:00 7.6 C 76 % 3.65 C
3879 13-03-2019 11:10:00 7.7 C 75 % 3.56 C
3880 13-03-2019 11:15:00 7.8 C 75 % 3.65 C
3881 13-03-2019 11:20:00 7.8 C 74 % 3.46 C
3882 13-03-2019 11:25:00 7.8 C 75 % 3.65 C
3883 13-03-2019 11:30:00 7.8 C 74 % 3.46 C
3884 13-03-2019 11:35:00 7.9 C 74 % 3.56 C
3885 13-03-2019 11:40:00 8.1 C 76 % 4.13 C
3886 13-03-2019 11:45:00 8.1 C 75 % 3.94 C
3887 13-03-2019 11:50:00 8 C 76 % 4.04 C
3888 13-03-2019 11:55:00 7.8 C 76 % 3.84 C
3889 13-03-2019 12:00:00 7.8 C 77 % 4.03 C
3890 13-03-2019 12:05:00 7.9 C 76 % 3.94 C
3891 13-03-2019 12:10:00 8 C 75 % 3.85 C
3892 13-03-2019 12:15:00 8.2 C 75 % 4.04 C
3893 13-03-2019 12:20:00